<?xml version="1.0" encoding="UTF-8" standalone="no" ?>
<gpx xmlns="http://www.topografix.com/GPX/1/1" xmlns:xsi="http://www.w3.org/2001/XMLSchema-instance" xsi:schemaLocation="http://www.topografix.com/GPX/1/1 http://www.topografix.com/GPX/1/1/gpx.xsd" version="1.1" creator="VisuGPX - https://www.visugpx.com">
  <metadata>
    <name>2024-10-24-46-Le Montat-le lard </name>
    <desc><![CDATA[randonnée de 9 km pour environ 200m de dénivelé positif. un circuit dans la nature du Montat, sur des chemins souvent en sous bois, les montées et descentes se font tranquillement et sur la longueur, passage derrière les vignes du château de Hauteserre]]></desc>
  </metadata>
  <trk>
    <name><![CDATA[2024-10-24-46-Le Montat-le lard _1]]></name>
    <trkseg>
      <trkpt lat="44.37961" lon="1.48094">
        <ele>268.3</ele>
        <time>2024-08-22T05:56:28Z</time>
      </trkpt>
      <trkpt lat="44.37964" lon="1.48088">
        <ele>268.3</ele>
        <time>2024-08-22T05:56:34Z</time>
      </trkpt>
      <trkpt lat="44.37968" lon="1.48084">
        <ele>271.4</ele>
        <time>2024-08-22T05:57:15Z</time>
      </trkpt>
      <trkpt lat="44.37971" lon="1.48078">
        <ele>271.8</ele>
        <time>2024-08-22T05:57:20Z</time>
      </trkpt>
      <trkpt lat="44.37974" lon="1.48073">
        <ele>272.4</ele>
        <time>2024-08-22T05:57:24Z</time>
      </trkpt>
      <trkpt lat="44.37977" lon="1.48068">
        <ele>272.8</ele>
        <time>2024-08-22T05:57:27Z</time>
      </trkpt>
      <trkpt lat="44.3798" lon="1.48062">
        <ele>273.1</ele>
        <time>2024-08-22T05:57:32Z</time>
      </trkpt>
      <trkpt lat="44.37983" lon="1.48056">
        <ele>271.8</ele>
        <time>2024-08-22T05:57:40Z</time>
      </trkpt>
      <trkpt lat="44.37984" lon="1.4805">
        <ele>270.9</ele>
        <time>2024-08-22T05:57:45Z</time>
      </trkpt>
      <trkpt lat="44.37986" lon="1.48043">
        <ele>270.1</ele>
        <time>2024-08-22T05:57:51Z</time>
      </trkpt>
      <trkpt lat="44.37988" lon="1.48037">
        <ele>269.3</ele>
        <time>2024-08-22T05:57:57Z</time>
      </trkpt>
      <trkpt lat="44.37992" lon="1.48031">
        <ele>268.9</ele>
        <time>2024-08-22T05:58:02Z</time>
      </trkpt>
      <trkpt lat="44.37995" lon="1.48026">
        <ele>268.9</ele>
        <time>2024-08-22T05:58:06Z</time>
      </trkpt>
      <trkpt lat="44.37998" lon="1.4802">
        <ele>269.6</ele>
        <time>2024-08-22T05:58:11Z</time>
      </trkpt>
      <trkpt lat="44.38001" lon="1.48015">
        <ele>270</ele>
        <time>2024-08-22T05:58:16Z</time>
      </trkpt>
      <trkpt lat="44.38003" lon="1.48009">
        <ele>270.2</ele>
        <time>2024-08-22T05:58:20Z</time>
      </trkpt>
      <trkpt lat="44.38006" lon="1.48004">
        <ele>269.9</ele>
        <time>2024-08-22T05:58:26Z</time>
      </trkpt>
      <trkpt lat="44.38009" lon="1.47997">
        <ele>269</ele>
        <time>2024-08-22T05:58:32Z</time>
      </trkpt>
      <trkpt lat="44.38011" lon="1.47992">
        <ele>268.5</ele>
        <time>2024-08-22T05:58:37Z</time>
      </trkpt>
      <trkpt lat="44.38014" lon="1.47986">
        <ele>268.3</ele>
        <time>2024-08-22T05:58:42Z</time>
      </trkpt>
      <trkpt lat="44.38017" lon="1.47981">
        <ele>268.1</ele>
        <time>2024-08-22T05:58:46Z</time>
      </trkpt>
      <trkpt lat="44.3802" lon="1.47975">
        <ele>268</ele>
        <time>2024-08-22T05:58:50Z</time>
      </trkpt>
      <trkpt lat="44.38023" lon="1.4797">
        <ele>267.4</ele>
        <time>2024-08-22T05:58:55Z</time>
      </trkpt>
      <trkpt lat="44.38026" lon="1.47964">
        <ele>266.7</ele>
        <time>2024-08-22T05:59:00Z</time>
      </trkpt>
      <trkpt lat="44.3803" lon="1.47959">
        <ele>266.3</ele>
        <time>2024-08-22T05:59:05Z</time>
      </trkpt>
      <trkpt lat="44.38033" lon="1.47955">
        <ele>266.2</ele>
        <time>2024-08-22T05:59:09Z</time>
      </trkpt>
      <trkpt lat="44.38037" lon="1.47949">
        <ele>266.5</ele>
        <time>2024-08-22T05:59:13Z</time>
      </trkpt>
      <trkpt lat="44.38041" lon="1.47945">
        <ele>267</ele>
        <time>2024-08-22T05:59:17Z</time>
      </trkpt>
      <trkpt lat="44.38045" lon="1.4794">
        <ele>267.2</ele>
        <time>2024-08-22T05:59:22Z</time>
      </trkpt>
      <trkpt lat="44.38048" lon="1.47936">
        <ele>266.7</ele>
        <time>2024-08-22T05:59:27Z</time>
      </trkpt>
      <trkpt lat="44.38052" lon="1.47931">
        <ele>266.4</ele>
        <time>2024-08-22T05:59:31Z</time>
      </trkpt>
      <trkpt lat="44.38057" lon="1.47927">
        <ele>266.4</ele>
        <time>2024-08-22T05:59:36Z</time>
      </trkpt>
      <trkpt lat="44.3806" lon="1.47921">
        <ele>266.5</ele>
        <time>2024-08-22T05:59:41Z</time>
      </trkpt>
      <trkpt lat="44.38064" lon="1.47915">
        <ele>266.7</ele>
        <time>2024-08-22T05:59:45Z</time>
      </trkpt>
      <trkpt lat="44.38067" lon="1.4791">
        <ele>267.1</ele>
        <time>2024-08-22T05:59:49Z</time>
      </trkpt>
      <trkpt lat="44.3807" lon="1.47906">
        <ele>267.7</ele>
        <time>2024-08-22T05:59:53Z</time>
      </trkpt>
      <trkpt lat="44.38074" lon="1.47902">
        <ele>267.7</ele>
        <time>2024-08-22T05:59:58Z</time>
      </trkpt>
      <trkpt lat="44.38079" lon="1.47899">
        <ele>267.2</ele>
        <time>2024-08-22T06:00:03Z</time>
      </trkpt>
      <trkpt lat="44.38083" lon="1.47894">
        <ele>266.3</ele>
        <time>2024-08-22T06:00:08Z</time>
      </trkpt>
      <trkpt lat="44.38087" lon="1.47891">
        <ele>265.4</ele>
        <time>2024-08-22T06:00:13Z</time>
      </trkpt>
      <trkpt lat="44.38092" lon="1.47886">
        <ele>264.7</ele>
        <time>2024-08-22T06:00:18Z</time>
      </trkpt>
      <trkpt lat="44.38095" lon="1.47882">
        <ele>265</ele>
        <time>2024-08-22T06:00:22Z</time>
      </trkpt>
      <trkpt lat="44.38099" lon="1.47877">
        <ele>265.4</ele>
        <time>2024-08-22T06:00:27Z</time>
      </trkpt>
      <trkpt lat="44.38103" lon="1.47872">
        <ele>265.7</ele>
        <time>2024-08-22T06:00:32Z</time>
      </trkpt>
      <trkpt lat="44.38107" lon="1.47867">
        <ele>265.4</ele>
        <time>2024-08-22T06:00:36Z</time>
      </trkpt>
      <trkpt lat="44.38111" lon="1.47863">
        <ele>265.2</ele>
        <time>2024-08-22T06:00:40Z</time>
      </trkpt>
      <trkpt lat="44.38114" lon="1.47858">
        <ele>265</ele>
        <time>2024-08-22T06:00:46Z</time>
      </trkpt>
      <trkpt lat="44.38117" lon="1.47853">
        <ele>265</ele>
        <time>2024-08-22T06:00:51Z</time>
      </trkpt>
      <trkpt lat="44.38121" lon="1.47848">
        <ele>264.5</ele>
        <time>2024-08-22T06:00:56Z</time>
      </trkpt>
      <trkpt lat="44.38125" lon="1.47844">
        <ele>264.2</ele>
        <time>2024-08-22T06:01:00Z</time>
      </trkpt>
      <trkpt lat="44.38129" lon="1.47839">
        <ele>264.1</ele>
        <time>2024-08-22T06:01:04Z</time>
      </trkpt>
      <trkpt lat="44.38132" lon="1.47835">
        <ele>263.6</ele>
        <time>2024-08-22T06:01:09Z</time>
      </trkpt>
      <trkpt lat="44.38136" lon="1.47831">
        <ele>263</ele>
        <time>2024-08-22T06:01:13Z</time>
      </trkpt>
      <trkpt lat="44.38139" lon="1.47826">
        <ele>262.8</ele>
        <time>2024-08-22T06:01:17Z</time>
      </trkpt>
      <trkpt lat="44.38144" lon="1.47822">
        <ele>262.9</ele>
        <time>2024-08-22T06:01:21Z</time>
      </trkpt>
      <trkpt lat="44.38148" lon="1.47819">
        <ele>263.1</ele>
        <time>2024-08-22T06:01:24Z</time>
      </trkpt>
      <trkpt lat="44.38151" lon="1.47815">
        <ele>263.8</ele>
        <time>2024-08-22T06:01:27Z</time>
      </trkpt>
      <trkpt lat="44.38155" lon="1.4781">
        <ele>264.9</ele>
        <time>2024-08-22T06:01:31Z</time>
      </trkpt>
      <trkpt lat="44.38159" lon="1.47806">
        <ele>265.5</ele>
        <time>2024-08-22T06:01:36Z</time>
      </trkpt>
      <trkpt lat="44.38163" lon="1.47802">
        <ele>265.8</ele>
        <time>2024-08-22T06:01:40Z</time>
      </trkpt>
      <trkpt lat="44.38167" lon="1.47798">
        <ele>266</ele>
        <time>2024-08-22T06:01:47Z</time>
      </trkpt>
      <trkpt lat="44.38171" lon="1.47795">
        <ele>265.7</ele>
        <time>2024-08-22T06:01:51Z</time>
      </trkpt>
      <trkpt lat="44.38175" lon="1.4779">
        <ele>265.7</ele>
        <time>2024-08-22T06:01:55Z</time>
      </trkpt>
      <trkpt lat="44.38179" lon="1.47785">
        <ele>265.7</ele>
        <time>2024-08-22T06:02:00Z</time>
      </trkpt>
      <trkpt lat="44.38183" lon="1.47781">
        <ele>265.7</ele>
        <time>2024-08-22T06:02:05Z</time>
      </trkpt>
      <trkpt lat="44.38186" lon="1.47776">
        <ele>265.6</ele>
        <time>2024-08-22T06:02:10Z</time>
      </trkpt>
      <trkpt lat="44.38191" lon="1.47773">
        <ele>265.5</ele>
        <time>2024-08-22T06:02:15Z</time>
      </trkpt>
      <trkpt lat="44.38195" lon="1.4777">
        <ele>265.6</ele>
        <time>2024-08-22T06:02:18Z</time>
      </trkpt>
      <trkpt lat="44.382" lon="1.47765">
        <ele>266.1</ele>
        <time>2024-08-22T06:02:22Z</time>
      </trkpt>
      <trkpt lat="44.38203" lon="1.4776">
        <ele>266.1</ele>
        <time>2024-08-22T06:02:27Z</time>
      </trkpt>
      <trkpt lat="44.38207" lon="1.47755">
        <ele>266.2</ele>
        <time>2024-08-22T06:02:32Z</time>
      </trkpt>
      <trkpt lat="44.38211" lon="1.47751">
        <ele>265.8</ele>
        <time>2024-08-22T06:02:39Z</time>
      </trkpt>
      <trkpt lat="44.38215" lon="1.47746">
        <ele>265.3</ele>
        <time>2024-08-22T06:02:44Z</time>
      </trkpt>
      <trkpt lat="44.38219" lon="1.47742">
        <ele>264.7</ele>
        <time>2024-08-22T06:02:48Z</time>
      </trkpt>
      <trkpt lat="44.38222" lon="1.47738">
        <ele>264.1</ele>
        <time>2024-08-22T06:02:53Z</time>
      </trkpt>
      <trkpt lat="44.38227" lon="1.47734">
        <ele>263.9</ele>
        <time>2024-08-22T06:02:58Z</time>
      </trkpt>
      <trkpt lat="44.38231" lon="1.47729">
        <ele>264.2</ele>
        <time>2024-08-22T06:03:03Z</time>
      </trkpt>
      <trkpt lat="44.38235" lon="1.47725">
        <ele>264.6</ele>
        <time>2024-08-22T06:03:08Z</time>
      </trkpt>
      <trkpt lat="44.3824" lon="1.4772">
        <ele>264.5</ele>
        <time>2024-08-22T06:03:13Z</time>
      </trkpt>
      <trkpt lat="44.38244" lon="1.47717">
        <ele>264.3</ele>
        <time>2024-08-22T06:03:17Z</time>
      </trkpt>
      <trkpt lat="44.38248" lon="1.47711">
        <ele>264.2</ele>
        <time>2024-08-22T06:03:22Z</time>
      </trkpt>
      <trkpt lat="44.38252" lon="1.47707">
        <ele>264.2</ele>
        <time>2024-08-22T06:03:27Z</time>
      </trkpt>
      <trkpt lat="44.38257" lon="1.47702">
        <ele>264.7</ele>
        <time>2024-08-22T06:03:32Z</time>
      </trkpt>
      <trkpt lat="44.38261" lon="1.47697">
        <ele>265.5</ele>
        <time>2024-08-22T06:03:36Z</time>
      </trkpt>
      <trkpt lat="44.38264" lon="1.47693">
        <ele>266.1</ele>
        <time>2024-08-22T06:03:40Z</time>
      </trkpt>
      <trkpt lat="44.38268" lon="1.47689">
        <ele>266.6</ele>
        <time>2024-08-22T06:03:44Z</time>
      </trkpt>
      <trkpt lat="44.38272" lon="1.47685">
        <ele>266.9</ele>
        <time>2024-08-22T06:03:48Z</time>
      </trkpt>
      <trkpt lat="44.38277" lon="1.47682">
        <ele>266.8</ele>
        <time>2024-08-22T06:03:53Z</time>
      </trkpt>
      <trkpt lat="44.38282" lon="1.47679">
        <ele>267.1</ele>
        <time>2024-08-22T06:03:58Z</time>
      </trkpt>
      <trkpt lat="44.38286" lon="1.47677">
        <ele>267.2</ele>
        <time>2024-08-22T06:04:02Z</time>
      </trkpt>
      <trkpt lat="44.38291" lon="1.47676">
        <ele>267.3</ele>
        <time>2024-08-22T06:04:06Z</time>
      </trkpt>
      <trkpt lat="44.38295" lon="1.47675">
        <ele>267.3</ele>
        <time>2024-08-22T06:04:10Z</time>
      </trkpt>
      <trkpt lat="44.383" lon="1.47673">
        <ele>267.4</ele>
        <time>2024-08-22T06:04:15Z</time>
      </trkpt>
      <trkpt lat="44.38304" lon="1.47671">
        <ele>267.2</ele>
        <time>2024-08-22T06:04:20Z</time>
      </trkpt>
      <trkpt lat="44.38309" lon="1.47672">
        <ele>266.8</ele>
        <time>2024-08-22T06:04:26Z</time>
      </trkpt>
      <trkpt lat="44.38314" lon="1.4767">
        <ele>267.1</ele>
        <time>2024-08-22T06:04:31Z</time>
      </trkpt>
      <trkpt lat="44.38319" lon="1.47667">
        <ele>267.4</ele>
        <time>2024-08-22T06:04:36Z</time>
      </trkpt>
      <trkpt lat="44.38323" lon="1.47665">
        <ele>267.2</ele>
        <time>2024-08-22T06:04:41Z</time>
      </trkpt>
      <trkpt lat="44.38328" lon="1.47665">
        <ele>266.6</ele>
        <time>2024-08-22T06:04:46Z</time>
      </trkpt>
      <trkpt lat="44.38333" lon="1.47664">
        <ele>266.1</ele>
        <time>2024-08-22T06:04:50Z</time>
      </trkpt>
      <trkpt lat="44.38338" lon="1.47662">
        <ele>265.9</ele>
        <time>2024-08-22T06:04:54Z</time>
      </trkpt>
      <trkpt lat="44.38343" lon="1.4766">
        <ele>265.4</ele>
        <time>2024-08-22T06:04:59Z</time>
      </trkpt>
      <trkpt lat="44.38348" lon="1.47659">
        <ele>264.8</ele>
        <time>2024-08-22T06:05:03Z</time>
      </trkpt>
      <trkpt lat="44.38353" lon="1.47659">
        <ele>264</ele>
        <time>2024-08-22T06:05:08Z</time>
      </trkpt>
      <trkpt lat="44.38357" lon="1.47656">
        <ele>263.8</ele>
        <time>2024-08-22T06:05:12Z</time>
      </trkpt>
      <trkpt lat="44.38362" lon="1.47654">
        <ele>263.9</ele>
        <time>2024-08-22T06:05:16Z</time>
      </trkpt>
      <trkpt lat="44.38367" lon="1.47652">
        <ele>264.5</ele>
        <time>2024-08-22T06:05:19Z</time>
      </trkpt>
      <trkpt lat="44.38372" lon="1.47652">
        <ele>264.7</ele>
        <time>2024-08-22T06:05:22Z</time>
      </trkpt>
      <trkpt lat="44.38376" lon="1.47651">
        <ele>264.7</ele>
        <time>2024-08-22T06:05:29Z</time>
      </trkpt>
      <trkpt lat="44.38381" lon="1.4765">
        <ele>264</ele>
        <time>2024-08-22T06:05:34Z</time>
      </trkpt>
      <trkpt lat="44.38385" lon="1.47648">
        <ele>263.6</ele>
        <time>2024-08-22T06:05:38Z</time>
      </trkpt>
      <trkpt lat="44.3839" lon="1.47647">
        <ele>263.4</ele>
        <time>2024-08-22T06:05:42Z</time>
      </trkpt>
      <trkpt lat="44.38396" lon="1.47645">
        <ele>263.6</ele>
        <time>2024-08-22T06:05:46Z</time>
      </trkpt>
      <trkpt lat="44.38401" lon="1.47644">
        <ele>264.1</ele>
        <time>2024-08-22T06:05:50Z</time>
      </trkpt>
      <trkpt lat="44.38406" lon="1.47643">
        <ele>264.8</ele>
        <time>2024-08-22T06:05:55Z</time>
      </trkpt>
      <trkpt lat="44.38411" lon="1.47641">
        <ele>265.2</ele>
        <time>2024-08-22T06:06:00Z</time>
      </trkpt>
      <trkpt lat="44.38415" lon="1.47639">
        <ele>265.4</ele>
        <time>2024-08-22T06:06:05Z</time>
      </trkpt>
      <trkpt lat="44.3842" lon="1.47639">
        <ele>265.7</ele>
        <time>2024-08-22T06:06:10Z</time>
      </trkpt>
      <trkpt lat="44.38425" lon="1.47637">
        <ele>265.8</ele>
        <time>2024-08-22T06:06:15Z</time>
      </trkpt>
      <trkpt lat="44.3843" lon="1.47636">
        <ele>266.2</ele>
        <time>2024-08-22T06:06:20Z</time>
      </trkpt>
      <trkpt lat="44.38435" lon="1.47634">
        <ele>266.3</ele>
        <time>2024-08-22T06:06:25Z</time>
      </trkpt>
      <trkpt lat="44.3844" lon="1.47633">
        <ele>266.4</ele>
        <time>2024-08-22T06:06:29Z</time>
      </trkpt>
      <trkpt lat="44.38444" lon="1.47632">
        <ele>267</ele>
        <time>2024-08-22T06:06:33Z</time>
      </trkpt>
      <trkpt lat="44.38449" lon="1.47631">
        <ele>267.5</ele>
        <time>2024-08-22T06:06:38Z</time>
      </trkpt>
      <trkpt lat="44.38454" lon="1.47629">
        <ele>267.4</ele>
        <time>2024-08-22T06:06:43Z</time>
      </trkpt>
      <trkpt lat="44.3846" lon="1.47627">
        <ele>266.5</ele>
        <time>2024-08-22T06:06:48Z</time>
      </trkpt>
      <trkpt lat="44.38464" lon="1.47626">
        <ele>266.2</ele>
        <time>2024-08-22T06:06:52Z</time>
      </trkpt>
      <trkpt lat="44.3847" lon="1.47625">
        <ele>266.3</ele>
        <time>2024-08-22T06:06:57Z</time>
      </trkpt>
      <trkpt lat="44.38475" lon="1.47622">
        <ele>266.8</ele>
        <time>2024-08-22T06:07:02Z</time>
      </trkpt>
      <trkpt lat="44.3848" lon="1.47619">
        <ele>267.1</ele>
        <time>2024-08-22T06:07:08Z</time>
      </trkpt>
      <trkpt lat="44.38484" lon="1.47616">
        <ele>267.3</ele>
        <time>2024-08-22T06:07:12Z</time>
      </trkpt>
      <trkpt lat="44.38489" lon="1.47614">
        <ele>267.8</ele>
        <time>2024-08-22T06:07:16Z</time>
      </trkpt>
      <trkpt lat="44.38493" lon="1.47612">
        <ele>268.3</ele>
        <time>2024-08-22T06:07:21Z</time>
      </trkpt>
      <trkpt lat="44.38491" lon="1.47605">
        <ele>268.1</ele>
        <time>2024-08-22T06:07:29Z</time>
      </trkpt>
      <trkpt lat="44.38488" lon="1.47599">
        <ele>267.6</ele>
        <time>2024-08-22T06:07:35Z</time>
      </trkpt>
      <trkpt lat="44.38484" lon="1.47594">
        <ele>267.4</ele>
        <time>2024-08-22T06:07:42Z</time>
      </trkpt>
      <trkpt lat="44.3848" lon="1.47591">
        <ele>267</ele>
        <time>2024-08-22T06:07:48Z</time>
      </trkpt>
      <trkpt lat="44.38476" lon="1.47587">
        <ele>266.6</ele>
        <time>2024-08-22T06:07:53Z</time>
      </trkpt>
      <trkpt lat="44.38472" lon="1.47583">
        <ele>265.9</ele>
        <time>2024-08-22T06:07:58Z</time>
      </trkpt>
      <trkpt lat="44.38468" lon="1.47579">
        <ele>265.5</ele>
        <time>2024-08-22T06:08:04Z</time>
      </trkpt>
      <trkpt lat="44.38464" lon="1.47576">
        <ele>265.3</ele>
        <time>2024-08-22T06:08:11Z</time>
      </trkpt>
      <trkpt lat="44.3846" lon="1.47573">
        <ele>264.8</ele>
        <time>2024-08-22T06:08:16Z</time>
      </trkpt>
      <trkpt lat="44.38455" lon="1.4757">
        <ele>264</ele>
        <time>2024-08-22T06:08:21Z</time>
      </trkpt>
      <trkpt lat="44.3845" lon="1.47568">
        <ele>263.6</ele>
        <time>2024-08-22T06:08:26Z</time>
      </trkpt>
      <trkpt lat="44.38445" lon="1.47565">
        <ele>263.3</ele>
        <time>2024-08-22T06:08:32Z</time>
      </trkpt>
      <trkpt lat="44.38441" lon="1.47561">
        <ele>263.1</ele>
        <time>2024-08-22T06:08:38Z</time>
      </trkpt>
      <trkpt lat="44.38436" lon="1.47558">
        <ele>263.3</ele>
        <time>2024-08-22T06:08:42Z</time>
      </trkpt>
      <trkpt lat="44.38432" lon="1.47554">
        <ele>263.2</ele>
        <time>2024-08-22T06:08:48Z</time>
      </trkpt>
      <trkpt lat="44.38428" lon="1.47551">
        <ele>262.7</ele>
        <time>2024-08-22T06:08:54Z</time>
      </trkpt>
      <trkpt lat="44.38423" lon="1.47549">
        <ele>262.1</ele>
        <time>2024-08-22T06:09:00Z</time>
      </trkpt>
      <trkpt lat="44.3842" lon="1.47545">
        <ele>261.2</ele>
        <time>2024-08-22T06:09:05Z</time>
      </trkpt>
      <trkpt lat="44.38415" lon="1.47541">
        <ele>259.2</ele>
        <time>2024-08-22T06:09:12Z</time>
      </trkpt>
      <trkpt lat="44.38412" lon="1.47535">
        <ele>258.1</ele>
        <time>2024-08-22T06:09:17Z</time>
      </trkpt>
      <trkpt lat="44.38409" lon="1.47529">
        <ele>257.3</ele>
        <time>2024-08-22T06:09:22Z</time>
      </trkpt>
      <trkpt lat="44.38406" lon="1.47524">
        <ele>256.7</ele>
        <time>2024-08-22T06:09:27Z</time>
      </trkpt>
      <trkpt lat="44.38403" lon="1.47518">
        <ele>256.3</ele>
        <time>2024-08-22T06:09:32Z</time>
      </trkpt>
      <trkpt lat="44.384" lon="1.47513">
        <ele>255.5</ele>
        <time>2024-08-22T06:09:37Z</time>
      </trkpt>
      <trkpt lat="44.38397" lon="1.47507">
        <ele>254.7</ele>
        <time>2024-08-22T06:09:42Z</time>
      </trkpt>
      <trkpt lat="44.38395" lon="1.475">
        <ele>253.8</ele>
        <time>2024-08-22T06:09:54Z</time>
      </trkpt>
      <trkpt lat="44.38394" lon="1.47494">
        <ele>253.8</ele>
        <time>2024-08-22T06:10:00Z</time>
      </trkpt>
      <trkpt lat="44.38394" lon="1.47487">
        <ele>254.7</ele>
        <time>2024-08-22T06:10:05Z</time>
      </trkpt>
      <trkpt lat="44.38392" lon="1.4748">
        <ele>255.4</ele>
        <time>2024-08-22T06:10:11Z</time>
      </trkpt>
      <trkpt lat="44.38388" lon="1.47475">
        <ele>255.2</ele>
        <time>2024-08-22T06:10:17Z</time>
      </trkpt>
      <trkpt lat="44.38385" lon="1.4747">
        <ele>254.6</ele>
        <time>2024-08-22T06:10:23Z</time>
      </trkpt>
      <trkpt lat="44.38382" lon="1.47465">
        <ele>254.6</ele>
        <time>2024-08-22T06:10:30Z</time>
      </trkpt>
      <trkpt lat="44.38377" lon="1.47461">
        <ele>254.2</ele>
        <time>2024-08-22T06:10:36Z</time>
      </trkpt>
      <trkpt lat="44.38373" lon="1.47459">
        <ele>253.3</ele>
        <time>2024-08-22T06:10:42Z</time>
      </trkpt>
      <trkpt lat="44.38367" lon="1.47458">
        <ele>252.4</ele>
        <time>2024-08-22T06:10:47Z</time>
      </trkpt>
      <trkpt lat="44.38362" lon="1.47457">
        <ele>251.3</ele>
        <time>2024-08-22T06:10:52Z</time>
      </trkpt>
      <trkpt lat="44.38357" lon="1.47456">
        <ele>250.6</ele>
        <time>2024-08-22T06:10:56Z</time>
      </trkpt>
      <trkpt lat="44.38352" lon="1.47455">
        <ele>249.9</ele>
        <time>2024-08-22T06:11:01Z</time>
      </trkpt>
      <trkpt lat="44.38347" lon="1.47454">
        <ele>249.2</ele>
        <time>2024-08-22T06:11:07Z</time>
      </trkpt>
      <trkpt lat="44.38342" lon="1.47452">
        <ele>248.8</ele>
        <time>2024-08-22T06:11:12Z</time>
      </trkpt>
      <trkpt lat="44.38337" lon="1.47449">
        <ele>247.9</ele>
        <time>2024-08-22T06:11:17Z</time>
      </trkpt>
      <trkpt lat="44.38332" lon="1.47447">
        <ele>247.1</ele>
        <time>2024-08-22T06:11:21Z</time>
      </trkpt>
      <trkpt lat="44.38328" lon="1.47444">
        <ele>246.6</ele>
        <time>2024-08-22T06:11:25Z</time>
      </trkpt>
      <trkpt lat="44.38323" lon="1.4744">
        <ele>246.2</ele>
        <time>2024-08-22T06:11:29Z</time>
      </trkpt>
      <trkpt lat="44.38318" lon="1.47437">
        <ele>246.5</ele>
        <time>2024-08-22T06:11:33Z</time>
      </trkpt>
      <trkpt lat="44.38315" lon="1.47433">
        <ele>247.6</ele>
        <time>2024-08-22T06:11:37Z</time>
      </trkpt>
      <trkpt lat="44.3831" lon="1.47431">
        <ele>248.1</ele>
        <time>2024-08-22T06:11:42Z</time>
      </trkpt>
      <trkpt lat="44.38306" lon="1.47428">
        <ele>247.6</ele>
        <time>2024-08-22T06:11:47Z</time>
      </trkpt>
      <trkpt lat="44.38303" lon="1.47423">
        <ele>246.9</ele>
        <time>2024-08-22T06:11:53Z</time>
      </trkpt>
      <trkpt lat="44.38299" lon="1.4742">
        <ele>246.5</ele>
        <time>2024-08-22T06:12:00Z</time>
      </trkpt>
      <trkpt lat="44.38295" lon="1.47416">
        <ele>245.5</ele>
        <time>2024-08-22T06:12:05Z</time>
      </trkpt>
      <trkpt lat="44.3829" lon="1.47413">
        <ele>244.4</ele>
        <time>2024-08-22T06:12:10Z</time>
      </trkpt>
      <trkpt lat="44.38285" lon="1.47411">
        <ele>244</ele>
        <time>2024-08-22T06:12:15Z</time>
      </trkpt>
      <trkpt lat="44.38281" lon="1.47408">
        <ele>244.4</ele>
        <time>2024-08-22T06:12:21Z</time>
      </trkpt>
      <trkpt lat="44.38277" lon="1.47404">
        <ele>244.4</ele>
        <time>2024-08-22T06:12:25Z</time>
      </trkpt>
      <trkpt lat="44.38273" lon="1.474">
        <ele>244.1</ele>
        <time>2024-08-22T06:12:29Z</time>
      </trkpt>
      <trkpt lat="44.38269" lon="1.47396">
        <ele>244.3</ele>
        <time>2024-08-22T06:12:34Z</time>
      </trkpt>
      <trkpt lat="44.38265" lon="1.47392">
        <ele>244.8</ele>
        <time>2024-08-22T06:12:38Z</time>
      </trkpt>
      <trkpt lat="44.38262" lon="1.47386">
        <ele>245.6</ele>
        <time>2024-08-22T06:12:43Z</time>
      </trkpt>
      <trkpt lat="44.38262" lon="1.47378">
        <ele>246.7</ele>
        <time>2024-08-22T06:12:48Z</time>
      </trkpt>
      <trkpt lat="44.38263" lon="1.47372">
        <ele>247.5</ele>
        <time>2024-08-22T06:12:52Z</time>
      </trkpt>
      <trkpt lat="44.38266" lon="1.47367">
        <ele>248.6</ele>
        <time>2024-08-22T06:12:57Z</time>
      </trkpt>
      <trkpt lat="44.38269" lon="1.47361">
        <ele>249.1</ele>
        <time>2024-08-22T06:13:02Z</time>
      </trkpt>
      <trkpt lat="44.38272" lon="1.47355">
        <ele>249.5</ele>
        <time>2024-08-22T06:13:06Z</time>
      </trkpt>
      <trkpt lat="44.38275" lon="1.47349">
        <ele>249.6</ele>
        <time>2024-08-22T06:13:10Z</time>
      </trkpt>
      <trkpt lat="44.38276" lon="1.47343">
        <ele>249.7</ele>
        <time>2024-08-22T06:13:15Z</time>
      </trkpt>
      <trkpt lat="44.38279" lon="1.47337">
        <ele>248.9</ele>
        <time>2024-08-22T06:13:21Z</time>
      </trkpt>
      <trkpt lat="44.3828" lon="1.4733">
        <ele>248.3</ele>
        <time>2024-08-22T06:13:26Z</time>
      </trkpt>
      <trkpt lat="44.38282" lon="1.47324">
        <ele>248.1</ele>
        <time>2024-08-22T06:13:30Z</time>
      </trkpt>
      <trkpt lat="44.38284" lon="1.47318">
        <ele>248.7</ele>
        <time>2024-08-22T06:13:34Z</time>
      </trkpt>
      <trkpt lat="44.38287" lon="1.47312">
        <ele>249.7</ele>
        <time>2024-08-22T06:13:39Z</time>
      </trkpt>
      <trkpt lat="44.3829" lon="1.47306">
        <ele>249.9</ele>
        <time>2024-08-22T06:13:44Z</time>
      </trkpt>
      <trkpt lat="44.38292" lon="1.473">
        <ele>249.4</ele>
        <time>2024-08-22T06:13:48Z</time>
      </trkpt>
      <trkpt lat="44.38294" lon="1.47294">
        <ele>249.1</ele>
        <time>2024-08-22T06:13:52Z</time>
      </trkpt>
      <trkpt lat="44.38296" lon="1.47287">
        <ele>248.9</ele>
        <time>2024-08-22T06:13:57Z</time>
      </trkpt>
      <trkpt lat="44.38298" lon="1.47281">
        <ele>248.8</ele>
        <time>2024-08-22T06:14:02Z</time>
      </trkpt>
      <trkpt lat="44.38299" lon="1.47274">
        <ele>248.2</ele>
        <time>2024-08-22T06:14:08Z</time>
      </trkpt>
      <trkpt lat="44.38301" lon="1.47267">
        <ele>248</ele>
        <time>2024-08-22T06:14:13Z</time>
      </trkpt>
      <trkpt lat="44.38303" lon="1.47262">
        <ele>248.2</ele>
        <time>2024-08-22T06:14:17Z</time>
      </trkpt>
      <trkpt lat="44.38306" lon="1.47256">
        <ele>248.3</ele>
        <time>2024-08-22T06:14:22Z</time>
      </trkpt>
      <trkpt lat="44.38309" lon="1.47249">
        <ele>248</ele>
        <time>2024-08-22T06:14:26Z</time>
      </trkpt>
      <trkpt lat="44.3831" lon="1.47242">
        <ele>247.5</ele>
        <time>2024-08-22T06:14:31Z</time>
      </trkpt>
      <trkpt lat="44.38312" lon="1.47236">
        <ele>247.1</ele>
        <time>2024-08-22T06:14:35Z</time>
      </trkpt>
      <trkpt lat="44.38314" lon="1.4723">
        <ele>246.8</ele>
        <time>2024-08-22T06:14:39Z</time>
      </trkpt>
      <trkpt lat="44.38316" lon="1.47223">
        <ele>246.7</ele>
        <time>2024-08-22T06:14:43Z</time>
      </trkpt>
      <trkpt lat="44.38319" lon="1.47216">
        <ele>246.8</ele>
        <time>2024-08-22T06:14:48Z</time>
      </trkpt>
      <trkpt lat="44.38321" lon="1.4721">
        <ele>246.9</ele>
        <time>2024-08-22T06:14:52Z</time>
      </trkpt>
      <trkpt lat="44.38322" lon="1.47204">
        <ele>246.5</ele>
        <time>2024-08-22T06:14:57Z</time>
      </trkpt>
      <trkpt lat="44.38325" lon="1.47199">
        <ele>245.5</ele>
        <time>2024-08-22T06:15:02Z</time>
      </trkpt>
      <trkpt lat="44.38328" lon="1.47194">
        <ele>244.3</ele>
        <time>2024-08-22T06:15:07Z</time>
      </trkpt>
      <trkpt lat="44.3833" lon="1.47188">
        <ele>243.4</ele>
        <time>2024-08-22T06:15:12Z</time>
      </trkpt>
      <trkpt lat="44.38333" lon="1.47181">
        <ele>243.1</ele>
        <time>2024-08-22T06:15:17Z</time>
      </trkpt>
      <trkpt lat="44.38334" lon="1.47175">
        <ele>242.8</ele>
        <time>2024-08-22T06:15:22Z</time>
      </trkpt>
      <trkpt lat="44.38334" lon="1.47167">
        <ele>242.9</ele>
        <time>2024-08-22T06:15:27Z</time>
      </trkpt>
      <trkpt lat="44.38336" lon="1.47161">
        <ele>242.8</ele>
        <time>2024-08-22T06:15:33Z</time>
      </trkpt>
      <trkpt lat="44.38335" lon="1.47154">
        <ele>242.8</ele>
        <time>2024-08-22T06:15:41Z</time>
      </trkpt>
      <trkpt lat="44.38333" lon="1.47144">
        <ele>243.5</ele>
        <time>2024-08-22T06:15:51Z</time>
      </trkpt>
      <trkpt lat="44.38333" lon="1.47135">
        <ele>244</ele>
        <time>2024-08-22T06:15:54Z</time>
      </trkpt>
      <trkpt lat="44.38333" lon="1.47127">
        <ele>244.9</ele>
        <time>2024-08-22T06:15:58Z</time>
      </trkpt>
      <trkpt lat="44.38334" lon="1.4712">
        <ele>245.6</ele>
        <time>2024-08-22T06:16:03Z</time>
      </trkpt>
      <trkpt lat="44.38336" lon="1.47115">
        <ele>245.8</ele>
        <time>2024-08-22T06:16:07Z</time>
      </trkpt>
      <trkpt lat="44.38338" lon="1.4711">
        <ele>245.8</ele>
        <time>2024-08-22T06:16:12Z</time>
      </trkpt>
      <trkpt lat="44.38341" lon="1.47103">
        <ele>245.7</ele>
        <time>2024-08-22T06:16:17Z</time>
      </trkpt>
      <trkpt lat="44.38344" lon="1.47097">
        <ele>245.8</ele>
        <time>2024-08-22T06:16:21Z</time>
      </trkpt>
      <trkpt lat="44.38348" lon="1.47093">
        <ele>246.4</ele>
        <time>2024-08-22T06:16:25Z</time>
      </trkpt>
      <trkpt lat="44.38353" lon="1.4709">
        <ele>247.4</ele>
        <time>2024-08-22T06:16:29Z</time>
      </trkpt>
      <trkpt lat="44.38356" lon="1.47084">
        <ele>248.5</ele>
        <time>2024-08-22T06:16:33Z</time>
      </trkpt>
      <trkpt lat="44.38357" lon="1.47078">
        <ele>250</ele>
        <time>2024-08-22T06:16:39Z</time>
      </trkpt>
      <trkpt lat="44.38353" lon="1.47073">
        <ele>250.6</ele>
        <time>2024-08-22T06:16:47Z</time>
      </trkpt>
      <trkpt lat="44.38349" lon="1.47071">
        <ele>250.3</ele>
        <time>2024-08-22T06:16:52Z</time>
      </trkpt>
      <trkpt lat="44.38345" lon="1.47066">
        <ele>249.7</ele>
        <time>2024-08-22T06:16:58Z</time>
      </trkpt>
      <trkpt lat="44.3834" lon="1.47062">
        <ele>249.8</ele>
        <time>2024-08-22T06:17:04Z</time>
      </trkpt>
      <trkpt lat="44.38338" lon="1.47057">
        <ele>250.1</ele>
        <time>2024-08-22T06:17:09Z</time>
      </trkpt>
      <trkpt lat="44.38337" lon="1.4705">
        <ele>250.4</ele>
        <time>2024-08-22T06:17:15Z</time>
      </trkpt>
      <trkpt lat="44.38338" lon="1.47044">
        <ele>250.5</ele>
        <time>2024-08-22T06:17:19Z</time>
      </trkpt>
      <trkpt lat="44.38341" lon="1.47037">
        <ele>250.5</ele>
        <time>2024-08-22T06:17:23Z</time>
      </trkpt>
      <trkpt lat="44.38342" lon="1.47031">
        <ele>250.5</ele>
        <time>2024-08-22T06:17:28Z</time>
      </trkpt>
      <trkpt lat="44.38342" lon="1.47025">
        <ele>251.6</ele>
        <time>2024-08-22T06:17:34Z</time>
      </trkpt>
      <trkpt lat="44.38342" lon="1.47017">
        <ele>253.3</ele>
        <time>2024-08-22T06:17:39Z</time>
      </trkpt>
      <trkpt lat="44.38341" lon="1.47011">
        <ele>255.2</ele>
        <time>2024-08-22T06:17:44Z</time>
      </trkpt>
      <trkpt lat="44.38341" lon="1.47004">
        <ele>257.3</ele>
        <time>2024-08-22T06:17:50Z</time>
      </trkpt>
      <trkpt lat="44.3834" lon="1.46997">
        <ele>259.1</ele>
        <time>2024-08-22T06:17:59Z</time>
      </trkpt>
      <trkpt lat="44.38338" lon="1.46992">
        <ele>259.9</ele>
        <time>2024-08-22T06:18:04Z</time>
      </trkpt>
      <trkpt lat="44.38335" lon="1.46986">
        <ele>260.4</ele>
        <time>2024-08-22T06:18:09Z</time>
      </trkpt>
      <trkpt lat="44.38334" lon="1.46979">
        <ele>260.6</ele>
        <time>2024-08-22T06:18:14Z</time>
      </trkpt>
      <trkpt lat="44.38332" lon="1.46972">
        <ele>260.5</ele>
        <time>2024-08-22T06:18:19Z</time>
      </trkpt>
      <trkpt lat="44.38331" lon="1.46965">
        <ele>260.5</ele>
        <time>2024-08-22T06:18:23Z</time>
      </trkpt>
      <trkpt lat="44.3833" lon="1.46959">
        <ele>260.6</ele>
        <time>2024-08-22T06:18:27Z</time>
      </trkpt>
      <trkpt lat="44.38329" lon="1.46953">
        <ele>260.1</ele>
        <time>2024-08-22T06:18:33Z</time>
      </trkpt>
      <trkpt lat="44.38328" lon="1.46946">
        <ele>258.9</ele>
        <time>2024-08-22T06:18:39Z</time>
      </trkpt>
      <trkpt lat="44.38326" lon="1.4694">
        <ele>258</ele>
        <time>2024-08-22T06:18:44Z</time>
      </trkpt>
      <trkpt lat="44.38325" lon="1.46933">
        <ele>257.4</ele>
        <time>2024-08-22T06:18:49Z</time>
      </trkpt>
      <trkpt lat="44.38323" lon="1.46926">
        <ele>257.2</ele>
        <time>2024-08-22T06:18:54Z</time>
      </trkpt>
      <trkpt lat="44.38322" lon="1.46919">
        <ele>257.2</ele>
        <time>2024-08-22T06:18:59Z</time>
      </trkpt>
      <trkpt lat="44.38321" lon="1.46912">
        <ele>257.5</ele>
        <time>2024-08-22T06:19:03Z</time>
      </trkpt>
      <trkpt lat="44.3832" lon="1.46905">
        <ele>258.3</ele>
        <time>2024-08-22T06:19:08Z</time>
      </trkpt>
      <trkpt lat="44.38318" lon="1.46899">
        <ele>258.6</ele>
        <time>2024-08-22T06:19:14Z</time>
      </trkpt>
      <trkpt lat="44.38317" lon="1.46892">
        <ele>258.2</ele>
        <time>2024-08-22T06:19:19Z</time>
      </trkpt>
      <trkpt lat="44.38315" lon="1.46886">
        <ele>257.6</ele>
        <time>2024-08-22T06:19:23Z</time>
      </trkpt>
      <trkpt lat="44.38314" lon="1.4688">
        <ele>257.2</ele>
        <time>2024-08-22T06:19:27Z</time>
      </trkpt>
      <trkpt lat="44.38312" lon="1.46872">
        <ele>256.7</ele>
        <time>2024-08-22T06:19:32Z</time>
      </trkpt>
      <trkpt lat="44.3831" lon="1.46867">
        <ele>256.6</ele>
        <time>2024-08-22T06:19:37Z</time>
      </trkpt>
      <trkpt lat="44.38307" lon="1.46861">
        <ele>256.2</ele>
        <time>2024-08-22T06:19:42Z</time>
      </trkpt>
      <trkpt lat="44.38303" lon="1.46857">
        <ele>256.1</ele>
        <time>2024-08-22T06:19:47Z</time>
      </trkpt>
      <trkpt lat="44.38299" lon="1.46853">
        <ele>256.8</ele>
        <time>2024-08-22T06:19:52Z</time>
      </trkpt>
      <trkpt lat="44.38295" lon="1.4685">
        <ele>258.2</ele>
        <time>2024-08-22T06:19:57Z</time>
      </trkpt>
      <trkpt lat="44.38291" lon="1.46846">
        <ele>259.9</ele>
        <time>2024-08-22T06:20:02Z</time>
      </trkpt>
      <trkpt lat="44.38291" lon="1.4684">
        <ele>261.9</ele>
        <time>2024-08-22T06:20:08Z</time>
      </trkpt>
      <trkpt lat="44.38292" lon="1.46833">
        <ele>263.7</ele>
        <time>2024-08-22T06:20:14Z</time>
      </trkpt>
      <trkpt lat="44.38295" lon="1.46828">
        <ele>264.6</ele>
        <time>2024-08-22T06:20:18Z</time>
      </trkpt>
      <trkpt lat="44.38299" lon="1.46823">
        <ele>265</ele>
        <time>2024-08-22T06:20:22Z</time>
      </trkpt>
      <trkpt lat="44.38302" lon="1.46818">
        <ele>265.4</ele>
        <time>2024-08-22T06:20:26Z</time>
      </trkpt>
      <trkpt lat="44.38305" lon="1.46812">
        <ele>265.8</ele>
        <time>2024-08-22T06:20:31Z</time>
      </trkpt>
      <trkpt lat="44.38308" lon="1.46806">
        <ele>266.1</ele>
        <time>2024-08-22T06:20:37Z</time>
      </trkpt>
      <trkpt lat="44.38311" lon="1.468">
        <ele>266.9</ele>
        <time>2024-08-22T06:20:42Z</time>
      </trkpt>
      <trkpt lat="44.38308" lon="1.46795">
        <ele>267.2</ele>
        <time>2024-08-22T06:20:54Z</time>
      </trkpt>
      <trkpt lat="44.38312" lon="1.46792">
        <ele>268.4</ele>
        <time>2024-08-22T06:21:38Z</time>
      </trkpt>
      <trkpt lat="44.38317" lon="1.46793">
        <ele>268.2</ele>
        <time>2024-08-22T06:21:49Z</time>
      </trkpt>
      <trkpt lat="44.3832" lon="1.46787">
        <ele>259.9</ele>
        <time>2024-08-22T06:25:47Z</time>
      </trkpt>
      <trkpt lat="44.38323" lon="1.46781">
        <ele>259.2</ele>
        <time>2024-08-22T06:25:53Z</time>
      </trkpt>
      <trkpt lat="44.38327" lon="1.46777">
        <ele>259.3</ele>
        <time>2024-08-22T06:25:58Z</time>
      </trkpt>
      <trkpt lat="44.38331" lon="1.46771">
        <ele>259.9</ele>
        <time>2024-08-22T06:26:03Z</time>
      </trkpt>
      <trkpt lat="44.38334" lon="1.46767">
        <ele>260.9</ele>
        <time>2024-08-22T06:26:07Z</time>
      </trkpt>
      <trkpt lat="44.38338" lon="1.46763">
        <ele>262.2</ele>
        <time>2024-08-22T06:26:12Z</time>
      </trkpt>
      <trkpt lat="44.38341" lon="1.46758">
        <ele>264</ele>
        <time>2024-08-22T06:26:18Z</time>
      </trkpt>
      <trkpt lat="44.38344" lon="1.46753">
        <ele>264.9</ele>
        <time>2024-08-22T06:26:23Z</time>
      </trkpt>
      <trkpt lat="44.38346" lon="1.46747">
        <ele>265.3</ele>
        <time>2024-08-22T06:26:29Z</time>
      </trkpt>
      <trkpt lat="44.38345" lon="1.4674">
        <ele>264.8</ele>
        <time>2024-08-22T06:26:35Z</time>
      </trkpt>
      <trkpt lat="44.38344" lon="1.46734">
        <ele>263.8</ele>
        <time>2024-08-22T06:26:40Z</time>
      </trkpt>
      <trkpt lat="44.38344" lon="1.46727">
        <ele>263.2</ele>
        <time>2024-08-22T06:26:44Z</time>
      </trkpt>
      <trkpt lat="44.38346" lon="1.46721">
        <ele>262.9</ele>
        <time>2024-08-22T06:26:48Z</time>
      </trkpt>
      <trkpt lat="44.38348" lon="1.46715">
        <ele>262.7</ele>
        <time>2024-08-22T06:26:53Z</time>
      </trkpt>
      <trkpt lat="44.38352" lon="1.46712">
        <ele>262.4</ele>
        <time>2024-08-22T06:26:57Z</time>
      </trkpt>
      <trkpt lat="44.38357" lon="1.4671">
        <ele>261.9</ele>
        <time>2024-08-22T06:27:01Z</time>
      </trkpt>
      <trkpt lat="44.38361" lon="1.46706">
        <ele>261.8</ele>
        <time>2024-08-22T06:27:05Z</time>
      </trkpt>
      <trkpt lat="44.38363" lon="1.467">
        <ele>261.6</ele>
        <time>2024-08-22T06:27:11Z</time>
      </trkpt>
      <trkpt lat="44.38364" lon="1.46693">
        <ele>261.6</ele>
        <time>2024-08-22T06:27:16Z</time>
      </trkpt>
      <trkpt lat="44.38366" lon="1.46687">
        <ele>262.1</ele>
        <time>2024-08-22T06:27:21Z</time>
      </trkpt>
      <trkpt lat="44.38368" lon="1.46681">
        <ele>262.1</ele>
        <time>2024-08-22T06:27:26Z</time>
      </trkpt>
      <trkpt lat="44.38371" lon="1.46674">
        <ele>262.1</ele>
        <time>2024-08-22T06:27:31Z</time>
      </trkpt>
      <trkpt lat="44.38374" lon="1.46669">
        <ele>261.9</ele>
        <time>2024-08-22T06:27:36Z</time>
      </trkpt>
      <trkpt lat="44.38377" lon="1.46665">
        <ele>261.3</ele>
        <time>2024-08-22T06:27:41Z</time>
      </trkpt>
      <trkpt lat="44.3838" lon="1.46658">
        <ele>260.8</ele>
        <time>2024-08-22T06:27:46Z</time>
      </trkpt>
      <trkpt lat="44.38383" lon="1.46652">
        <ele>260.7</ele>
        <time>2024-08-22T06:27:51Z</time>
      </trkpt>
      <trkpt lat="44.38381" lon="1.46645">
        <ele>260.7</ele>
        <time>2024-08-22T06:27:56Z</time>
      </trkpt>
      <trkpt lat="44.38386" lon="1.46643">
        <ele>260.5</ele>
        <time>2024-08-22T06:28:07Z</time>
      </trkpt>
      <trkpt lat="44.38391" lon="1.46642">
        <ele>260.4</ele>
        <time>2024-08-22T06:28:11Z</time>
      </trkpt>
      <trkpt lat="44.38387" lon="1.46644">
        <ele>261.7</ele>
        <time>2024-08-22T06:28:23Z</time>
      </trkpt>
      <trkpt lat="44.38383" lon="1.46648">
        <ele>261.8</ele>
        <time>2024-08-22T06:28:29Z</time>
      </trkpt>
      <trkpt lat="44.3838" lon="1.46654">
        <ele>261.3</ele>
        <time>2024-08-22T06:28:35Z</time>
      </trkpt>
      <trkpt lat="44.38378" lon="1.46661">
        <ele>260.8</ele>
        <time>2024-08-22T06:28:41Z</time>
      </trkpt>
      <trkpt lat="44.38377" lon="1.46668">
        <ele>260.4</ele>
        <time>2024-08-22T06:28:46Z</time>
      </trkpt>
      <trkpt lat="44.38375" lon="1.46673">
        <ele>260.2</ele>
        <time>2024-08-22T06:28:51Z</time>
      </trkpt>
      <trkpt lat="44.38371" lon="1.46678">
        <ele>259.8</ele>
        <time>2024-08-22T06:28:57Z</time>
      </trkpt>
      <trkpt lat="44.38368" lon="1.46684">
        <ele>259.3</ele>
        <time>2024-08-22T06:29:02Z</time>
      </trkpt>
      <trkpt lat="44.38365" lon="1.46689">
        <ele>259.1</ele>
        <time>2024-08-22T06:29:07Z</time>
      </trkpt>
      <trkpt lat="44.38365" lon="1.46696">
        <ele>258.7</ele>
        <time>2024-08-22T06:29:15Z</time>
      </trkpt>
      <trkpt lat="44.3837" lon="1.46695">
        <ele>259</ele>
        <time>2024-08-22T06:29:21Z</time>
      </trkpt>
      <trkpt lat="44.38374" lon="1.4669">
        <ele>259.7</ele>
        <time>2024-08-22T06:29:26Z</time>
      </trkpt>
      <trkpt lat="44.38377" lon="1.46685">
        <ele>260.3</ele>
        <time>2024-08-22T06:29:30Z</time>
      </trkpt>
      <trkpt lat="44.3838" lon="1.4668">
        <ele>260.6</ele>
        <time>2024-08-22T06:29:34Z</time>
      </trkpt>
      <trkpt lat="44.38383" lon="1.46675">
        <ele>260.8</ele>
        <time>2024-08-22T06:29:39Z</time>
      </trkpt>
      <trkpt lat="44.38386" lon="1.4667">
        <ele>261</ele>
        <time>2024-08-22T06:29:45Z</time>
      </trkpt>
      <trkpt lat="44.38389" lon="1.46665">
        <ele>260.7</ele>
        <time>2024-08-22T06:29:50Z</time>
      </trkpt>
      <trkpt lat="44.38392" lon="1.46659">
        <ele>260.2</ele>
        <time>2024-08-22T06:29:54Z</time>
      </trkpt>
      <trkpt lat="44.38395" lon="1.46654">
        <ele>259.8</ele>
        <time>2024-08-22T06:29:58Z</time>
      </trkpt>
      <trkpt lat="44.38398" lon="1.46649">
        <ele>259.9</ele>
        <time>2024-08-22T06:30:02Z</time>
      </trkpt>
      <trkpt lat="44.38401" lon="1.46644">
        <ele>260.4</ele>
        <time>2024-08-22T06:30:07Z</time>
      </trkpt>
      <trkpt lat="44.38404" lon="1.46639">
        <ele>261.3</ele>
        <time>2024-08-22T06:30:12Z</time>
      </trkpt>
      <trkpt lat="44.38408" lon="1.46633">
        <ele>262</ele>
        <time>2024-08-22T06:30:17Z</time>
      </trkpt>
      <trkpt lat="44.3841" lon="1.46627">
        <ele>262.7</ele>
        <time>2024-08-22T06:30:22Z</time>
      </trkpt>
      <trkpt lat="44.38413" lon="1.46621">
        <ele>262.5</ele>
        <time>2024-08-22T06:30:27Z</time>
      </trkpt>
      <trkpt lat="44.38417" lon="1.46616">
        <ele>261.6</ele>
        <time>2024-08-22T06:30:32Z</time>
      </trkpt>
      <trkpt lat="44.38419" lon="1.46609">
        <ele>260.7</ele>
        <time>2024-08-22T06:30:37Z</time>
      </trkpt>
      <trkpt lat="44.38423" lon="1.46604">
        <ele>260.3</ele>
        <time>2024-08-22T06:30:42Z</time>
      </trkpt>
      <trkpt lat="44.38427" lon="1.46599">
        <ele>260.3</ele>
        <time>2024-08-22T06:30:47Z</time>
      </trkpt>
      <trkpt lat="44.3843" lon="1.46593">
        <ele>260.5</ele>
        <time>2024-08-22T06:30:52Z</time>
      </trkpt>
      <trkpt lat="44.38431" lon="1.46587">
        <ele>260.3</ele>
        <time>2024-08-22T06:30:56Z</time>
      </trkpt>
      <trkpt lat="44.38433" lon="1.4658">
        <ele>260.2</ele>
        <time>2024-08-22T06:31:01Z</time>
      </trkpt>
      <trkpt lat="44.38435" lon="1.46574">
        <ele>259.7</ele>
        <time>2024-08-22T06:31:05Z</time>
      </trkpt>
      <trkpt lat="44.38436" lon="1.46568">
        <ele>259.6</ele>
        <time>2024-08-22T06:31:09Z</time>
      </trkpt>
      <trkpt lat="44.38438" lon="1.46561">
        <ele>258.7</ele>
        <time>2024-08-22T06:31:16Z</time>
      </trkpt>
      <trkpt lat="44.38441" lon="1.46556">
        <ele>257.5</ele>
        <time>2024-08-22T06:31:21Z</time>
      </trkpt>
      <trkpt lat="44.38444" lon="1.4655">
        <ele>256.3</ele>
        <time>2024-08-22T06:31:26Z</time>
      </trkpt>
      <trkpt lat="44.38447" lon="1.46545">
        <ele>255.5</ele>
        <time>2024-08-22T06:31:30Z</time>
      </trkpt>
      <trkpt lat="44.3845" lon="1.46539">
        <ele>254.9</ele>
        <time>2024-08-22T06:31:35Z</time>
      </trkpt>
      <trkpt lat="44.38454" lon="1.46533">
        <ele>254.7</ele>
        <time>2024-08-22T06:31:40Z</time>
      </trkpt>
      <trkpt lat="44.38457" lon="1.46528">
        <ele>254.8</ele>
        <time>2024-08-22T06:31:45Z</time>
      </trkpt>
      <trkpt lat="44.38461" lon="1.46523">
        <ele>255.1</ele>
        <time>2024-08-22T06:31:50Z</time>
      </trkpt>
      <trkpt lat="44.38466" lon="1.46521">
        <ele>254.9</ele>
        <time>2024-08-22T06:31:55Z</time>
      </trkpt>
      <trkpt lat="44.3847" lon="1.46518">
        <ele>254.7</ele>
        <time>2024-08-22T06:31:59Z</time>
      </trkpt>
      <trkpt lat="44.38475" lon="1.46515">
        <ele>254.6</ele>
        <time>2024-08-22T06:32:04Z</time>
      </trkpt>
      <trkpt lat="44.38479" lon="1.46512">
        <ele>254.9</ele>
        <time>2024-08-22T06:32:10Z</time>
      </trkpt>
      <trkpt lat="44.38476" lon="1.46518">
        <ele>255.9</ele>
        <time>2024-08-22T06:32:23Z</time>
      </trkpt>
      <trkpt lat="44.3848" lon="1.46514">
        <ele>256.5</ele>
        <time>2024-08-22T06:33:10Z</time>
      </trkpt>
      <trkpt lat="44.38484" lon="1.46511">
        <ele>258</ele>
        <time>2024-08-22T06:33:27Z</time>
      </trkpt>
      <trkpt lat="44.38488" lon="1.46507">
        <ele>259.1</ele>
        <time>2024-08-22T06:33:33Z</time>
      </trkpt>
      <trkpt lat="44.38493" lon="1.46505">
        <ele>259.4</ele>
        <time>2024-08-22T06:33:39Z</time>
      </trkpt>
      <trkpt lat="44.38498" lon="1.46502">
        <ele>259.2</ele>
        <time>2024-08-22T06:33:45Z</time>
      </trkpt>
      <trkpt lat="44.38502" lon="1.46499">
        <ele>258.8</ele>
        <time>2024-08-22T06:33:51Z</time>
      </trkpt>
      <trkpt lat="44.38506" lon="1.46494">
        <ele>258.3</ele>
        <time>2024-08-22T06:33:57Z</time>
      </trkpt>
      <trkpt lat="44.3851" lon="1.4649">
        <ele>257.2</ele>
        <time>2024-08-22T06:34:03Z</time>
      </trkpt>
      <trkpt lat="44.38514" lon="1.46485">
        <ele>255.9</ele>
        <time>2024-08-22T06:34:09Z</time>
      </trkpt>
      <trkpt lat="44.38518" lon="1.46481">
        <ele>255.2</ele>
        <time>2024-08-22T06:34:14Z</time>
      </trkpt>
      <trkpt lat="44.38522" lon="1.46478">
        <ele>254.6</ele>
        <time>2024-08-22T06:34:19Z</time>
      </trkpt>
      <trkpt lat="44.38526" lon="1.46473">
        <ele>254.5</ele>
        <time>2024-08-22T06:34:24Z</time>
      </trkpt>
      <trkpt lat="44.3853" lon="1.4647">
        <ele>254.7</ele>
        <time>2024-08-22T06:34:28Z</time>
      </trkpt>
      <trkpt lat="44.38534" lon="1.46465">
        <ele>254.6</ele>
        <time>2024-08-22T06:34:34Z</time>
      </trkpt>
      <trkpt lat="44.38538" lon="1.4646">
        <ele>253.7</ele>
        <time>2024-08-22T06:34:42Z</time>
      </trkpt>
      <trkpt lat="44.38541" lon="1.46455">
        <ele>252.2</ele>
        <time>2024-08-22T06:34:49Z</time>
      </trkpt>
      <trkpt lat="44.38545" lon="1.4645">
        <ele>251</ele>
        <time>2024-08-22T06:34:55Z</time>
      </trkpt>
      <trkpt lat="44.38549" lon="1.46446">
        <ele>250.8</ele>
        <time>2024-08-22T06:35:00Z</time>
      </trkpt>
      <trkpt lat="44.38554" lon="1.46442">
        <ele>251.1</ele>
        <time>2024-08-22T06:35:04Z</time>
      </trkpt>
      <trkpt lat="44.38558" lon="1.46439">
        <ele>251.4</ele>
        <time>2024-08-22T06:35:08Z</time>
      </trkpt>
      <trkpt lat="44.38562" lon="1.46435">
        <ele>251.7</ele>
        <time>2024-08-22T06:35:13Z</time>
      </trkpt>
      <trkpt lat="44.38566" lon="1.46431">
        <ele>251.7</ele>
        <time>2024-08-22T06:35:19Z</time>
      </trkpt>
      <trkpt lat="44.3857" lon="1.46426">
        <ele>251.7</ele>
        <time>2024-08-22T06:35:25Z</time>
      </trkpt>
      <trkpt lat="44.38574" lon="1.46422">
        <ele>250.6</ele>
        <time>2024-08-22T06:35:31Z</time>
      </trkpt>
      <trkpt lat="44.38577" lon="1.46417">
        <ele>249.2</ele>
        <time>2024-08-22T06:35:37Z</time>
      </trkpt>
      <trkpt lat="44.38581" lon="1.46412">
        <ele>248.2</ele>
        <time>2024-08-22T06:35:42Z</time>
      </trkpt>
      <trkpt lat="44.38584" lon="1.46408">
        <ele>246.8</ele>
        <time>2024-08-22T06:35:48Z</time>
      </trkpt>
      <trkpt lat="44.38588" lon="1.46403">
        <ele>245.6</ele>
        <time>2024-08-22T06:35:54Z</time>
      </trkpt>
      <trkpt lat="44.38591" lon="1.46398">
        <ele>244.5</ele>
        <time>2024-08-22T06:36:00Z</time>
      </trkpt>
      <trkpt lat="44.38596" lon="1.46394">
        <ele>243.5</ele>
        <time>2024-08-22T06:36:06Z</time>
      </trkpt>
      <trkpt lat="44.386" lon="1.4639">
        <ele>242.7</ele>
        <time>2024-08-22T06:36:10Z</time>
      </trkpt>
      <trkpt lat="44.38604" lon="1.46385">
        <ele>242</ele>
        <time>2024-08-22T06:36:14Z</time>
      </trkpt>
      <trkpt lat="44.38607" lon="1.4638">
        <ele>241.5</ele>
        <time>2024-08-22T06:36:19Z</time>
      </trkpt>
      <trkpt lat="44.38612" lon="1.46377">
        <ele>241.5</ele>
        <time>2024-08-22T06:36:24Z</time>
      </trkpt>
      <trkpt lat="44.38616" lon="1.46374">
        <ele>241.5</ele>
        <time>2024-08-22T06:36:29Z</time>
      </trkpt>
      <trkpt lat="44.38621" lon="1.4637">
        <ele>241.8</ele>
        <time>2024-08-22T06:36:34Z</time>
      </trkpt>
      <trkpt lat="44.38625" lon="1.46366">
        <ele>242.1</ele>
        <time>2024-08-22T06:36:38Z</time>
      </trkpt>
      <trkpt lat="44.38629" lon="1.46362">
        <ele>243.2</ele>
        <time>2024-08-22T06:36:45Z</time>
      </trkpt>
      <trkpt lat="44.38633" lon="1.46357">
        <ele>243.1</ele>
        <time>2024-08-22T06:36:50Z</time>
      </trkpt>
      <trkpt lat="44.38636" lon="1.46352">
        <ele>242.6</ele>
        <time>2024-08-22T06:36:54Z</time>
      </trkpt>
      <trkpt lat="44.38639" lon="1.46347">
        <ele>241.8</ele>
        <time>2024-08-22T06:37:02Z</time>
      </trkpt>
      <trkpt lat="44.38643" lon="1.46343">
        <ele>241.6</ele>
        <time>2024-08-22T06:37:07Z</time>
      </trkpt>
      <trkpt lat="44.38648" lon="1.4634">
        <ele>241.7</ele>
        <time>2024-08-22T06:37:11Z</time>
      </trkpt>
      <trkpt lat="44.38652" lon="1.46337">
        <ele>241.6</ele>
        <time>2024-08-22T06:37:15Z</time>
      </trkpt>
      <trkpt lat="44.38656" lon="1.46333">
        <ele>241.6</ele>
        <time>2024-08-22T06:37:19Z</time>
      </trkpt>
      <trkpt lat="44.38659" lon="1.46329">
        <ele>241.8</ele>
        <time>2024-08-22T06:37:25Z</time>
      </trkpt>
      <trkpt lat="44.38663" lon="1.46324">
        <ele>241.4</ele>
        <time>2024-08-22T06:37:31Z</time>
      </trkpt>
      <trkpt lat="44.38668" lon="1.4632">
        <ele>241</ele>
        <time>2024-08-22T06:37:36Z</time>
      </trkpt>
      <trkpt lat="44.38672" lon="1.46317">
        <ele>240.7</ele>
        <time>2024-08-22T06:37:41Z</time>
      </trkpt>
      <trkpt lat="44.38675" lon="1.46312">
        <ele>240.2</ele>
        <time>2024-08-22T06:37:46Z</time>
      </trkpt>
      <trkpt lat="44.38679" lon="1.46307">
        <ele>239.3</ele>
        <time>2024-08-22T06:37:51Z</time>
      </trkpt>
      <trkpt lat="44.38682" lon="1.46302">
        <ele>238.9</ele>
        <time>2024-08-22T06:37:56Z</time>
      </trkpt>
      <trkpt lat="44.38686" lon="1.46297">
        <ele>238.5</ele>
        <time>2024-08-22T06:38:02Z</time>
      </trkpt>
      <trkpt lat="44.3869" lon="1.46293">
        <ele>237.8</ele>
        <time>2024-08-22T06:38:09Z</time>
      </trkpt>
      <trkpt lat="44.38694" lon="1.46289">
        <ele>237.2</ele>
        <time>2024-08-22T06:38:14Z</time>
      </trkpt>
      <trkpt lat="44.38698" lon="1.46285">
        <ele>236.2</ele>
        <time>2024-08-22T06:38:20Z</time>
      </trkpt>
      <trkpt lat="44.38702" lon="1.46281">
        <ele>235.2</ele>
        <time>2024-08-22T06:38:26Z</time>
      </trkpt>
      <trkpt lat="44.38705" lon="1.46276">
        <ele>234.5</ele>
        <time>2024-08-22T06:38:31Z</time>
      </trkpt>
      <trkpt lat="44.38709" lon="1.46273">
        <ele>234</ele>
        <time>2024-08-22T06:38:35Z</time>
      </trkpt>
      <trkpt lat="44.38713" lon="1.46269">
        <ele>233.8</ele>
        <time>2024-08-22T06:38:39Z</time>
      </trkpt>
      <trkpt lat="44.38718" lon="1.46266">
        <ele>233.9</ele>
        <time>2024-08-22T06:38:44Z</time>
      </trkpt>
      <trkpt lat="44.38722" lon="1.46261">
        <ele>234</ele>
        <time>2024-08-22T06:38:50Z</time>
      </trkpt>
      <trkpt lat="44.38725" lon="1.46256">
        <ele>233.8</ele>
        <time>2024-08-22T06:38:57Z</time>
      </trkpt>
      <trkpt lat="44.38729" lon="1.46251">
        <ele>233.1</ele>
        <time>2024-08-22T06:39:03Z</time>
      </trkpt>
      <trkpt lat="44.38732" lon="1.46246">
        <ele>231.8</ele>
        <time>2024-08-22T06:39:09Z</time>
      </trkpt>
      <trkpt lat="44.38735" lon="1.46241">
        <ele>231.1</ele>
        <time>2024-08-22T06:39:14Z</time>
      </trkpt>
      <trkpt lat="44.38739" lon="1.46236">
        <ele>230.6</ele>
        <time>2024-08-22T06:39:19Z</time>
      </trkpt>
      <trkpt lat="44.38743" lon="1.46233">
        <ele>230.3</ele>
        <time>2024-08-22T06:39:24Z</time>
      </trkpt>
      <trkpt lat="44.38746" lon="1.46228">
        <ele>229.5</ele>
        <time>2024-08-22T06:39:30Z</time>
      </trkpt>
      <trkpt lat="44.38751" lon="1.46224">
        <ele>229.1</ele>
        <time>2024-08-22T06:39:36Z</time>
      </trkpt>
      <trkpt lat="44.38755" lon="1.4622">
        <ele>228</ele>
        <time>2024-08-22T06:39:43Z</time>
      </trkpt>
      <trkpt lat="44.38758" lon="1.46215">
        <ele>226.2</ele>
        <time>2024-08-22T06:39:50Z</time>
      </trkpt>
      <trkpt lat="44.38762" lon="1.4621">
        <ele>225</ele>
        <time>2024-08-22T06:39:56Z</time>
      </trkpt>
      <trkpt lat="44.38766" lon="1.46207">
        <ele>224.2</ele>
        <time>2024-08-22T06:40:01Z</time>
      </trkpt>
      <trkpt lat="44.3877" lon="1.46204">
        <ele>223.5</ele>
        <time>2024-08-22T06:40:05Z</time>
      </trkpt>
      <trkpt lat="44.38774" lon="1.462">
        <ele>223.2</ele>
        <time>2024-08-22T06:40:09Z</time>
      </trkpt>
      <trkpt lat="44.38779" lon="1.46198">
        <ele>223.7</ele>
        <time>2024-08-22T06:40:14Z</time>
      </trkpt>
      <trkpt lat="44.38783" lon="1.46194">
        <ele>224.2</ele>
        <time>2024-08-22T06:40:19Z</time>
      </trkpt>
      <trkpt lat="44.38787" lon="1.46189">
        <ele>224.1</ele>
        <time>2024-08-22T06:40:24Z</time>
      </trkpt>
      <trkpt lat="44.38791" lon="1.46186">
        <ele>223.7</ele>
        <time>2024-08-22T06:40:29Z</time>
      </trkpt>
      <trkpt lat="44.38795" lon="1.46183">
        <ele>223.2</ele>
        <time>2024-08-22T06:40:34Z</time>
      </trkpt>
      <trkpt lat="44.38798" lon="1.46178">
        <ele>222.6</ele>
        <time>2024-08-22T06:40:39Z</time>
      </trkpt>
      <trkpt lat="44.38802" lon="1.46173">
        <ele>221.5</ele>
        <time>2024-08-22T06:40:48Z</time>
      </trkpt>
      <trkpt lat="44.38805" lon="1.4617">
        <ele>220.9</ele>
        <time>2024-08-22T06:40:54Z</time>
      </trkpt>
      <trkpt lat="44.3881" lon="1.46168">
        <ele>220.3</ele>
        <time>2024-08-22T06:40:58Z</time>
      </trkpt>
      <trkpt lat="44.38815" lon="1.46166">
        <ele>219.1</ele>
        <time>2024-08-22T06:41:03Z</time>
      </trkpt>
      <trkpt lat="44.3882" lon="1.46167">
        <ele>217.6</ele>
        <time>2024-08-22T06:41:09Z</time>
      </trkpt>
      <trkpt lat="44.38824" lon="1.46171">
        <ele>216.7</ele>
        <time>2024-08-22T06:41:14Z</time>
      </trkpt>
      <trkpt lat="44.38827" lon="1.46176">
        <ele>215.9</ele>
        <time>2024-08-22T06:41:20Z</time>
      </trkpt>
      <trkpt lat="44.3883" lon="1.46181">
        <ele>215.1</ele>
        <time>2024-08-22T06:41:26Z</time>
      </trkpt>
      <trkpt lat="44.38834" lon="1.46186">
        <ele>214</ele>
        <time>2024-08-22T06:41:34Z</time>
      </trkpt>
      <trkpt lat="44.38837" lon="1.46191">
        <ele>213.3</ele>
        <time>2024-08-22T06:41:40Z</time>
      </trkpt>
      <trkpt lat="44.38839" lon="1.46198">
        <ele>211.8</ele>
        <time>2024-08-22T06:41:46Z</time>
      </trkpt>
      <trkpt lat="44.38842" lon="1.46203">
        <ele>209.6</ele>
        <time>2024-08-22T06:41:54Z</time>
      </trkpt>
      <trkpt lat="44.38846" lon="1.46201">
        <ele>207.7</ele>
        <time>2024-08-22T06:42:07Z</time>
      </trkpt>
      <trkpt lat="44.38848" lon="1.46195">
        <ele>207.5</ele>
        <time>2024-08-22T06:42:12Z</time>
      </trkpt>
      <trkpt lat="44.38849" lon="1.46188">
        <ele>207.8</ele>
        <time>2024-08-22T06:42:18Z</time>
      </trkpt>
      <trkpt lat="44.38851" lon="1.46181">
        <ele>207.7</ele>
        <time>2024-08-22T06:42:24Z</time>
      </trkpt>
      <trkpt lat="44.38853" lon="1.46174">
        <ele>207.3</ele>
        <time>2024-08-22T06:42:29Z</time>
      </trkpt>
      <trkpt lat="44.38854" lon="1.46167">
        <ele>207.2</ele>
        <time>2024-08-22T06:42:34Z</time>
      </trkpt>
      <trkpt lat="44.38856" lon="1.4616">
        <ele>207.4</ele>
        <time>2024-08-22T06:42:38Z</time>
      </trkpt>
      <trkpt lat="44.38852" lon="1.46154">
        <ele>207.7</ele>
        <time>2024-08-22T06:42:43Z</time>
      </trkpt>
      <trkpt lat="44.38849" lon="1.46149">
        <ele>207.6</ele>
        <time>2024-08-22T06:42:48Z</time>
      </trkpt>
      <trkpt lat="44.3885" lon="1.46143">
        <ele>207</ele>
        <time>2024-08-22T06:42:56Z</time>
      </trkpt>
      <trkpt lat="44.38852" lon="1.46136">
        <ele>207.1</ele>
        <time>2024-08-22T06:43:00Z</time>
      </trkpt>
      <trkpt lat="44.38853" lon="1.4613">
        <ele>207.2</ele>
        <time>2024-08-22T06:43:08Z</time>
      </trkpt>
      <trkpt lat="44.38851" lon="1.46123">
        <ele>205.8</ele>
        <time>2024-08-22T06:43:17Z</time>
      </trkpt>
      <trkpt lat="44.38852" lon="1.46115">
        <ele>204.2</ele>
        <time>2024-08-22T06:43:22Z</time>
      </trkpt>
      <trkpt lat="44.38851" lon="1.46108">
        <ele>202.3</ele>
        <time>2024-08-22T06:43:27Z</time>
      </trkpt>
      <trkpt lat="44.3885" lon="1.46102">
        <ele>199.5</ele>
        <time>2024-08-22T06:43:35Z</time>
      </trkpt>
      <trkpt lat="44.38851" lon="1.46097">
        <ele>197.5</ele>
        <time>2024-08-22T06:43:43Z</time>
      </trkpt>
      <trkpt lat="44.38854" lon="1.46091">
        <ele>196.5</ele>
        <time>2024-08-22T06:43:49Z</time>
      </trkpt>
      <trkpt lat="44.38849" lon="1.46092">
        <ele>197.3</ele>
        <time>2024-08-22T06:44:32Z</time>
      </trkpt>
      <trkpt lat="44.38855" lon="1.46091">
        <ele>198.9</ele>
        <time>2024-08-22T06:44:45Z</time>
      </trkpt>
      <trkpt lat="44.38859" lon="1.4609">
        <ele>199.1</ele>
        <time>2024-08-22T06:44:48Z</time>
      </trkpt>
      <trkpt lat="44.38863" lon="1.46094">
        <ele>198.7</ele>
        <time>2024-08-22T06:45:05Z</time>
      </trkpt>
      <trkpt lat="44.38857" lon="1.46096">
        <ele>199.2</ele>
        <time>2024-08-22T06:45:37Z</time>
      </trkpt>
      <trkpt lat="44.38861" lon="1.46091">
        <ele>200.3</ele>
        <time>2024-08-22T06:46:48Z</time>
      </trkpt>
      <trkpt lat="44.38867" lon="1.46089">
        <ele>199.4</ele>
        <time>2024-08-22T06:46:52Z</time>
      </trkpt>
      <trkpt lat="44.38872" lon="1.46088">
        <ele>198.4</ele>
        <time>2024-08-22T06:46:56Z</time>
      </trkpt>
      <trkpt lat="44.38876" lon="1.46087">
        <ele>197.5</ele>
        <time>2024-08-22T06:47:00Z</time>
      </trkpt>
      <trkpt lat="44.38881" lon="1.46084">
        <ele>195.9</ele>
        <time>2024-08-22T06:47:06Z</time>
      </trkpt>
      <trkpt lat="44.38885" lon="1.46081">
        <ele>194.8</ele>
        <time>2024-08-22T06:47:12Z</time>
      </trkpt>
      <trkpt lat="44.38888" lon="1.46076">
        <ele>194.6</ele>
        <time>2024-08-22T06:47:19Z</time>
      </trkpt>
      <trkpt lat="44.38891" lon="1.46071">
        <ele>194.3</ele>
        <time>2024-08-22T06:47:25Z</time>
      </trkpt>
      <trkpt lat="44.38894" lon="1.46064">
        <ele>194.3</ele>
        <time>2024-08-22T06:47:30Z</time>
      </trkpt>
      <trkpt lat="44.38897" lon="1.46058">
        <ele>194.9</ele>
        <time>2024-08-22T06:47:34Z</time>
      </trkpt>
      <trkpt lat="44.38899" lon="1.46052">
        <ele>195.8</ele>
        <time>2024-08-22T06:47:38Z</time>
      </trkpt>
      <trkpt lat="44.38901" lon="1.46046">
        <ele>196.7</ele>
        <time>2024-08-22T06:47:43Z</time>
      </trkpt>
      <trkpt lat="44.38905" lon="1.46041">
        <ele>197.4</ele>
        <time>2024-08-22T06:47:49Z</time>
      </trkpt>
      <trkpt lat="44.38908" lon="1.46033">
        <ele>197.4</ele>
        <time>2024-08-22T06:48:02Z</time>
      </trkpt>
      <trkpt lat="44.38911" lon="1.46027">
        <ele>196.3</ele>
        <time>2024-08-22T06:48:06Z</time>
      </trkpt>
      <trkpt lat="44.38914" lon="1.46023">
        <ele>195</ele>
        <time>2024-08-22T06:48:11Z</time>
      </trkpt>
      <trkpt lat="44.38918" lon="1.46017">
        <ele>193.8</ele>
        <time>2024-08-22T06:48:16Z</time>
      </trkpt>
      <trkpt lat="44.38921" lon="1.46012">
        <ele>193.1</ele>
        <time>2024-08-22T06:48:20Z</time>
      </trkpt>
      <trkpt lat="44.38923" lon="1.46006">
        <ele>192.8</ele>
        <time>2024-08-22T06:48:24Z</time>
      </trkpt>
      <trkpt lat="44.38927" lon="1.46001">
        <ele>193.4</ele>
        <time>2024-08-22T06:48:30Z</time>
      </trkpt>
      <trkpt lat="44.3893" lon="1.45997">
        <ele>193.3</ele>
        <time>2024-08-22T06:48:35Z</time>
      </trkpt>
      <trkpt lat="44.38932" lon="1.4599">
        <ele>193</ele>
        <time>2024-08-22T06:48:40Z</time>
      </trkpt>
      <trkpt lat="44.38933" lon="1.45984">
        <ele>192.5</ele>
        <time>2024-08-22T06:48:46Z</time>
      </trkpt>
      <trkpt lat="44.38937" lon="1.45978">
        <ele>191.5</ele>
        <time>2024-08-22T06:48:52Z</time>
      </trkpt>
      <trkpt lat="44.3894" lon="1.45972">
        <ele>190.6</ele>
        <time>2024-08-22T06:48:57Z</time>
      </trkpt>
      <trkpt lat="44.38943" lon="1.45965">
        <ele>190.1</ele>
        <time>2024-08-22T06:49:01Z</time>
      </trkpt>
      <trkpt lat="44.38946" lon="1.4596">
        <ele>190</ele>
        <time>2024-08-22T06:49:05Z</time>
      </trkpt>
      <trkpt lat="44.38949" lon="1.45954">
        <ele>190.5</ele>
        <time>2024-08-22T06:49:11Z</time>
      </trkpt>
      <trkpt lat="44.38952" lon="1.45948">
        <ele>190.1</ele>
        <time>2024-08-22T06:49:17Z</time>
      </trkpt>
      <trkpt lat="44.38955" lon="1.45944">
        <ele>189.6</ele>
        <time>2024-08-22T06:49:22Z</time>
      </trkpt>
      <trkpt lat="44.38958" lon="1.45937">
        <ele>189.3</ele>
        <time>2024-08-22T06:49:27Z</time>
      </trkpt>
      <trkpt lat="44.3896" lon="1.45931">
        <ele>189.2</ele>
        <time>2024-08-22T06:49:32Z</time>
      </trkpt>
      <trkpt lat="44.38963" lon="1.45925">
        <ele>189</ele>
        <time>2024-08-22T06:49:37Z</time>
      </trkpt>
      <trkpt lat="44.38965" lon="1.45918">
        <ele>189.1</ele>
        <time>2024-08-22T06:49:42Z</time>
      </trkpt>
      <trkpt lat="44.38969" lon="1.45913">
        <ele>189.7</ele>
        <time>2024-08-22T06:49:48Z</time>
      </trkpt>
      <trkpt lat="44.38971" lon="1.45907">
        <ele>189.8</ele>
        <time>2024-08-22T06:49:53Z</time>
      </trkpt>
      <trkpt lat="44.38974" lon="1.45902">
        <ele>189.4</ele>
        <time>2024-08-22T06:49:57Z</time>
      </trkpt>
      <trkpt lat="44.38977" lon="1.45897">
        <ele>189.1</ele>
        <time>2024-08-22T06:50:01Z</time>
      </trkpt>
      <trkpt lat="44.38981" lon="1.45894">
        <ele>188.7</ele>
        <time>2024-08-22T06:50:05Z</time>
      </trkpt>
      <trkpt lat="44.38985" lon="1.45889">
        <ele>188.2</ele>
        <time>2024-08-22T06:50:11Z</time>
      </trkpt>
      <trkpt lat="44.3899" lon="1.45885">
        <ele>187.7</ele>
        <time>2024-08-22T06:50:16Z</time>
      </trkpt>
      <trkpt lat="44.38995" lon="1.45881">
        <ele>187.5</ele>
        <time>2024-08-22T06:50:21Z</time>
      </trkpt>
      <trkpt lat="44.38999" lon="1.45876">
        <ele>187.1</ele>
        <time>2024-08-22T06:50:27Z</time>
      </trkpt>
      <trkpt lat="44.39003" lon="1.45872">
        <ele>185.9</ele>
        <time>2024-08-22T06:50:33Z</time>
      </trkpt>
      <trkpt lat="44.39008" lon="1.45868">
        <ele>185</ele>
        <time>2024-08-22T06:50:38Z</time>
      </trkpt>
      <trkpt lat="44.39013" lon="1.45864">
        <ele>184</ele>
        <time>2024-08-22T06:50:43Z</time>
      </trkpt>
      <trkpt lat="44.39017" lon="1.45861">
        <ele>183.5</ele>
        <time>2024-08-22T06:50:48Z</time>
      </trkpt>
      <trkpt lat="44.39021" lon="1.45857">
        <ele>183.7</ele>
        <time>2024-08-22T06:50:54Z</time>
      </trkpt>
      <trkpt lat="44.39025" lon="1.45855">
        <ele>183.9</ele>
        <time>2024-08-22T06:50:58Z</time>
      </trkpt>
      <trkpt lat="44.3903" lon="1.45856">
        <ele>183.9</ele>
        <time>2024-08-22T06:51:03Z</time>
      </trkpt>
      <trkpt lat="44.39034" lon="1.45851">
        <ele>184.2</ele>
        <time>2024-08-22T06:51:07Z</time>
      </trkpt>
      <trkpt lat="44.39041" lon="1.4585">
        <ele>185.5</ele>
        <time>2024-08-22T06:51:10Z</time>
      </trkpt>
      <trkpt lat="44.39046" lon="1.4585">
        <ele>187</ele>
        <time>2024-08-22T06:51:13Z</time>
      </trkpt>
      <trkpt lat="44.39052" lon="1.45849">
        <ele>188.4</ele>
        <time>2024-08-22T06:51:17Z</time>
      </trkpt>
      <trkpt lat="44.39056" lon="1.45848">
        <ele>189.3</ele>
        <time>2024-08-22T06:51:21Z</time>
      </trkpt>
      <trkpt lat="44.39061" lon="1.45847">
        <ele>191</ele>
        <time>2024-08-22T06:51:26Z</time>
      </trkpt>
      <trkpt lat="44.39066" lon="1.45847">
        <ele>192.1</ele>
        <time>2024-08-22T06:51:31Z</time>
      </trkpt>
      <trkpt lat="44.39071" lon="1.45846">
        <ele>192.1</ele>
        <time>2024-08-22T06:51:36Z</time>
      </trkpt>
      <trkpt lat="44.39077" lon="1.45844">
        <ele>192.3</ele>
        <time>2024-08-22T06:51:40Z</time>
      </trkpt>
      <trkpt lat="44.39081" lon="1.45844">
        <ele>192.3</ele>
        <time>2024-08-22T06:51:43Z</time>
      </trkpt>
      <trkpt lat="44.39087" lon="1.45844">
        <ele>191.9</ele>
        <time>2024-08-22T06:51:47Z</time>
      </trkpt>
      <trkpt lat="44.39092" lon="1.45842">
        <ele>191.9</ele>
        <time>2024-08-22T06:51:51Z</time>
      </trkpt>
      <trkpt lat="44.39096" lon="1.45839">
        <ele>192.5</ele>
        <time>2024-08-22T06:51:55Z</time>
      </trkpt>
      <trkpt lat="44.39099" lon="1.45834">
        <ele>192.6</ele>
        <time>2024-08-22T06:52:04Z</time>
      </trkpt>
      <trkpt lat="44.39104" lon="1.45831">
        <ele>191.7</ele>
        <time>2024-08-22T06:52:10Z</time>
      </trkpt>
      <trkpt lat="44.39109" lon="1.45827">
        <ele>191.3</ele>
        <time>2024-08-22T06:52:16Z</time>
      </trkpt>
      <trkpt lat="44.39114" lon="1.45827">
        <ele>190.9</ele>
        <time>2024-08-22T06:52:20Z</time>
      </trkpt>
      <trkpt lat="44.39119" lon="1.45825">
        <ele>190.2</ele>
        <time>2024-08-22T06:52:25Z</time>
      </trkpt>
      <trkpt lat="44.39123" lon="1.45822">
        <ele>190.3</ele>
        <time>2024-08-22T06:52:30Z</time>
      </trkpt>
      <trkpt lat="44.39126" lon="1.45816">
        <ele>189.8</ele>
        <time>2024-08-22T06:52:36Z</time>
      </trkpt>
      <trkpt lat="44.3913" lon="1.45812">
        <ele>189.2</ele>
        <time>2024-08-22T06:52:40Z</time>
      </trkpt>
      <trkpt lat="44.39134" lon="1.45808">
        <ele>189</ele>
        <time>2024-08-22T06:52:43Z</time>
      </trkpt>
      <trkpt lat="44.39139" lon="1.45805">
        <ele>188.9</ele>
        <time>2024-08-22T06:52:48Z</time>
      </trkpt>
      <trkpt lat="44.39143" lon="1.45801">
        <ele>189.1</ele>
        <time>2024-08-22T06:52:52Z</time>
      </trkpt>
      <trkpt lat="44.39147" lon="1.45796">
        <ele>189</ele>
        <time>2024-08-22T06:52:57Z</time>
      </trkpt>
      <trkpt lat="44.39151" lon="1.4579">
        <ele>189.5</ele>
        <time>2024-08-22T06:53:01Z</time>
      </trkpt>
      <trkpt lat="44.39153" lon="1.45785">
        <ele>190.3</ele>
        <time>2024-08-22T06:53:06Z</time>
      </trkpt>
      <trkpt lat="44.39158" lon="1.45782">
        <ele>190.4</ele>
        <time>2024-08-22T06:53:10Z</time>
      </trkpt>
      <trkpt lat="44.39163" lon="1.4578">
        <ele>189.9</ele>
        <time>2024-08-22T06:53:15Z</time>
      </trkpt>
      <trkpt lat="44.39169" lon="1.45777">
        <ele>189.8</ele>
        <time>2024-08-22T06:53:18Z</time>
      </trkpt>
      <trkpt lat="44.39173" lon="1.45774">
        <ele>190.2</ele>
        <time>2024-08-22T06:53:21Z</time>
      </trkpt>
      <trkpt lat="44.39177" lon="1.45769">
        <ele>190.7</ele>
        <time>2024-08-22T06:53:25Z</time>
      </trkpt>
      <trkpt lat="44.3918" lon="1.45765">
        <ele>191.8</ele>
        <time>2024-08-22T06:53:31Z</time>
      </trkpt>
      <trkpt lat="44.39182" lon="1.45758">
        <ele>192.8</ele>
        <time>2024-08-22T06:53:38Z</time>
      </trkpt>
      <trkpt lat="44.39185" lon="1.45753">
        <ele>192.9</ele>
        <time>2024-08-22T06:53:43Z</time>
      </trkpt>
      <trkpt lat="44.39186" lon="1.45746">
        <ele>192.7</ele>
        <time>2024-08-22T06:53:47Z</time>
      </trkpt>
      <trkpt lat="44.39186" lon="1.4574">
        <ele>191.8</ele>
        <time>2024-08-22T06:53:52Z</time>
      </trkpt>
      <trkpt lat="44.39189" lon="1.45735">
        <ele>189.9</ele>
        <time>2024-08-22T06:53:58Z</time>
      </trkpt>
      <trkpt lat="44.39194" lon="1.4573">
        <ele>188.8</ele>
        <time>2024-08-22T06:54:03Z</time>
      </trkpt>
      <trkpt lat="44.39198" lon="1.45726">
        <ele>188.7</ele>
        <time>2024-08-22T06:54:07Z</time>
      </trkpt>
      <trkpt lat="44.39201" lon="1.4572">
        <ele>187.5</ele>
        <time>2024-08-22T06:54:16Z</time>
      </trkpt>
      <trkpt lat="44.39205" lon="1.45715">
        <ele>186.2</ele>
        <time>2024-08-22T06:54:21Z</time>
      </trkpt>
      <trkpt lat="44.39209" lon="1.45712">
        <ele>185.5</ele>
        <time>2024-08-22T06:54:24Z</time>
      </trkpt>
      <trkpt lat="44.39213" lon="1.45707">
        <ele>184.7</ele>
        <time>2024-08-22T06:54:28Z</time>
      </trkpt>
      <trkpt lat="44.39217" lon="1.45702">
        <ele>184.2</ele>
        <time>2024-08-22T06:54:33Z</time>
      </trkpt>
      <trkpt lat="44.3922" lon="1.45697">
        <ele>184.1</ele>
        <time>2024-08-22T06:54:38Z</time>
      </trkpt>
      <trkpt lat="44.39224" lon="1.45694">
        <ele>183.3</ele>
        <time>2024-08-22T06:54:44Z</time>
      </trkpt>
      <trkpt lat="44.39228" lon="1.4569">
        <ele>181.8</ele>
        <time>2024-08-22T06:54:50Z</time>
      </trkpt>
      <trkpt lat="44.39233" lon="1.45686">
        <ele>180.8</ele>
        <time>2024-08-22T06:54:55Z</time>
      </trkpt>
      <trkpt lat="44.39237" lon="1.45682">
        <ele>180.6</ele>
        <time>2024-08-22T06:54:59Z</time>
      </trkpt>
      <trkpt lat="44.39241" lon="1.45678">
        <ele>180.2</ele>
        <time>2024-08-22T06:55:03Z</time>
      </trkpt>
      <trkpt lat="44.39243" lon="1.45673">
        <ele>180.3</ele>
        <time>2024-08-22T06:55:08Z</time>
      </trkpt>
      <trkpt lat="44.39244" lon="1.45666">
        <ele>180.7</ele>
        <time>2024-08-22T06:55:13Z</time>
      </trkpt>
      <trkpt lat="44.39248" lon="1.45661">
        <ele>180.8</ele>
        <time>2024-08-22T06:55:18Z</time>
      </trkpt>
      <trkpt lat="44.39251" lon="1.45657">
        <ele>180.8</ele>
        <time>2024-08-22T06:55:21Z</time>
      </trkpt>
      <trkpt lat="44.39256" lon="1.45653">
        <ele>180.6</ele>
        <time>2024-08-22T06:55:24Z</time>
      </trkpt>
      <trkpt lat="44.3926" lon="1.45648">
        <ele>180.8</ele>
        <time>2024-08-22T06:55:29Z</time>
      </trkpt>
      <trkpt lat="44.39264" lon="1.45644">
        <ele>181.3</ele>
        <time>2024-08-22T06:55:33Z</time>
      </trkpt>
      <trkpt lat="44.39268" lon="1.4564">
        <ele>181.9</ele>
        <time>2024-08-22T06:55:37Z</time>
      </trkpt>
      <trkpt lat="44.3927" lon="1.45633">
        <ele>182.2</ele>
        <time>2024-08-22T06:55:43Z</time>
      </trkpt>
      <trkpt lat="44.39274" lon="1.45629">
        <ele>182.1</ele>
        <time>2024-08-22T06:55:47Z</time>
      </trkpt>
      <trkpt lat="44.39277" lon="1.45625">
        <ele>181.6</ele>
        <time>2024-08-22T06:55:51Z</time>
      </trkpt>
      <trkpt lat="44.3928" lon="1.45619">
        <ele>181</ele>
        <time>2024-08-22T06:55:55Z</time>
      </trkpt>
      <trkpt lat="44.39281" lon="1.45613">
        <ele>180.4</ele>
        <time>2024-08-22T06:56:00Z</time>
      </trkpt>
      <trkpt lat="44.39284" lon="1.45607">
        <ele>180</ele>
        <time>2024-08-22T06:56:05Z</time>
      </trkpt>
      <trkpt lat="44.39288" lon="1.45602">
        <ele>179.4</ele>
        <time>2024-08-22T06:56:11Z</time>
      </trkpt>
      <trkpt lat="44.39291" lon="1.45597">
        <ele>179.2</ele>
        <time>2024-08-22T06:56:16Z</time>
      </trkpt>
      <trkpt lat="44.39292" lon="1.4559">
        <ele>178.2</ele>
        <time>2024-08-22T06:56:23Z</time>
      </trkpt>
      <trkpt lat="44.39297" lon="1.45587">
        <ele>177.4</ele>
        <time>2024-08-22T06:56:27Z</time>
      </trkpt>
      <trkpt lat="44.39302" lon="1.45582">
        <ele>176.4</ele>
        <time>2024-08-22T06:56:31Z</time>
      </trkpt>
      <trkpt lat="44.39305" lon="1.45576">
        <ele>175.5</ele>
        <time>2024-08-22T06:56:35Z</time>
      </trkpt>
      <trkpt lat="44.39308" lon="1.45571">
        <ele>175.1</ele>
        <time>2024-08-22T06:56:38Z</time>
      </trkpt>
      <trkpt lat="44.39311" lon="1.45564">
        <ele>175.1</ele>
        <time>2024-08-22T06:56:42Z</time>
      </trkpt>
      <trkpt lat="44.3931" lon="1.45557">
        <ele>175.7</ele>
        <time>2024-08-22T06:56:47Z</time>
      </trkpt>
      <trkpt lat="44.39307" lon="1.45552">
        <ele>175.9</ele>
        <time>2024-08-22T06:56:51Z</time>
      </trkpt>
      <trkpt lat="44.39307" lon="1.45545">
        <ele>175.8</ele>
        <time>2024-08-22T06:56:55Z</time>
      </trkpt>
      <trkpt lat="44.39311" lon="1.4554">
        <ele>176</ele>
        <time>2024-08-22T06:56:59Z</time>
      </trkpt>
      <trkpt lat="44.39314" lon="1.45535">
        <ele>176</ele>
        <time>2024-08-22T06:57:02Z</time>
      </trkpt>
      <trkpt lat="44.39317" lon="1.45529">
        <ele>176.2</ele>
        <time>2024-08-22T06:57:06Z</time>
      </trkpt>
      <trkpt lat="44.3932" lon="1.45523">
        <ele>176.1</ele>
        <time>2024-08-22T06:57:11Z</time>
      </trkpt>
      <trkpt lat="44.39322" lon="1.45517">
        <ele>175.8</ele>
        <time>2024-08-22T06:57:17Z</time>
      </trkpt>
      <trkpt lat="44.39322" lon="1.4551">
        <ele>176</ele>
        <time>2024-08-22T06:57:22Z</time>
      </trkpt>
      <trkpt lat="44.3932" lon="1.45504">
        <ele>176.5</ele>
        <time>2024-08-22T06:57:27Z</time>
      </trkpt>
      <trkpt lat="44.39321" lon="1.45496">
        <ele>176.9</ele>
        <time>2024-08-22T06:57:33Z</time>
      </trkpt>
      <trkpt lat="44.39324" lon="1.4549">
        <ele>177.2</ele>
        <time>2024-08-22T06:57:37Z</time>
      </trkpt>
      <trkpt lat="44.39324" lon="1.45482">
        <ele>177.5</ele>
        <time>2024-08-22T06:57:41Z</time>
      </trkpt>
      <trkpt lat="44.39324" lon="1.45475">
        <ele>177.7</ele>
        <time>2024-08-22T06:57:45Z</time>
      </trkpt>
      <trkpt lat="44.39324" lon="1.45467">
        <ele>177.9</ele>
        <time>2024-08-22T06:57:50Z</time>
      </trkpt>
      <trkpt lat="44.39324" lon="1.4546">
        <ele>178.2</ele>
        <time>2024-08-22T06:57:55Z</time>
      </trkpt>
      <trkpt lat="44.39325" lon="1.45454">
        <ele>178.1</ele>
        <time>2024-08-22T06:58:00Z</time>
      </trkpt>
      <trkpt lat="44.39328" lon="1.45448">
        <ele>177.8</ele>
        <time>2024-08-22T06:58:04Z</time>
      </trkpt>
      <trkpt lat="44.39332" lon="1.45442">
        <ele>177.8</ele>
        <time>2024-08-22T06:58:07Z</time>
      </trkpt>
      <trkpt lat="44.39334" lon="1.45437">
        <ele>177.8</ele>
        <time>2024-08-22T06:58:10Z</time>
      </trkpt>
      <trkpt lat="44.39335" lon="1.4543">
        <ele>178</ele>
        <time>2024-08-22T06:58:14Z</time>
      </trkpt>
      <trkpt lat="44.39335" lon="1.45423">
        <ele>178.5</ele>
        <time>2024-08-22T06:58:19Z</time>
      </trkpt>
      <trkpt lat="44.39338" lon="1.45418">
        <ele>178.2</ele>
        <time>2024-08-22T06:58:24Z</time>
      </trkpt>
      <trkpt lat="44.3934" lon="1.45412">
        <ele>177.4</ele>
        <time>2024-08-22T06:58:30Z</time>
      </trkpt>
      <trkpt lat="44.39339" lon="1.45406">
        <ele>177</ele>
        <time>2024-08-22T06:58:34Z</time>
      </trkpt>
      <trkpt lat="44.39338" lon="1.45399">
        <ele>177</ele>
        <time>2024-08-22T06:58:39Z</time>
      </trkpt>
      <trkpt lat="44.39339" lon="1.45392">
        <ele>177.9</ele>
        <time>2024-08-22T06:58:44Z</time>
      </trkpt>
      <trkpt lat="44.3934" lon="1.45385">
        <ele>178.9</ele>
        <time>2024-08-22T06:58:49Z</time>
      </trkpt>
      <trkpt lat="44.39343" lon="1.45379">
        <ele>179.1</ele>
        <time>2024-08-22T06:58:55Z</time>
      </trkpt>
      <trkpt lat="44.39344" lon="1.45372">
        <ele>178.2</ele>
        <time>2024-08-22T06:59:02Z</time>
      </trkpt>
      <trkpt lat="44.39343" lon="1.45364">
        <ele>177.6</ele>
        <time>2024-08-22T06:59:08Z</time>
      </trkpt>
      <trkpt lat="44.39342" lon="1.45358">
        <ele>177.3</ele>
        <time>2024-08-22T06:59:12Z</time>
      </trkpt>
      <trkpt lat="44.39342" lon="1.45351">
        <ele>177.2</ele>
        <time>2024-08-22T06:59:16Z</time>
      </trkpt>
      <trkpt lat="44.39343" lon="1.45343">
        <ele>177.3</ele>
        <time>2024-08-22T06:59:20Z</time>
      </trkpt>
      <trkpt lat="44.39344" lon="1.45336">
        <ele>177.3</ele>
        <time>2024-08-22T06:59:23Z</time>
      </trkpt>
      <trkpt lat="44.39344" lon="1.45328">
        <ele>177.8</ele>
        <time>2024-08-22T06:59:27Z</time>
      </trkpt>
      <trkpt lat="44.39345" lon="1.45321">
        <ele>178.4</ele>
        <time>2024-08-22T06:59:32Z</time>
      </trkpt>
      <trkpt lat="44.39347" lon="1.45315">
        <ele>178.7</ele>
        <time>2024-08-22T06:59:36Z</time>
      </trkpt>
      <trkpt lat="44.39348" lon="1.45307">
        <ele>179.1</ele>
        <time>2024-08-22T06:59:41Z</time>
      </trkpt>
      <trkpt lat="44.39351" lon="1.45302">
        <ele>179</ele>
        <time>2024-08-22T06:59:47Z</time>
      </trkpt>
      <trkpt lat="44.39351" lon="1.45295">
        <ele>178.2</ele>
        <time>2024-08-22T06:59:54Z</time>
      </trkpt>
      <trkpt lat="44.39352" lon="1.45288">
        <ele>177.1</ele>
        <time>2024-08-22T07:00:00Z</time>
      </trkpt>
      <trkpt lat="44.39353" lon="1.45281">
        <ele>176.1</ele>
        <time>2024-08-22T07:00:07Z</time>
      </trkpt>
      <trkpt lat="44.39352" lon="1.45274">
        <ele>174.9</ele>
        <time>2024-08-22T07:00:13Z</time>
      </trkpt>
      <trkpt lat="44.39351" lon="1.45268">
        <ele>174.2</ele>
        <time>2024-08-22T07:00:17Z</time>
      </trkpt>
      <trkpt lat="44.39352" lon="1.45261">
        <ele>174.5</ele>
        <time>2024-08-22T07:00:23Z</time>
      </trkpt>
      <trkpt lat="44.3935" lon="1.45255">
        <ele>174.9</ele>
        <time>2024-08-22T07:00:26Z</time>
      </trkpt>
      <trkpt lat="44.39349" lon="1.45247">
        <ele>175.2</ele>
        <time>2024-08-22T07:00:29Z</time>
      </trkpt>
      <trkpt lat="44.39359" lon="1.45194">
        <ele>185.5</ele>
        <time>2024-08-22T07:01:01Z</time>
      </trkpt>
      <trkpt lat="44.39363" lon="1.45189">
        <ele>191.5</ele>
        <time>2024-08-22T07:01:05Z</time>
      </trkpt>
      <trkpt lat="44.39366" lon="1.45194">
        <ele>187.1</ele>
        <time>2024-08-22T07:01:15Z</time>
      </trkpt>
      <trkpt lat="44.39364" lon="1.45199">
        <ele>179.8</ele>
        <time>2024-08-22T07:01:40Z</time>
      </trkpt>
      <trkpt lat="44.39361" lon="1.45204">
        <ele>180.3</ele>
        <time>2024-08-22T07:01:49Z</time>
      </trkpt>
      <trkpt lat="44.39365" lon="1.45198">
        <ele>182.5</ele>
        <time>2024-08-22T07:02:08Z</time>
      </trkpt>
      <trkpt lat="44.39368" lon="1.45194">
        <ele>182.3</ele>
        <time>2024-08-22T07:02:13Z</time>
      </trkpt>
      <trkpt lat="44.39373" lon="1.45194">
        <ele>175.9</ele>
        <time>2024-08-22T07:02:40Z</time>
      </trkpt>
      <trkpt lat="44.39378" lon="1.45193">
        <ele>173.3</ele>
        <time>2024-08-22T07:02:44Z</time>
      </trkpt>
      <trkpt lat="44.39379" lon="1.45199">
        <ele>173.4</ele>
        <time>2024-08-22T07:02:54Z</time>
      </trkpt>
      <trkpt lat="44.39383" lon="1.45197">
        <ele>179</ele>
        <time>2024-08-22T07:03:18Z</time>
      </trkpt>
      <trkpt lat="44.39388" lon="1.45194">
        <ele>177.3</ele>
        <time>2024-08-22T07:03:23Z</time>
      </trkpt>
      <trkpt lat="44.39393" lon="1.45195">
        <ele>175.7</ele>
        <time>2024-08-22T07:03:27Z</time>
      </trkpt>
      <trkpt lat="44.39398" lon="1.45195">
        <ele>174.4</ele>
        <time>2024-08-22T07:03:31Z</time>
      </trkpt>
      <trkpt lat="44.39404" lon="1.45194">
        <ele>174.2</ele>
        <time>2024-08-22T07:03:36Z</time>
      </trkpt>
      <trkpt lat="44.39409" lon="1.45193">
        <ele>174.6</ele>
        <time>2024-08-22T07:03:44Z</time>
      </trkpt>
      <trkpt lat="44.39414" lon="1.45193">
        <ele>174.9</ele>
        <time>2024-08-22T07:03:49Z</time>
      </trkpt>
      <trkpt lat="44.39418" lon="1.45195">
        <ele>175.8</ele>
        <time>2024-08-22T07:03:54Z</time>
      </trkpt>
      <trkpt lat="44.39423" lon="1.45197">
        <ele>176.8</ele>
        <time>2024-08-22T07:03:59Z</time>
      </trkpt>
      <trkpt lat="44.39428" lon="1.45199">
        <ele>178</ele>
        <time>2024-08-22T07:04:04Z</time>
      </trkpt>
      <trkpt lat="44.39433" lon="1.45197">
        <ele>178.7</ele>
        <time>2024-08-22T07:04:10Z</time>
      </trkpt>
      <trkpt lat="44.39438" lon="1.45199">
        <ele>178.1</ele>
        <time>2024-08-22T07:04:16Z</time>
      </trkpt>
      <trkpt lat="44.39442" lon="1.45201">
        <ele>177.5</ele>
        <time>2024-08-22T07:04:21Z</time>
      </trkpt>
      <trkpt lat="44.39447" lon="1.45202">
        <ele>177.2</ele>
        <time>2024-08-22T07:04:25Z</time>
      </trkpt>
      <trkpt lat="44.39452" lon="1.45202">
        <ele>177.2</ele>
        <time>2024-08-22T07:04:29Z</time>
      </trkpt>
      <trkpt lat="44.39457" lon="1.45203">
        <ele>177.6</ele>
        <time>2024-08-22T07:04:33Z</time>
      </trkpt>
      <trkpt lat="44.39463" lon="1.45204">
        <ele>178.5</ele>
        <time>2024-08-22T07:04:40Z</time>
      </trkpt>
      <trkpt lat="44.39468" lon="1.45205">
        <ele>179.1</ele>
        <time>2024-08-22T07:04:44Z</time>
      </trkpt>
      <trkpt lat="44.39473" lon="1.45204">
        <ele>179.7</ele>
        <time>2024-08-22T07:04:49Z</time>
      </trkpt>
      <trkpt lat="44.39478" lon="1.45207">
        <ele>179</ele>
        <time>2024-08-22T07:04:56Z</time>
      </trkpt>
      <trkpt lat="44.39483" lon="1.45208">
        <ele>177.9</ele>
        <time>2024-08-22T07:05:01Z</time>
      </trkpt>
      <trkpt lat="44.39488" lon="1.45209">
        <ele>176.4</ele>
        <time>2024-08-22T07:05:06Z</time>
      </trkpt>
      <trkpt lat="44.39492" lon="1.45211">
        <ele>174.2</ele>
        <time>2024-08-22T07:05:12Z</time>
      </trkpt>
      <trkpt lat="44.39497" lon="1.45214">
        <ele>173</ele>
        <time>2024-08-22T07:05:17Z</time>
      </trkpt>
      <trkpt lat="44.39501" lon="1.45217">
        <ele>172.1</ele>
        <time>2024-08-22T07:05:22Z</time>
      </trkpt>
      <trkpt lat="44.39505" lon="1.4522">
        <ele>171.3</ele>
        <time>2024-08-22T07:05:28Z</time>
      </trkpt>
      <trkpt lat="44.3951" lon="1.45224">
        <ele>171</ele>
        <time>2024-08-22T07:05:34Z</time>
      </trkpt>
      <trkpt lat="44.39515" lon="1.45226">
        <ele>170.7</ele>
        <time>2024-08-22T07:05:38Z</time>
      </trkpt>
      <trkpt lat="44.39519" lon="1.4523">
        <ele>170.6</ele>
        <time>2024-08-22T07:05:42Z</time>
      </trkpt>
      <trkpt lat="44.39523" lon="1.45233">
        <ele>170.8</ele>
        <time>2024-08-22T07:05:46Z</time>
      </trkpt>
      <trkpt lat="44.39528" lon="1.45237">
        <ele>171</ele>
        <time>2024-08-22T07:05:51Z</time>
      </trkpt>
      <trkpt lat="44.39532" lon="1.45239">
        <ele>171.1</ele>
        <time>2024-08-22T07:05:55Z</time>
      </trkpt>
      <trkpt lat="44.39536" lon="1.45242">
        <ele>171.1</ele>
        <time>2024-08-22T07:06:00Z</time>
      </trkpt>
      <trkpt lat="44.39541" lon="1.45246">
        <ele>171.6</ele>
        <time>2024-08-22T07:06:08Z</time>
      </trkpt>
      <trkpt lat="44.39545" lon="1.45247">
        <ele>171.6</ele>
        <time>2024-08-22T07:06:14Z</time>
      </trkpt>
      <trkpt lat="44.3955" lon="1.4525">
        <ele>171.2</ele>
        <time>2024-08-22T07:06:20Z</time>
      </trkpt>
      <trkpt lat="44.39555" lon="1.45253">
        <ele>171.1</ele>
        <time>2024-08-22T07:06:24Z</time>
      </trkpt>
      <trkpt lat="44.39559" lon="1.45257">
        <ele>171.2</ele>
        <time>2024-08-22T07:06:29Z</time>
      </trkpt>
      <trkpt lat="44.39563" lon="1.4526">
        <ele>170.7</ele>
        <time>2024-08-22T07:06:34Z</time>
      </trkpt>
      <trkpt lat="44.39568" lon="1.45262">
        <ele>170.1</ele>
        <time>2024-08-22T07:06:43Z</time>
      </trkpt>
      <trkpt lat="44.39573" lon="1.45264">
        <ele>169.9</ele>
        <time>2024-08-22T07:06:48Z</time>
      </trkpt>
      <trkpt lat="44.39578" lon="1.45266">
        <ele>170</ele>
        <time>2024-08-22T07:06:52Z</time>
      </trkpt>
      <trkpt lat="44.39583" lon="1.45269">
        <ele>170.5</ele>
        <time>2024-08-22T07:06:58Z</time>
      </trkpt>
      <trkpt lat="44.39588" lon="1.4527">
        <ele>170.7</ele>
        <time>2024-08-22T07:07:03Z</time>
      </trkpt>
      <trkpt lat="44.39593" lon="1.45272">
        <ele>170.5</ele>
        <time>2024-08-22T07:07:08Z</time>
      </trkpt>
      <trkpt lat="44.39598" lon="1.45273">
        <ele>170.5</ele>
        <time>2024-08-22T07:07:11Z</time>
      </trkpt>
      <trkpt lat="44.39604" lon="1.45274">
        <ele>170.4</ele>
        <time>2024-08-22T07:07:15Z</time>
      </trkpt>
      <trkpt lat="44.39609" lon="1.45277">
        <ele>170.3</ele>
        <time>2024-08-22T07:07:19Z</time>
      </trkpt>
      <trkpt lat="44.39613" lon="1.45279">
        <ele>170.4</ele>
        <time>2024-08-22T07:07:23Z</time>
      </trkpt>
      <trkpt lat="44.39618" lon="1.45281">
        <ele>171</ele>
        <time>2024-08-22T07:07:28Z</time>
      </trkpt>
      <trkpt lat="44.39623" lon="1.45282">
        <ele>171.7</ele>
        <time>2024-08-22T07:07:32Z</time>
      </trkpt>
      <trkpt lat="44.39628" lon="1.45283">
        <ele>172.1</ele>
        <time>2024-08-22T07:07:36Z</time>
      </trkpt>
      <trkpt lat="44.39633" lon="1.45284">
        <ele>172.5</ele>
        <time>2024-08-22T07:07:41Z</time>
      </trkpt>
      <trkpt lat="44.39637" lon="1.45286">
        <ele>172.9</ele>
        <time>2024-08-22T07:07:46Z</time>
      </trkpt>
      <trkpt lat="44.39642" lon="1.45289">
        <ele>173.2</ele>
        <time>2024-08-22T07:07:50Z</time>
      </trkpt>
      <trkpt lat="44.39647" lon="1.45291">
        <ele>173.4</ele>
        <time>2024-08-22T07:07:56Z</time>
      </trkpt>
      <trkpt lat="44.39651" lon="1.45292">
        <ele>172.6</ele>
        <time>2024-08-22T07:08:01Z</time>
      </trkpt>
      <trkpt lat="44.39656" lon="1.45296">
        <ele>171.4</ele>
        <time>2024-08-22T07:08:08Z</time>
      </trkpt>
      <trkpt lat="44.3966" lon="1.45299">
        <ele>170.9</ele>
        <time>2024-08-22T07:08:13Z</time>
      </trkpt>
      <trkpt lat="44.39664" lon="1.45303">
        <ele>170.8</ele>
        <time>2024-08-22T07:08:17Z</time>
      </trkpt>
      <trkpt lat="44.39669" lon="1.45307">
        <ele>170.8</ele>
        <time>2024-08-22T07:08:21Z</time>
      </trkpt>
      <trkpt lat="44.39672" lon="1.45311">
        <ele>171.2</ele>
        <time>2024-08-22T07:08:25Z</time>
      </trkpt>
      <trkpt lat="44.39676" lon="1.45315">
        <ele>171.7</ele>
        <time>2024-08-22T07:08:30Z</time>
      </trkpt>
      <trkpt lat="44.39681" lon="1.45317">
        <ele>172.1</ele>
        <time>2024-08-22T07:08:36Z</time>
      </trkpt>
      <trkpt lat="44.39685" lon="1.45321">
        <ele>172.7</ele>
        <time>2024-08-22T07:08:41Z</time>
      </trkpt>
      <trkpt lat="44.39689" lon="1.45324">
        <ele>173.1</ele>
        <time>2024-08-22T07:08:47Z</time>
      </trkpt>
      <trkpt lat="44.39702" lon="1.45314">
        <ele>174.9</ele>
        <time>2024-08-22T07:09:09Z</time>
      </trkpt>
      <trkpt lat="44.39707" lon="1.45314">
        <ele>172.1</ele>
        <time>2024-08-22T07:09:18Z</time>
      </trkpt>
      <trkpt lat="44.39701" lon="1.45314">
        <ele>168.5</ele>
        <time>2024-08-22T07:09:26Z</time>
      </trkpt>
      <trkpt lat="44.39696" lon="1.45317">
        <ele>165.4</ele>
        <time>2024-08-22T07:09:29Z</time>
      </trkpt>
      <trkpt lat="44.39692" lon="1.45321">
        <ele>162.9</ele>
        <time>2024-08-22T07:09:33Z</time>
      </trkpt>
      <trkpt lat="44.3969" lon="1.45327">
        <ele>162.5</ele>
        <time>2024-08-22T07:09:39Z</time>
      </trkpt>
      <trkpt lat="44.39688" lon="1.45333">
        <ele>165.2</ele>
        <time>2024-08-22T07:10:08Z</time>
      </trkpt>
      <trkpt lat="44.39687" lon="1.45339">
        <ele>175</ele>
        <time>2024-08-22T07:12:22Z</time>
      </trkpt>
      <trkpt lat="44.39689" lon="1.45397">
        <ele>180.3</ele>
        <time>2024-08-22T07:12:54Z</time>
      </trkpt>
      <trkpt lat="44.39692" lon="1.45404">
        <ele>185</ele>
        <time>2024-08-22T07:13:08Z</time>
      </trkpt>
      <trkpt lat="44.3969" lon="1.4541">
        <ele>180.3</ele>
        <time>2024-08-22T07:13:17Z</time>
      </trkpt>
      <trkpt lat="44.39687" lon="1.45417">
        <ele>177.3</ele>
        <time>2024-08-22T07:13:27Z</time>
      </trkpt>
      <trkpt lat="44.39685" lon="1.45424">
        <ele>175.9</ele>
        <time>2024-08-22T07:13:33Z</time>
      </trkpt>
      <trkpt lat="44.39683" lon="1.45429">
        <ele>174.5</ele>
        <time>2024-08-22T07:13:38Z</time>
      </trkpt>
      <trkpt lat="44.3968" lon="1.45434">
        <ele>171.8</ele>
        <time>2024-08-22T07:13:45Z</time>
      </trkpt>
      <trkpt lat="44.39679" lon="1.45441">
        <ele>169.5</ele>
        <time>2024-08-22T07:13:51Z</time>
      </trkpt>
      <trkpt lat="44.39676" lon="1.45446">
        <ele>168.7</ele>
        <time>2024-08-22T07:13:55Z</time>
      </trkpt>
      <trkpt lat="44.39674" lon="1.45452">
        <ele>168.6</ele>
        <time>2024-08-22T07:14:00Z</time>
      </trkpt>
      <trkpt lat="44.39671" lon="1.45459">
        <ele>168.9</ele>
        <time>2024-08-22T07:14:06Z</time>
      </trkpt>
      <trkpt lat="44.39667" lon="1.45464">
        <ele>168.8</ele>
        <time>2024-08-22T07:14:11Z</time>
      </trkpt>
      <trkpt lat="44.39665" lon="1.4547">
        <ele>168.9</ele>
        <time>2024-08-22T07:14:18Z</time>
      </trkpt>
      <trkpt lat="44.39664" lon="1.45477">
        <ele>168.4</ele>
        <time>2024-08-22T07:14:24Z</time>
      </trkpt>
      <trkpt lat="44.3966" lon="1.45484">
        <ele>167.8</ele>
        <time>2024-08-22T07:14:29Z</time>
      </trkpt>
      <trkpt lat="44.39658" lon="1.4549">
        <ele>167.7</ele>
        <time>2024-08-22T07:14:33Z</time>
      </trkpt>
      <trkpt lat="44.39655" lon="1.45495">
        <ele>168.3</ele>
        <time>2024-08-22T07:14:37Z</time>
      </trkpt>
      <trkpt lat="44.39653" lon="1.45502">
        <ele>169.3</ele>
        <time>2024-08-22T07:14:42Z</time>
      </trkpt>
      <trkpt lat="44.39649" lon="1.45506">
        <ele>168.8</ele>
        <time>2024-08-22T07:14:48Z</time>
      </trkpt>
      <trkpt lat="44.39648" lon="1.45512">
        <ele>168.3</ele>
        <time>2024-08-22T07:14:52Z</time>
      </trkpt>
      <trkpt lat="44.39646" lon="1.45518">
        <ele>168</ele>
        <time>2024-08-22T07:14:56Z</time>
      </trkpt>
      <trkpt lat="44.39642" lon="1.45523">
        <ele>167.7</ele>
        <time>2024-08-22T07:15:01Z</time>
      </trkpt>
      <trkpt lat="44.39637" lon="1.45527">
        <ele>167.8</ele>
        <time>2024-08-22T07:15:06Z</time>
      </trkpt>
      <trkpt lat="44.39632" lon="1.45531">
        <ele>167.7</ele>
        <time>2024-08-22T07:15:10Z</time>
      </trkpt>
      <trkpt lat="44.39629" lon="1.45536">
        <ele>168</ele>
        <time>2024-08-22T07:15:16Z</time>
      </trkpt>
      <trkpt lat="44.39626" lon="1.45542">
        <ele>168.8</ele>
        <time>2024-08-22T07:15:22Z</time>
      </trkpt>
      <trkpt lat="44.39624" lon="1.45549">
        <ele>169.2</ele>
        <time>2024-08-22T07:15:28Z</time>
      </trkpt>
      <trkpt lat="44.39621" lon="1.45554">
        <ele>169.4</ele>
        <time>2024-08-22T07:15:33Z</time>
      </trkpt>
      <trkpt lat="44.39618" lon="1.4556">
        <ele>169.1</ele>
        <time>2024-08-22T07:15:37Z</time>
      </trkpt>
      <trkpt lat="44.39615" lon="1.45565">
        <ele>169</ele>
        <time>2024-08-22T07:15:41Z</time>
      </trkpt>
      <trkpt lat="44.39612" lon="1.45571">
        <ele>168.8</ele>
        <time>2024-08-22T07:15:46Z</time>
      </trkpt>
      <trkpt lat="44.39609" lon="1.45575">
        <ele>168</ele>
        <time>2024-08-22T07:15:53Z</time>
      </trkpt>
      <trkpt lat="44.39605" lon="1.4558">
        <ele>167</ele>
        <time>2024-08-22T07:16:00Z</time>
      </trkpt>
      <trkpt lat="44.39603" lon="1.45587">
        <ele>166.5</ele>
        <time>2024-08-22T07:16:06Z</time>
      </trkpt>
      <trkpt lat="44.39602" lon="1.45595">
        <ele>167</ele>
        <time>2024-08-22T07:16:09Z</time>
      </trkpt>
      <trkpt lat="44.39598" lon="1.45601">
        <ele>167.7</ele>
        <time>2024-08-22T07:16:13Z</time>
      </trkpt>
      <trkpt lat="44.39595" lon="1.45607">
        <ele>168.6</ele>
        <time>2024-08-22T07:16:18Z</time>
      </trkpt>
      <trkpt lat="44.39595" lon="1.45614">
        <ele>169</ele>
        <time>2024-08-22T07:16:22Z</time>
      </trkpt>
      <trkpt lat="44.39592" lon="1.45621">
        <ele>169.5</ele>
        <time>2024-08-22T07:16:27Z</time>
      </trkpt>
      <trkpt lat="44.39592" lon="1.45628">
        <ele>170.1</ele>
        <time>2024-08-22T07:16:31Z</time>
      </trkpt>
      <trkpt lat="44.39592" lon="1.45634">
        <ele>170.9</ele>
        <time>2024-08-22T07:16:35Z</time>
      </trkpt>
      <trkpt lat="44.3959" lon="1.45641">
        <ele>172</ele>
        <time>2024-08-22T07:16:39Z</time>
      </trkpt>
      <trkpt lat="44.39588" lon="1.45648">
        <ele>173.3</ele>
        <time>2024-08-22T07:16:43Z</time>
      </trkpt>
      <trkpt lat="44.39587" lon="1.45654">
        <ele>174.7</ele>
        <time>2024-08-22T07:16:48Z</time>
      </trkpt>
      <trkpt lat="44.39584" lon="1.4566">
        <ele>176.2</ele>
        <time>2024-08-22T07:16:54Z</time>
      </trkpt>
      <trkpt lat="44.39584" lon="1.45668">
        <ele>176.8</ele>
        <time>2024-08-22T07:16:58Z</time>
      </trkpt>
      <trkpt lat="44.39582" lon="1.45674">
        <ele>176.7</ele>
        <time>2024-08-22T07:17:01Z</time>
      </trkpt>
      <trkpt lat="44.39581" lon="1.45681">
        <ele>176.3</ele>
        <time>2024-08-22T07:17:05Z</time>
      </trkpt>
      <trkpt lat="44.39581" lon="1.45687">
        <ele>175.9</ele>
        <time>2024-08-22T07:17:10Z</time>
      </trkpt>
      <trkpt lat="44.3958" lon="1.45694">
        <ele>176.1</ele>
        <time>2024-08-22T07:17:15Z</time>
      </trkpt>
      <trkpt lat="44.3958" lon="1.45701">
        <ele>176.5</ele>
        <time>2024-08-22T07:17:22Z</time>
      </trkpt>
      <trkpt lat="44.3958" lon="1.45711">
        <ele>177.5</ele>
        <time>2024-08-22T07:17:32Z</time>
      </trkpt>
      <trkpt lat="44.39581" lon="1.45719">
        <ele>178.1</ele>
        <time>2024-08-22T07:17:35Z</time>
      </trkpt>
      <trkpt lat="44.39581" lon="1.45725">
        <ele>178.7</ele>
        <time>2024-08-22T07:17:39Z</time>
      </trkpt>
      <trkpt lat="44.3958" lon="1.45732">
        <ele>179.3</ele>
        <time>2024-08-22T07:17:43Z</time>
      </trkpt>
      <trkpt lat="44.39579" lon="1.45739">
        <ele>180</ele>
        <time>2024-08-22T07:17:46Z</time>
      </trkpt>
      <trkpt lat="44.39578" lon="1.45745">
        <ele>180.8</ele>
        <time>2024-08-22T07:17:49Z</time>
      </trkpt>
      <trkpt lat="44.39578" lon="1.45752">
        <ele>181.7</ele>
        <time>2024-08-22T07:17:55Z</time>
      </trkpt>
      <trkpt lat="44.39577" lon="1.45758">
        <ele>181.7</ele>
        <time>2024-08-22T07:18:02Z</time>
      </trkpt>
      <trkpt lat="44.39577" lon="1.45765">
        <ele>181.5</ele>
        <time>2024-08-22T07:18:10Z</time>
      </trkpt>
      <trkpt lat="44.39576" lon="1.45772">
        <ele>181.3</ele>
        <time>2024-08-22T07:18:17Z</time>
      </trkpt>
      <trkpt lat="44.39574" lon="1.4578">
        <ele>181.7</ele>
        <time>2024-08-22T07:18:21Z</time>
      </trkpt>
      <trkpt lat="44.39571" lon="1.45786">
        <ele>182</ele>
        <time>2024-08-22T07:18:25Z</time>
      </trkpt>
      <trkpt lat="44.39569" lon="1.45792">
        <ele>181.9</ele>
        <time>2024-08-22T07:18:29Z</time>
      </trkpt>
      <trkpt lat="44.39568" lon="1.458">
        <ele>182.2</ele>
        <time>2024-08-22T07:18:33Z</time>
      </trkpt>
      <trkpt lat="44.39567" lon="1.45806">
        <ele>182.3</ele>
        <time>2024-08-22T07:18:38Z</time>
      </trkpt>
      <trkpt lat="44.39565" lon="1.45813">
        <ele>182.1</ele>
        <time>2024-08-22T07:18:43Z</time>
      </trkpt>
      <trkpt lat="44.39562" lon="1.45819">
        <ele>182.3</ele>
        <time>2024-08-22T07:18:48Z</time>
      </trkpt>
      <trkpt lat="44.39559" lon="1.45824">
        <ele>182.6</ele>
        <time>2024-08-22T07:18:52Z</time>
      </trkpt>
      <trkpt lat="44.39554" lon="1.45827">
        <ele>183.3</ele>
        <time>2024-08-22T07:18:57Z</time>
      </trkpt>
      <trkpt lat="44.39554" lon="1.45835">
        <ele>185</ele>
        <time>2024-08-22T07:19:16Z</time>
      </trkpt>
      <trkpt lat="44.39551" lon="1.45841">
        <ele>186.7</ele>
        <time>2024-08-22T07:19:20Z</time>
      </trkpt>
      <trkpt lat="44.39549" lon="1.45847">
        <ele>188.3</ele>
        <time>2024-08-22T07:19:24Z</time>
      </trkpt>
      <trkpt lat="44.39547" lon="1.45853">
        <ele>189.5</ele>
        <time>2024-08-22T07:19:28Z</time>
      </trkpt>
      <trkpt lat="44.39544" lon="1.45858">
        <ele>190.5</ele>
        <time>2024-08-22T07:19:34Z</time>
      </trkpt>
      <trkpt lat="44.3954" lon="1.45863">
        <ele>191.2</ele>
        <time>2024-08-22T07:19:40Z</time>
      </trkpt>
      <trkpt lat="44.39538" lon="1.45869">
        <ele>190.9</ele>
        <time>2024-08-22T07:19:47Z</time>
      </trkpt>
      <trkpt lat="44.39535" lon="1.45874">
        <ele>190.1</ele>
        <time>2024-08-22T07:19:53Z</time>
      </trkpt>
      <trkpt lat="44.39532" lon="1.4588">
        <ele>188.8</ele>
        <time>2024-08-22T07:19:58Z</time>
      </trkpt>
      <trkpt lat="44.39528" lon="1.45884">
        <ele>186.5</ele>
        <time>2024-08-22T07:20:04Z</time>
      </trkpt>
      <trkpt lat="44.39525" lon="1.45889">
        <ele>184.6</ele>
        <time>2024-08-22T07:20:09Z</time>
      </trkpt>
      <trkpt lat="44.39523" lon="1.45895">
        <ele>183.5</ele>
        <time>2024-08-22T07:20:13Z</time>
      </trkpt>
      <trkpt lat="44.39521" lon="1.45902">
        <ele>182.5</ele>
        <time>2024-08-22T07:20:18Z</time>
      </trkpt>
      <trkpt lat="44.39518" lon="1.45908">
        <ele>181.3</ele>
        <time>2024-08-22T07:20:23Z</time>
      </trkpt>
      <trkpt lat="44.39515" lon="1.45914">
        <ele>180.1</ele>
        <time>2024-08-22T07:20:28Z</time>
      </trkpt>
      <trkpt lat="44.39512" lon="1.45919">
        <ele>179.3</ele>
        <time>2024-08-22T07:20:32Z</time>
      </trkpt>
      <trkpt lat="44.3951" lon="1.45926">
        <ele>178.5</ele>
        <time>2024-08-22T07:20:37Z</time>
      </trkpt>
      <trkpt lat="44.39507" lon="1.45932">
        <ele>178.3</ele>
        <time>2024-08-22T07:20:42Z</time>
      </trkpt>
      <trkpt lat="44.39504" lon="1.45936">
        <ele>178</ele>
        <time>2024-08-22T07:20:47Z</time>
      </trkpt>
      <trkpt lat="44.39502" lon="1.45943">
        <ele>177.8</ele>
        <time>2024-08-22T07:20:52Z</time>
      </trkpt>
      <trkpt lat="44.39499" lon="1.45949">
        <ele>177.7</ele>
        <time>2024-08-22T07:20:56Z</time>
      </trkpt>
      <trkpt lat="44.39497" lon="1.45954">
        <ele>177.9</ele>
        <time>2024-08-22T07:21:00Z</time>
      </trkpt>
      <trkpt lat="44.39495" lon="1.4596">
        <ele>178.2</ele>
        <time>2024-08-22T07:21:04Z</time>
      </trkpt>
      <trkpt lat="44.39493" lon="1.45966">
        <ele>178.6</ele>
        <time>2024-08-22T07:21:08Z</time>
      </trkpt>
      <trkpt lat="44.3949" lon="1.45971">
        <ele>179.2</ele>
        <time>2024-08-22T07:21:13Z</time>
      </trkpt>
      <trkpt lat="44.39488" lon="1.45977">
        <ele>179.8</ele>
        <time>2024-08-22T07:21:18Z</time>
      </trkpt>
      <trkpt lat="44.39486" lon="1.45984">
        <ele>180.1</ele>
        <time>2024-08-22T07:21:24Z</time>
      </trkpt>
      <trkpt lat="44.39484" lon="1.45991">
        <ele>180.5</ele>
        <time>2024-08-22T07:21:28Z</time>
      </trkpt>
      <trkpt lat="44.39481" lon="1.45997">
        <ele>181.3</ele>
        <time>2024-08-22T07:21:32Z</time>
      </trkpt>
      <trkpt lat="44.39478" lon="1.46002">
        <ele>182.9</ele>
        <time>2024-08-22T07:21:38Z</time>
      </trkpt>
      <trkpt lat="44.39473" lon="1.46005">
        <ele>184.6</ele>
        <time>2024-08-22T07:21:45Z</time>
      </trkpt>
      <trkpt lat="44.39468" lon="1.46005">
        <ele>185.6</ele>
        <time>2024-08-22T07:21:51Z</time>
      </trkpt>
      <trkpt lat="44.39463" lon="1.46006">
        <ele>186.3</ele>
        <time>2024-08-22T07:21:56Z</time>
      </trkpt>
      <trkpt lat="44.39458" lon="1.46007">
        <ele>186.5</ele>
        <time>2024-08-22T07:22:00Z</time>
      </trkpt>
      <trkpt lat="44.39454" lon="1.46011">
        <ele>187.3</ele>
        <time>2024-08-22T07:22:05Z</time>
      </trkpt>
      <trkpt lat="44.39452" lon="1.46016">
        <ele>187.5</ele>
        <time>2024-08-22T07:22:11Z</time>
      </trkpt>
      <trkpt lat="44.39451" lon="1.46023">
        <ele>187</ele>
        <time>2024-08-22T07:22:17Z</time>
      </trkpt>
      <trkpt lat="44.3945" lon="1.4603">
        <ele>185.2</ele>
        <time>2024-08-22T07:22:24Z</time>
      </trkpt>
      <trkpt lat="44.3945" lon="1.46036">
        <ele>183.8</ele>
        <time>2024-08-22T07:22:29Z</time>
      </trkpt>
      <trkpt lat="44.39451" lon="1.46044">
        <ele>182.3</ele>
        <time>2024-08-22T07:22:34Z</time>
      </trkpt>
      <trkpt lat="44.39451" lon="1.46051">
        <ele>181.2</ele>
        <time>2024-08-22T07:22:38Z</time>
      </trkpt>
      <trkpt lat="44.39448" lon="1.46057">
        <ele>179.4</ele>
        <time>2024-08-22T07:22:44Z</time>
      </trkpt>
      <trkpt lat="44.39448" lon="1.46063">
        <ele>178</ele>
        <time>2024-08-22T07:22:48Z</time>
      </trkpt>
      <trkpt lat="44.39448" lon="1.4607">
        <ele>177.1</ele>
        <time>2024-08-22T07:22:51Z</time>
      </trkpt>
      <trkpt lat="44.39448" lon="1.46077">
        <ele>176.5</ele>
        <time>2024-08-22T07:22:54Z</time>
      </trkpt>
      <trkpt lat="44.39449" lon="1.46084">
        <ele>176.5</ele>
        <time>2024-08-22T07:22:57Z</time>
      </trkpt>
      <trkpt lat="44.3945" lon="1.4609">
        <ele>177.2</ele>
        <time>2024-08-22T07:23:01Z</time>
      </trkpt>
      <trkpt lat="44.39448" lon="1.46097">
        <ele>179.1</ele>
        <time>2024-08-22T07:23:09Z</time>
      </trkpt>
      <trkpt lat="44.39448" lon="1.46104">
        <ele>179.3</ele>
        <time>2024-08-22T07:23:15Z</time>
      </trkpt>
      <trkpt lat="44.39448" lon="1.46111">
        <ele>179.1</ele>
        <time>2024-08-22T07:23:21Z</time>
      </trkpt>
      <trkpt lat="44.39448" lon="1.46118">
        <ele>178.8</ele>
        <time>2024-08-22T07:23:26Z</time>
      </trkpt>
      <trkpt lat="44.39447" lon="1.46124">
        <ele>178.5</ele>
        <time>2024-08-22T07:23:30Z</time>
      </trkpt>
      <trkpt lat="44.39448" lon="1.46132">
        <ele>178.5</ele>
        <time>2024-08-22T07:23:34Z</time>
      </trkpt>
      <trkpt lat="44.39447" lon="1.46139">
        <ele>178.8</ele>
        <time>2024-08-22T07:23:39Z</time>
      </trkpt>
      <trkpt lat="44.39446" lon="1.46146">
        <ele>179.2</ele>
        <time>2024-08-22T07:23:44Z</time>
      </trkpt>
      <trkpt lat="44.39446" lon="1.46153">
        <ele>179.7</ele>
        <time>2024-08-22T07:23:49Z</time>
      </trkpt>
      <trkpt lat="44.39444" lon="1.46158">
        <ele>180.1</ele>
        <time>2024-08-22T07:23:54Z</time>
      </trkpt>
      <trkpt lat="44.39443" lon="1.46165">
        <ele>180.5</ele>
        <time>2024-08-22T07:23:59Z</time>
      </trkpt>
      <trkpt lat="44.39443" lon="1.46172">
        <ele>180.5</ele>
        <time>2024-08-22T07:24:04Z</time>
      </trkpt>
      <trkpt lat="44.39443" lon="1.46179">
        <ele>180.5</ele>
        <time>2024-08-22T07:24:08Z</time>
      </trkpt>
      <trkpt lat="44.39444" lon="1.46186">
        <ele>181</ele>
        <time>2024-08-22T07:24:13Z</time>
      </trkpt>
      <trkpt lat="44.39444" lon="1.46194">
        <ele>182</ele>
        <time>2024-08-22T07:24:18Z</time>
      </trkpt>
      <trkpt lat="44.39444" lon="1.46201">
        <ele>183.5</ele>
        <time>2024-08-22T07:24:23Z</time>
      </trkpt>
      <trkpt lat="44.39442" lon="1.46207">
        <ele>185</ele>
        <time>2024-08-22T07:24:28Z</time>
      </trkpt>
      <trkpt lat="44.39441" lon="1.46214">
        <ele>185.8</ele>
        <time>2024-08-22T07:24:33Z</time>
      </trkpt>
      <trkpt lat="44.39441" lon="1.46221">
        <ele>186.2</ele>
        <time>2024-08-22T07:24:37Z</time>
      </trkpt>
      <trkpt lat="44.3944" lon="1.46227">
        <ele>186.4</ele>
        <time>2024-08-22T07:24:41Z</time>
      </trkpt>
      <trkpt lat="44.3944" lon="1.46234">
        <ele>186.7</ele>
        <time>2024-08-22T07:24:46Z</time>
      </trkpt>
      <trkpt lat="44.39439" lon="1.46241">
        <ele>187.4</ele>
        <time>2024-08-22T07:24:52Z</time>
      </trkpt>
      <trkpt lat="44.39441" lon="1.46248">
        <ele>188.5</ele>
        <time>2024-08-22T07:24:57Z</time>
      </trkpt>
      <trkpt lat="44.39443" lon="1.46254">
        <ele>190.2</ele>
        <time>2024-08-22T07:25:02Z</time>
      </trkpt>
      <trkpt lat="44.39442" lon="1.46261">
        <ele>191.4</ele>
        <time>2024-08-22T07:25:07Z</time>
      </trkpt>
      <trkpt lat="44.39441" lon="1.46268">
        <ele>192</ele>
        <time>2024-08-22T07:25:12Z</time>
      </trkpt>
      <trkpt lat="44.3944" lon="1.46276">
        <ele>192.7</ele>
        <time>2024-08-22T07:25:16Z</time>
      </trkpt>
      <trkpt lat="44.39438" lon="1.46284">
        <ele>193.4</ele>
        <time>2024-08-22T07:25:21Z</time>
      </trkpt>
      <trkpt lat="44.39438" lon="1.46291">
        <ele>194</ele>
        <time>2024-08-22T07:25:25Z</time>
      </trkpt>
      <trkpt lat="44.39439" lon="1.46298">
        <ele>194.5</ele>
        <time>2024-08-22T07:25:32Z</time>
      </trkpt>
      <trkpt lat="44.39438" lon="1.46306">
        <ele>194.1</ele>
        <time>2024-08-22T07:25:37Z</time>
      </trkpt>
      <trkpt lat="44.39438" lon="1.46313">
        <ele>193.7</ele>
        <time>2024-08-22T07:25:41Z</time>
      </trkpt>
      <trkpt lat="44.39437" lon="1.4632">
        <ele>193.5</ele>
        <time>2024-08-22T07:25:48Z</time>
      </trkpt>
      <trkpt lat="44.39435" lon="1.46326">
        <ele>193.5</ele>
        <time>2024-08-22T07:25:53Z</time>
      </trkpt>
      <trkpt lat="44.39434" lon="1.46333">
        <ele>193.6</ele>
        <time>2024-08-22T07:25:57Z</time>
      </trkpt>
      <trkpt lat="44.39433" lon="1.46339">
        <ele>193.3</ele>
        <time>2024-08-22T07:26:02Z</time>
      </trkpt>
      <trkpt lat="44.39433" lon="1.46347">
        <ele>193.3</ele>
        <time>2024-08-22T07:26:08Z</time>
      </trkpt>
      <trkpt lat="44.39433" lon="1.46353">
        <ele>193.6</ele>
        <time>2024-08-22T07:26:12Z</time>
      </trkpt>
      <trkpt lat="44.39433" lon="1.4636">
        <ele>194.6</ele>
        <time>2024-08-22T07:26:18Z</time>
      </trkpt>
      <trkpt lat="44.39429" lon="1.46364">
        <ele>195.5</ele>
        <time>2024-08-22T07:26:22Z</time>
      </trkpt>
      <trkpt lat="44.39426" lon="1.46369">
        <ele>195.9</ele>
        <time>2024-08-22T07:26:26Z</time>
      </trkpt>
      <trkpt lat="44.39425" lon="1.46375">
        <ele>195.6</ele>
        <time>2024-08-22T07:26:32Z</time>
      </trkpt>
      <trkpt lat="44.39425" lon="1.46383">
        <ele>195</ele>
        <time>2024-08-22T07:26:38Z</time>
      </trkpt>
      <trkpt lat="44.39423" lon="1.46389">
        <ele>194.6</ele>
        <time>2024-08-22T07:26:44Z</time>
      </trkpt>
      <trkpt lat="44.3942" lon="1.46394">
        <ele>194.4</ele>
        <time>2024-08-22T07:26:50Z</time>
      </trkpt>
      <trkpt lat="44.39419" lon="1.46401">
        <ele>195.1</ele>
        <time>2024-08-22T07:26:55Z</time>
      </trkpt>
      <trkpt lat="44.39417" lon="1.46408">
        <ele>195.7</ele>
        <time>2024-08-22T07:27:00Z</time>
      </trkpt>
      <trkpt lat="44.39417" lon="1.46415">
        <ele>196.1</ele>
        <time>2024-08-22T07:27:06Z</time>
      </trkpt>
      <trkpt lat="44.39416" lon="1.46421">
        <ele>196</ele>
        <time>2024-08-22T07:27:12Z</time>
      </trkpt>
      <trkpt lat="44.39416" lon="1.46428">
        <ele>196</ele>
        <time>2024-08-22T07:27:16Z</time>
      </trkpt>
      <trkpt lat="44.39415" lon="1.46435">
        <ele>196.8</ele>
        <time>2024-08-22T07:27:20Z</time>
      </trkpt>
      <trkpt lat="44.39412" lon="1.4644">
        <ele>199.2</ele>
        <time>2024-08-22T07:27:27Z</time>
      </trkpt>
      <trkpt lat="44.39408" lon="1.46445">
        <ele>200.2</ele>
        <time>2024-08-22T07:27:32Z</time>
      </trkpt>
      <trkpt lat="44.39406" lon="1.46452">
        <ele>201</ele>
        <time>2024-08-22T07:27:36Z</time>
      </trkpt>
      <trkpt lat="44.39403" lon="1.46457">
        <ele>201.1</ele>
        <time>2024-08-22T07:27:41Z</time>
      </trkpt>
      <trkpt lat="44.39401" lon="1.46464">
        <ele>200.8</ele>
        <time>2024-08-22T07:27:46Z</time>
      </trkpt>
      <trkpt lat="44.39399" lon="1.4647">
        <ele>200.6</ele>
        <time>2024-08-22T07:27:50Z</time>
      </trkpt>
      <trkpt lat="44.39397" lon="1.46477">
        <ele>200.2</ele>
        <time>2024-08-22T07:27:56Z</time>
      </trkpt>
      <trkpt lat="44.39396" lon="1.46485">
        <ele>200.1</ele>
        <time>2024-08-22T07:28:01Z</time>
      </trkpt>
      <trkpt lat="44.39392" lon="1.46489">
        <ele>199.5</ele>
        <time>2024-08-22T07:28:06Z</time>
      </trkpt>
      <trkpt lat="44.3939" lon="1.46496">
        <ele>199</ele>
        <time>2024-08-22T07:28:11Z</time>
      </trkpt>
      <trkpt lat="44.39389" lon="1.46503">
        <ele>198.9</ele>
        <time>2024-08-22T07:28:15Z</time>
      </trkpt>
      <trkpt lat="44.39387" lon="1.4651">
        <ele>199.2</ele>
        <time>2024-08-22T07:28:19Z</time>
      </trkpt>
      <trkpt lat="44.39386" lon="1.46517">
        <ele>200</ele>
        <time>2024-08-22T07:28:24Z</time>
      </trkpt>
      <trkpt lat="44.39382" lon="1.4652">
        <ele>200.6</ele>
        <time>2024-08-22T07:28:30Z</time>
      </trkpt>
      <trkpt lat="44.39379" lon="1.46526">
        <ele>200.1</ele>
        <time>2024-08-22T07:28:34Z</time>
      </trkpt>
      <trkpt lat="44.39376" lon="1.46532">
        <ele>199.5</ele>
        <time>2024-08-22T07:28:38Z</time>
      </trkpt>
      <trkpt lat="44.39373" lon="1.46537">
        <ele>198.9</ele>
        <time>2024-08-22T07:28:42Z</time>
      </trkpt>
      <trkpt lat="44.39371" lon="1.46543">
        <ele>199.2</ele>
        <time>2024-08-22T07:28:46Z</time>
      </trkpt>
      <trkpt lat="44.39369" lon="1.46549">
        <ele>200.1</ele>
        <time>2024-08-22T07:28:51Z</time>
      </trkpt>
      <trkpt lat="44.39367" lon="1.46556">
        <ele>200.9</ele>
        <time>2024-08-22T07:28:56Z</time>
      </trkpt>
      <trkpt lat="44.39366" lon="1.46563">
        <ele>201.8</ele>
        <time>2024-08-22T07:29:01Z</time>
      </trkpt>
      <trkpt lat="44.39365" lon="1.46569">
        <ele>202.4</ele>
        <time>2024-08-22T07:29:05Z</time>
      </trkpt>
      <trkpt lat="44.39364" lon="1.46575">
        <ele>202.9</ele>
        <time>2024-08-22T07:29:09Z</time>
      </trkpt>
      <trkpt lat="44.39361" lon="1.46581">
        <ele>203.3</ele>
        <time>2024-08-22T07:29:14Z</time>
      </trkpt>
      <trkpt lat="44.39359" lon="1.46588">
        <ele>203.6</ele>
        <time>2024-08-22T07:29:19Z</time>
      </trkpt>
      <trkpt lat="44.39359" lon="1.46594">
        <ele>203.6</ele>
        <time>2024-08-22T07:29:24Z</time>
      </trkpt>
      <trkpt lat="44.39358" lon="1.46601">
        <ele>203.5</ele>
        <time>2024-08-22T07:29:28Z</time>
      </trkpt>
      <trkpt lat="44.39359" lon="1.46608">
        <ele>203.2</ele>
        <time>2024-08-22T07:29:32Z</time>
      </trkpt>
      <trkpt lat="44.3936" lon="1.46616">
        <ele>203.3</ele>
        <time>2024-08-22T07:29:36Z</time>
      </trkpt>
      <trkpt lat="44.39362" lon="1.46622">
        <ele>203.9</ele>
        <time>2024-08-22T07:29:40Z</time>
      </trkpt>
      <trkpt lat="44.3936" lon="1.46628">
        <ele>205</ele>
        <time>2024-08-22T07:29:46Z</time>
      </trkpt>
      <trkpt lat="44.3936" lon="1.46635">
        <ele>205.2</ele>
        <time>2024-08-22T07:29:52Z</time>
      </trkpt>
      <trkpt lat="44.39362" lon="1.46641">
        <ele>204.8</ele>
        <time>2024-08-22T07:29:56Z</time>
      </trkpt>
      <trkpt lat="44.39366" lon="1.46647">
        <ele>204.6</ele>
        <time>2024-08-22T07:30:00Z</time>
      </trkpt>
      <trkpt lat="44.39369" lon="1.46652">
        <ele>205</ele>
        <time>2024-08-22T07:30:04Z</time>
      </trkpt>
      <trkpt lat="44.39372" lon="1.46658">
        <ele>206.2</ele>
        <time>2024-08-22T07:30:11Z</time>
      </trkpt>
      <trkpt lat="44.39375" lon="1.46664">
        <ele>207</ele>
        <time>2024-08-22T07:30:16Z</time>
      </trkpt>
      <trkpt lat="44.39378" lon="1.46669">
        <ele>207.8</ele>
        <time>2024-08-22T07:30:20Z</time>
      </trkpt>
      <trkpt lat="44.39381" lon="1.46675">
        <ele>208.6</ele>
        <time>2024-08-22T07:30:24Z</time>
      </trkpt>
      <trkpt lat="44.39384" lon="1.46682">
        <ele>209.1</ele>
        <time>2024-08-22T07:30:29Z</time>
      </trkpt>
      <trkpt lat="44.39385" lon="1.46689">
        <ele>209.3</ele>
        <time>2024-08-22T07:30:33Z</time>
      </trkpt>
      <trkpt lat="44.39386" lon="1.46695">
        <ele>209.5</ele>
        <time>2024-08-22T07:30:37Z</time>
      </trkpt>
      <trkpt lat="44.39386" lon="1.46703">
        <ele>209.5</ele>
        <time>2024-08-22T07:30:43Z</time>
      </trkpt>
      <trkpt lat="44.39389" lon="1.46709">
        <ele>210</ele>
        <time>2024-08-22T07:30:47Z</time>
      </trkpt>
      <trkpt lat="44.39391" lon="1.46716">
        <ele>210.8</ele>
        <time>2024-08-22T07:30:52Z</time>
      </trkpt>
      <trkpt lat="44.39393" lon="1.46723">
        <ele>211.8</ele>
        <time>2024-08-22T07:30:56Z</time>
      </trkpt>
      <trkpt lat="44.39393" lon="1.46729">
        <ele>213</ele>
        <time>2024-08-22T07:31:00Z</time>
      </trkpt>
      <trkpt lat="44.39393" lon="1.46736">
        <ele>214.5</ele>
        <time>2024-08-22T07:31:06Z</time>
      </trkpt>
      <trkpt lat="44.39395" lon="1.46743">
        <ele>215.1</ele>
        <time>2024-08-22T07:31:11Z</time>
      </trkpt>
      <trkpt lat="44.39398" lon="1.46749">
        <ele>215.9</ele>
        <time>2024-08-22T07:31:16Z</time>
      </trkpt>
      <trkpt lat="44.394" lon="1.46755">
        <ele>216.9</ele>
        <time>2024-08-22T07:31:21Z</time>
      </trkpt>
      <trkpt lat="44.39403" lon="1.4676">
        <ele>217.3</ele>
        <time>2024-08-22T07:31:27Z</time>
      </trkpt>
      <trkpt lat="44.39407" lon="1.46766">
        <ele>217.3</ele>
        <time>2024-08-22T07:31:32Z</time>
      </trkpt>
      <trkpt lat="44.39411" lon="1.46768">
        <ele>217.2</ele>
        <time>2024-08-22T07:31:39Z</time>
      </trkpt>
      <trkpt lat="44.39416" lon="1.4677">
        <ele>216</ele>
        <time>2024-08-22T07:31:47Z</time>
      </trkpt>
      <trkpt lat="44.39421" lon="1.46771">
        <ele>215.8</ele>
        <time>2024-08-22T07:31:52Z</time>
      </trkpt>
      <trkpt lat="44.39425" lon="1.46774">
        <ele>216.5</ele>
        <time>2024-08-22T07:31:58Z</time>
      </trkpt>
      <trkpt lat="44.39429" lon="1.46778">
        <ele>217.2</ele>
        <time>2024-08-22T07:32:05Z</time>
      </trkpt>
      <trkpt lat="44.39433" lon="1.46782">
        <ele>217.6</ele>
        <time>2024-08-22T07:32:12Z</time>
      </trkpt>
      <trkpt lat="44.39437" lon="1.46785">
        <ele>218</ele>
        <time>2024-08-22T07:32:16Z</time>
      </trkpt>
      <trkpt lat="44.39443" lon="1.46788">
        <ele>218.8</ele>
        <time>2024-08-22T07:32:20Z</time>
      </trkpt>
      <trkpt lat="44.39447" lon="1.46793">
        <ele>219.1</ele>
        <time>2024-08-22T07:32:25Z</time>
      </trkpt>
      <trkpt lat="44.39451" lon="1.46795">
        <ele>219.3</ele>
        <time>2024-08-22T07:32:30Z</time>
      </trkpt>
      <trkpt lat="44.39455" lon="1.46798">
        <ele>219.1</ele>
        <time>2024-08-22T07:32:37Z</time>
      </trkpt>
      <trkpt lat="44.3946" lon="1.46799">
        <ele>219.2</ele>
        <time>2024-08-22T07:32:42Z</time>
      </trkpt>
      <trkpt lat="44.39463" lon="1.46804">
        <ele>220.6</ele>
        <time>2024-08-22T07:32:52Z</time>
      </trkpt>
      <trkpt lat="44.39469" lon="1.46807">
        <ele>221.8</ele>
        <time>2024-08-22T07:33:02Z</time>
      </trkpt>
      <trkpt lat="44.39474" lon="1.4681">
        <ele>221.7</ele>
        <time>2024-08-22T07:33:06Z</time>
      </trkpt>
      <trkpt lat="44.3948" lon="1.46811">
        <ele>221.1</ele>
        <time>2024-08-22T07:33:10Z</time>
      </trkpt>
      <trkpt lat="44.39485" lon="1.46814">
        <ele>220.6</ele>
        <time>2024-08-22T07:33:14Z</time>
      </trkpt>
      <trkpt lat="44.3949" lon="1.46816">
        <ele>220.1</ele>
        <time>2024-08-22T07:33:17Z</time>
      </trkpt>
      <trkpt lat="44.39495" lon="1.46818">
        <ele>219.9</ele>
        <time>2024-08-22T07:33:21Z</time>
      </trkpt>
      <trkpt lat="44.39499" lon="1.4682">
        <ele>219.3</ele>
        <time>2024-08-22T07:33:26Z</time>
      </trkpt>
      <trkpt lat="44.39505" lon="1.46823">
        <ele>219.3</ele>
        <time>2024-08-22T07:33:31Z</time>
      </trkpt>
      <trkpt lat="44.39509" lon="1.46827">
        <ele>219.5</ele>
        <time>2024-08-22T07:33:35Z</time>
      </trkpt>
      <trkpt lat="44.39513" lon="1.46831">
        <ele>220.3</ele>
        <time>2024-08-22T07:33:40Z</time>
      </trkpt>
      <trkpt lat="44.39517" lon="1.46836">
        <ele>221.6</ele>
        <time>2024-08-22T07:33:45Z</time>
      </trkpt>
      <trkpt lat="44.39519" lon="1.46843">
        <ele>222.8</ele>
        <time>2024-08-22T07:33:51Z</time>
      </trkpt>
      <trkpt lat="44.3952" lon="1.46851">
        <ele>223.4</ele>
        <time>2024-08-22T07:33:58Z</time>
      </trkpt>
      <trkpt lat="44.3952" lon="1.46858">
        <ele>224.1</ele>
        <time>2024-08-22T07:34:03Z</time>
      </trkpt>
      <trkpt lat="44.39521" lon="1.46864">
        <ele>224.6</ele>
        <time>2024-08-22T07:34:09Z</time>
      </trkpt>
      <trkpt lat="44.39523" lon="1.46871">
        <ele>224.4</ele>
        <time>2024-08-22T07:34:16Z</time>
      </trkpt>
      <trkpt lat="44.39524" lon="1.46878">
        <ele>224.5</ele>
        <time>2024-08-22T07:34:21Z</time>
      </trkpt>
      <trkpt lat="44.39524" lon="1.46884">
        <ele>224.3</ele>
        <time>2024-08-22T07:34:25Z</time>
      </trkpt>
      <trkpt lat="44.39525" lon="1.4689">
        <ele>224.4</ele>
        <time>2024-08-22T07:34:29Z</time>
      </trkpt>
      <trkpt lat="44.39526" lon="1.46898">
        <ele>225.1</ele>
        <time>2024-08-22T07:34:33Z</time>
      </trkpt>
      <trkpt lat="44.39526" lon="1.46905">
        <ele>227</ele>
        <time>2024-08-22T07:34:40Z</time>
      </trkpt>
      <trkpt lat="44.39526" lon="1.46912">
        <ele>227.8</ele>
        <time>2024-08-22T07:34:46Z</time>
      </trkpt>
      <trkpt lat="44.39526" lon="1.46919">
        <ele>227.9</ele>
        <time>2024-08-22T07:34:52Z</time>
      </trkpt>
      <trkpt lat="44.39526" lon="1.46926">
        <ele>228.2</ele>
        <time>2024-08-22T07:34:57Z</time>
      </trkpt>
      <trkpt lat="44.39526" lon="1.46934">
        <ele>229.3</ele>
        <time>2024-08-22T07:35:02Z</time>
      </trkpt>
      <trkpt lat="44.39525" lon="1.4694">
        <ele>230.1</ele>
        <time>2024-08-22T07:35:06Z</time>
      </trkpt>
      <trkpt lat="44.39526" lon="1.46947">
        <ele>230.7</ele>
        <time>2024-08-22T07:35:11Z</time>
      </trkpt>
      <trkpt lat="44.39526" lon="1.46955">
        <ele>230</ele>
        <time>2024-08-22T07:35:19Z</time>
      </trkpt>
      <trkpt lat="44.39525" lon="1.46961">
        <ele>230.2</ele>
        <time>2024-08-22T07:35:25Z</time>
      </trkpt>
      <trkpt lat="44.39526" lon="1.46969">
        <ele>230.8</ele>
        <time>2024-08-22T07:35:30Z</time>
      </trkpt>
      <trkpt lat="44.39525" lon="1.46976">
        <ele>231.4</ele>
        <time>2024-08-22T07:35:35Z</time>
      </trkpt>
      <trkpt lat="44.39524" lon="1.46983">
        <ele>231.9</ele>
        <time>2024-08-22T07:35:40Z</time>
      </trkpt>
      <trkpt lat="44.39523" lon="1.46989">
        <ele>232.6</ele>
        <time>2024-08-22T07:35:47Z</time>
      </trkpt>
      <trkpt lat="44.39523" lon="1.46996">
        <ele>233.1</ele>
        <time>2024-08-22T07:35:52Z</time>
      </trkpt>
      <trkpt lat="44.39523" lon="1.47003">
        <ele>233.4</ele>
        <time>2024-08-22T07:35:58Z</time>
      </trkpt>
      <trkpt lat="44.39522" lon="1.4701">
        <ele>233.7</ele>
        <time>2024-08-22T07:36:04Z</time>
      </trkpt>
      <trkpt lat="44.39523" lon="1.47017">
        <ele>234.2</ele>
        <time>2024-08-22T07:36:08Z</time>
      </trkpt>
      <trkpt lat="44.39524" lon="1.47023">
        <ele>234.9</ele>
        <time>2024-08-22T07:36:12Z</time>
      </trkpt>
      <trkpt lat="44.39525" lon="1.4703">
        <ele>235.5</ele>
        <time>2024-08-22T07:36:18Z</time>
      </trkpt>
      <trkpt lat="44.39524" lon="1.47037">
        <ele>236.3</ele>
        <time>2024-08-22T07:36:25Z</time>
      </trkpt>
      <trkpt lat="44.39524" lon="1.47044">
        <ele>237.6</ele>
        <time>2024-08-22T07:36:32Z</time>
      </trkpt>
      <trkpt lat="44.39523" lon="1.47051">
        <ele>238</ele>
        <time>2024-08-22T07:36:37Z</time>
      </trkpt>
      <trkpt lat="44.39522" lon="1.47058">
        <ele>237.5</ele>
        <time>2024-08-22T07:36:42Z</time>
      </trkpt>
      <trkpt lat="44.39523" lon="1.47065">
        <ele>236.4</ele>
        <time>2024-08-22T07:36:47Z</time>
      </trkpt>
      <trkpt lat="44.39524" lon="1.47072">
        <ele>235.9</ele>
        <time>2024-08-22T07:36:52Z</time>
      </trkpt>
      <trkpt lat="44.39523" lon="1.4708">
        <ele>235.8</ele>
        <time>2024-08-22T07:36:58Z</time>
      </trkpt>
      <trkpt lat="44.39522" lon="1.47086">
        <ele>235.9</ele>
        <time>2024-08-22T07:37:03Z</time>
      </trkpt>
      <trkpt lat="44.39522" lon="1.47093">
        <ele>236</ele>
        <time>2024-08-22T07:37:07Z</time>
      </trkpt>
      <trkpt lat="44.39521" lon="1.47099">
        <ele>237.2</ele>
        <time>2024-08-22T07:37:12Z</time>
      </trkpt>
      <trkpt lat="44.39517" lon="1.47104">
        <ele>238.2</ele>
        <time>2024-08-22T07:37:18Z</time>
      </trkpt>
      <trkpt lat="44.39514" lon="1.47109">
        <ele>238.9</ele>
        <time>2024-08-22T07:37:23Z</time>
      </trkpt>
      <trkpt lat="44.39511" lon="1.47114">
        <ele>239.7</ele>
        <time>2024-08-22T07:37:28Z</time>
      </trkpt>
      <trkpt lat="44.39508" lon="1.47119">
        <ele>240.5</ele>
        <time>2024-08-22T07:37:32Z</time>
      </trkpt>
      <trkpt lat="44.39504" lon="1.47123">
        <ele>241.4</ele>
        <time>2024-08-22T07:37:36Z</time>
      </trkpt>
      <trkpt lat="44.39499" lon="1.47126">
        <ele>242.6</ele>
        <time>2024-08-22T07:37:42Z</time>
      </trkpt>
      <trkpt lat="44.39495" lon="1.47129">
        <ele>243.4</ele>
        <time>2024-08-22T07:37:47Z</time>
      </trkpt>
      <trkpt lat="44.39491" lon="1.47132">
        <ele>244.5</ele>
        <time>2024-08-22T07:37:52Z</time>
      </trkpt>
      <trkpt lat="44.39488" lon="1.47136">
        <ele>245.5</ele>
        <time>2024-08-22T07:37:56Z</time>
      </trkpt>
      <trkpt lat="44.39483" lon="1.47139">
        <ele>246.8</ele>
        <time>2024-08-22T07:38:02Z</time>
      </trkpt>
      <trkpt lat="44.39478" lon="1.47143">
        <ele>247.9</ele>
        <time>2024-08-22T07:38:08Z</time>
      </trkpt>
      <trkpt lat="44.39474" lon="1.47146">
        <ele>248.3</ele>
        <time>2024-08-22T07:38:14Z</time>
      </trkpt>
      <trkpt lat="44.39469" lon="1.47149">
        <ele>249</ele>
        <time>2024-08-22T07:38:20Z</time>
      </trkpt>
      <trkpt lat="44.39464" lon="1.47153">
        <ele>248.7</ele>
        <time>2024-08-22T07:38:26Z</time>
      </trkpt>
      <trkpt lat="44.3946" lon="1.47157">
        <ele>247.6</ele>
        <time>2024-08-22T07:38:31Z</time>
      </trkpt>
      <trkpt lat="44.39457" lon="1.47163">
        <ele>246.6</ele>
        <time>2024-08-22T07:38:36Z</time>
      </trkpt>
      <trkpt lat="44.39454" lon="1.47169">
        <ele>246.9</ele>
        <time>2024-08-22T07:38:41Z</time>
      </trkpt>
      <trkpt lat="44.39453" lon="1.47176">
        <ele>247.2</ele>
        <time>2024-08-22T07:38:45Z</time>
      </trkpt>
      <trkpt lat="44.39453" lon="1.47183">
        <ele>247.5</ele>
        <time>2024-08-22T07:38:49Z</time>
      </trkpt>
      <trkpt lat="44.39454" lon="1.4719">
        <ele>247.4</ele>
        <time>2024-08-22T07:38:53Z</time>
      </trkpt>
      <trkpt lat="44.39457" lon="1.47195">
        <ele>247.2</ele>
        <time>2024-08-22T07:38:57Z</time>
      </trkpt>
      <trkpt lat="44.39462" lon="1.47197">
        <ele>247</ele>
        <time>2024-08-22T07:39:02Z</time>
      </trkpt>
      <trkpt lat="44.39467" lon="1.47199">
        <ele>247.8</ele>
        <time>2024-08-22T07:39:08Z</time>
      </trkpt>
      <trkpt lat="44.39472" lon="1.47199">
        <ele>249.7</ele>
        <time>2024-08-22T07:39:14Z</time>
      </trkpt>
      <trkpt lat="44.39477" lon="1.47197">
        <ele>251.1</ele>
        <time>2024-08-22T07:39:20Z</time>
      </trkpt>
      <trkpt lat="44.39482" lon="1.47195">
        <ele>251.2</ele>
        <time>2024-08-22T07:39:26Z</time>
      </trkpt>
      <trkpt lat="44.39486" lon="1.47193">
        <ele>250.8</ele>
        <time>2024-08-22T07:39:30Z</time>
      </trkpt>
      <trkpt lat="44.39491" lon="1.47191">
        <ele>250.2</ele>
        <time>2024-08-22T07:39:34Z</time>
      </trkpt>
      <trkpt lat="44.39495" lon="1.47187">
        <ele>249.8</ele>
        <time>2024-08-22T07:39:39Z</time>
      </trkpt>
      <trkpt lat="44.39499" lon="1.47184">
        <ele>249.9</ele>
        <time>2024-08-22T07:39:45Z</time>
      </trkpt>
      <trkpt lat="44.39504" lon="1.47182">
        <ele>250.8</ele>
        <time>2024-08-22T07:39:50Z</time>
      </trkpt>
      <trkpt lat="44.39508" lon="1.47178">
        <ele>251.5</ele>
        <time>2024-08-22T07:39:56Z</time>
      </trkpt>
      <trkpt lat="44.39513" lon="1.47177">
        <ele>251.6</ele>
        <time>2024-08-22T07:40:02Z</time>
      </trkpt>
      <trkpt lat="44.39518" lon="1.47174">
        <ele>251.5</ele>
        <time>2024-08-22T07:40:07Z</time>
      </trkpt>
      <trkpt lat="44.39522" lon="1.47172">
        <ele>251.2</ele>
        <time>2024-08-22T07:40:11Z</time>
      </trkpt>
      <trkpt lat="44.39527" lon="1.47169">
        <ele>250.9</ele>
        <time>2024-08-22T07:40:16Z</time>
      </trkpt>
      <trkpt lat="44.39531" lon="1.47166">
        <ele>251.5</ele>
        <time>2024-08-22T07:40:21Z</time>
      </trkpt>
      <trkpt lat="44.39535" lon="1.47164">
        <ele>252.1</ele>
        <time>2024-08-22T07:40:25Z</time>
      </trkpt>
      <trkpt lat="44.39539" lon="1.47161">
        <ele>253.5</ele>
        <time>2024-08-22T07:40:30Z</time>
      </trkpt>
      <trkpt lat="44.39544" lon="1.47158">
        <ele>255.1</ele>
        <time>2024-08-22T07:40:36Z</time>
      </trkpt>
      <trkpt lat="44.39548" lon="1.47154">
        <ele>255.5</ele>
        <time>2024-08-22T07:40:42Z</time>
      </trkpt>
      <trkpt lat="44.39552" lon="1.47151">
        <ele>255.7</ele>
        <time>2024-08-22T07:40:47Z</time>
      </trkpt>
      <trkpt lat="44.39557" lon="1.47149">
        <ele>256.1</ele>
        <time>2024-08-22T07:40:52Z</time>
      </trkpt>
      <trkpt lat="44.39561" lon="1.47146">
        <ele>256.7</ele>
        <time>2024-08-22T07:40:57Z</time>
      </trkpt>
      <trkpt lat="44.39564" lon="1.47141">
        <ele>257.5</ele>
        <time>2024-08-22T07:41:02Z</time>
      </trkpt>
      <trkpt lat="44.39567" lon="1.47136">
        <ele>258.9</ele>
        <time>2024-08-22T07:41:07Z</time>
      </trkpt>
      <trkpt lat="44.39571" lon="1.47133">
        <ele>260.8</ele>
        <time>2024-08-22T07:41:12Z</time>
      </trkpt>
      <trkpt lat="44.39576" lon="1.47131">
        <ele>262.5</ele>
        <time>2024-08-22T07:41:17Z</time>
      </trkpt>
      <trkpt lat="44.39579" lon="1.47127">
        <ele>263.4</ele>
        <time>2024-08-22T07:41:22Z</time>
      </trkpt>
      <trkpt lat="44.39583" lon="1.47123">
        <ele>263.7</ele>
        <time>2024-08-22T07:41:27Z</time>
      </trkpt>
      <trkpt lat="44.39588" lon="1.47119">
        <ele>263.7</ele>
        <time>2024-08-22T07:41:33Z</time>
      </trkpt>
      <trkpt lat="44.39591" lon="1.47115">
        <ele>264</ele>
        <time>2024-08-22T07:41:39Z</time>
      </trkpt>
      <trkpt lat="44.39595" lon="1.4711">
        <ele>264.9</ele>
        <time>2024-08-22T07:41:45Z</time>
      </trkpt>
      <trkpt lat="44.39599" lon="1.47106">
        <ele>265.8</ele>
        <time>2024-08-22T07:41:51Z</time>
      </trkpt>
      <trkpt lat="44.39603" lon="1.47103">
        <ele>267.3</ele>
        <time>2024-08-22T07:41:58Z</time>
      </trkpt>
      <trkpt lat="44.39607" lon="1.47099">
        <ele>267.9</ele>
        <time>2024-08-22T07:42:04Z</time>
      </trkpt>
      <trkpt lat="44.39611" lon="1.47094">
        <ele>268.3</ele>
        <time>2024-08-22T07:42:10Z</time>
      </trkpt>
      <trkpt lat="44.39616" lon="1.47091">
        <ele>268.3</ele>
        <time>2024-08-22T07:42:16Z</time>
      </trkpt>
      <trkpt lat="44.3962" lon="1.47087">
        <ele>268.3</ele>
        <time>2024-08-22T07:42:21Z</time>
      </trkpt>
      <trkpt lat="44.39623" lon="1.47082">
        <ele>268.4</ele>
        <time>2024-08-22T07:42:26Z</time>
      </trkpt>
      <trkpt lat="44.39627" lon="1.47079">
        <ele>268.7</ele>
        <time>2024-08-22T07:42:35Z</time>
      </trkpt>
      <trkpt lat="44.39632" lon="1.47081">
        <ele>270.7</ele>
        <time>2024-08-22T07:42:48Z</time>
      </trkpt>
      <trkpt lat="44.39636" lon="1.47079">
        <ele>276.2</ele>
        <time>2024-08-22T07:43:23Z</time>
      </trkpt>
      <trkpt lat="44.39632" lon="1.47078">
        <ele>275</ele>
        <time>2024-08-22T07:44:51Z</time>
      </trkpt>
      <trkpt lat="44.39627" lon="1.4708">
        <ele>270.5</ele>
        <time>2024-08-22T07:46:42Z</time>
      </trkpt>
      <trkpt lat="44.39632" lon="1.47082">
        <ele>273.9</ele>
        <time>2024-08-22T07:48:07Z</time>
      </trkpt>
      <trkpt lat="44.39632" lon="1.47089">
        <ele>274.2</ele>
        <time>2024-08-22T07:48:15Z</time>
      </trkpt>
      <trkpt lat="44.3963" lon="1.47095">
        <ele>273.9</ele>
        <time>2024-08-22T07:49:00Z</time>
      </trkpt>
      <trkpt lat="44.39629" lon="1.47102">
        <ele>274.5</ele>
        <time>2024-08-22T07:49:04Z</time>
      </trkpt>
      <trkpt lat="44.39629" lon="1.47108">
        <ele>275.3</ele>
        <time>2024-08-22T07:49:09Z</time>
      </trkpt>
      <trkpt lat="44.39628" lon="1.47115">
        <ele>276.2</ele>
        <time>2024-08-22T07:49:17Z</time>
      </trkpt>
      <trkpt lat="44.39625" lon="1.47121">
        <ele>276.1</ele>
        <time>2024-08-22T07:49:23Z</time>
      </trkpt>
      <trkpt lat="44.39622" lon="1.47127">
        <ele>275.6</ele>
        <time>2024-08-22T07:49:28Z</time>
      </trkpt>
      <trkpt lat="44.3962" lon="1.47133">
        <ele>275.4</ele>
        <time>2024-08-22T07:49:33Z</time>
      </trkpt>
      <trkpt lat="44.39617" lon="1.47139">
        <ele>275.3</ele>
        <time>2024-08-22T07:49:38Z</time>
      </trkpt>
      <trkpt lat="44.39615" lon="1.47145">
        <ele>275.3</ele>
        <time>2024-08-22T07:49:43Z</time>
      </trkpt>
      <trkpt lat="44.39613" lon="1.47151">
        <ele>275.5</ele>
        <time>2024-08-22T07:49:47Z</time>
      </trkpt>
      <trkpt lat="44.39612" lon="1.47157">
        <ele>275.8</ele>
        <time>2024-08-22T07:49:51Z</time>
      </trkpt>
      <trkpt lat="44.39609" lon="1.47163">
        <ele>276.5</ele>
        <time>2024-08-22T07:49:55Z</time>
      </trkpt>
      <trkpt lat="44.39606" lon="1.47169">
        <ele>276.6</ele>
        <time>2024-08-22T07:50:01Z</time>
      </trkpt>
      <trkpt lat="44.39603" lon="1.47175">
        <ele>276.2</ele>
        <time>2024-08-22T07:50:06Z</time>
      </trkpt>
      <trkpt lat="44.396" lon="1.47179">
        <ele>275.5</ele>
        <time>2024-08-22T07:50:11Z</time>
      </trkpt>
      <trkpt lat="44.39596" lon="1.47183">
        <ele>274.3</ele>
        <time>2024-08-22T07:50:16Z</time>
      </trkpt>
      <trkpt lat="44.39593" lon="1.47189">
        <ele>273.8</ele>
        <time>2024-08-22T07:50:20Z</time>
      </trkpt>
      <trkpt lat="44.3959" lon="1.47194">
        <ele>273.6</ele>
        <time>2024-08-22T07:50:24Z</time>
      </trkpt>
      <trkpt lat="44.39588" lon="1.47199">
        <ele>273.7</ele>
        <time>2024-08-22T07:50:28Z</time>
      </trkpt>
      <trkpt lat="44.39585" lon="1.47205">
        <ele>273.8</ele>
        <time>2024-08-22T07:50:32Z</time>
      </trkpt>
      <trkpt lat="44.39582" lon="1.4721">
        <ele>273.8</ele>
        <time>2024-08-22T07:50:36Z</time>
      </trkpt>
      <trkpt lat="44.39579" lon="1.47215">
        <ele>273.6</ele>
        <time>2024-08-22T07:50:40Z</time>
      </trkpt>
      <trkpt lat="44.39575" lon="1.4722">
        <ele>272.4</ele>
        <time>2024-08-22T07:50:45Z</time>
      </trkpt>
      <trkpt lat="44.39572" lon="1.47226">
        <ele>271.2</ele>
        <time>2024-08-22T07:50:50Z</time>
      </trkpt>
      <trkpt lat="44.3957" lon="1.47232">
        <ele>270.6</ele>
        <time>2024-08-22T07:50:54Z</time>
      </trkpt>
      <trkpt lat="44.39568" lon="1.47237">
        <ele>270.7</ele>
        <time>2024-08-22T07:50:58Z</time>
      </trkpt>
      <trkpt lat="44.39565" lon="1.47243">
        <ele>271.2</ele>
        <time>2024-08-22T07:51:02Z</time>
      </trkpt>
      <trkpt lat="44.39562" lon="1.47249">
        <ele>271.4</ele>
        <time>2024-08-22T07:51:06Z</time>
      </trkpt>
      <trkpt lat="44.39559" lon="1.47254">
        <ele>271.6</ele>
        <time>2024-08-22T07:51:10Z</time>
      </trkpt>
      <trkpt lat="44.39556" lon="1.4726">
        <ele>271.8</ele>
        <time>2024-08-22T07:51:15Z</time>
      </trkpt>
      <trkpt lat="44.39553" lon="1.47265">
        <ele>272.3</ele>
        <time>2024-08-22T07:51:20Z</time>
      </trkpt>
      <trkpt lat="44.3955" lon="1.47271">
        <ele>272.2</ele>
        <time>2024-08-22T07:51:24Z</time>
      </trkpt>
      <trkpt lat="44.39548" lon="1.47276">
        <ele>272.2</ele>
        <time>2024-08-22T07:51:28Z</time>
      </trkpt>
      <trkpt lat="44.39546" lon="1.47282">
        <ele>272.4</ele>
        <time>2024-08-22T07:51:32Z</time>
      </trkpt>
      <trkpt lat="44.39542" lon="1.47288">
        <ele>272.5</ele>
        <time>2024-08-22T07:51:37Z</time>
      </trkpt>
      <trkpt lat="44.39539" lon="1.47294">
        <ele>272.7</ele>
        <time>2024-08-22T07:51:42Z</time>
      </trkpt>
      <trkpt lat="44.39536" lon="1.47299">
        <ele>273.2</ele>
        <time>2024-08-22T07:51:46Z</time>
      </trkpt>
      <trkpt lat="44.39533" lon="1.47304">
        <ele>273.6</ele>
        <time>2024-08-22T07:51:50Z</time>
      </trkpt>
      <trkpt lat="44.39529" lon="1.47309">
        <ele>274.3</ele>
        <time>2024-08-22T07:51:54Z</time>
      </trkpt>
      <trkpt lat="44.39526" lon="1.47315">
        <ele>274.7</ele>
        <time>2024-08-22T07:51:59Z</time>
      </trkpt>
      <trkpt lat="44.39522" lon="1.47319">
        <ele>274.9</ele>
        <time>2024-08-22T07:52:04Z</time>
      </trkpt>
      <trkpt lat="44.39519" lon="1.47325">
        <ele>274.8</ele>
        <time>2024-08-22T07:52:10Z</time>
      </trkpt>
      <trkpt lat="44.39514" lon="1.47329">
        <ele>274.2</ele>
        <time>2024-08-22T07:52:15Z</time>
      </trkpt>
      <trkpt lat="44.3951" lon="1.47334">
        <ele>273.5</ele>
        <time>2024-08-22T07:52:20Z</time>
      </trkpt>
      <trkpt lat="44.39506" lon="1.47337">
        <ele>273.2</ele>
        <time>2024-08-22T07:52:24Z</time>
      </trkpt>
      <trkpt lat="44.39501" lon="1.47341">
        <ele>273.2</ele>
        <time>2024-08-22T07:52:29Z</time>
      </trkpt>
      <trkpt lat="44.39498" lon="1.47346">
        <ele>273.8</ele>
        <time>2024-08-22T07:52:33Z</time>
      </trkpt>
      <trkpt lat="44.39495" lon="1.47352">
        <ele>274.6</ele>
        <time>2024-08-22T07:52:37Z</time>
      </trkpt>
      <trkpt lat="44.39491" lon="1.47357">
        <ele>275.2</ele>
        <time>2024-08-22T07:52:41Z</time>
      </trkpt>
      <trkpt lat="44.39488" lon="1.47362">
        <ele>275.3</ele>
        <time>2024-08-22T07:52:45Z</time>
      </trkpt>
      <trkpt lat="44.39485" lon="1.47368">
        <ele>275.8</ele>
        <time>2024-08-22T07:52:50Z</time>
      </trkpt>
      <trkpt lat="44.39482" lon="1.47374">
        <ele>275.9</ele>
        <time>2024-08-22T07:52:54Z</time>
      </trkpt>
      <trkpt lat="44.39478" lon="1.47379">
        <ele>276.1</ele>
        <time>2024-08-22T07:52:59Z</time>
      </trkpt>
      <trkpt lat="44.39475" lon="1.47385">
        <ele>276.5</ele>
        <time>2024-08-22T07:53:03Z</time>
      </trkpt>
      <trkpt lat="44.39473" lon="1.4739">
        <ele>277</ele>
        <time>2024-08-22T07:53:07Z</time>
      </trkpt>
      <trkpt lat="44.3947" lon="1.47395">
        <ele>277.5</ele>
        <time>2024-08-22T07:53:12Z</time>
      </trkpt>
      <trkpt lat="44.39466" lon="1.474">
        <ele>277.7</ele>
        <time>2024-08-22T07:53:17Z</time>
      </trkpt>
      <trkpt lat="44.39463" lon="1.47405">
        <ele>277.2</ele>
        <time>2024-08-22T07:53:21Z</time>
      </trkpt>
      <trkpt lat="44.3946" lon="1.47411">
        <ele>276.6</ele>
        <time>2024-08-22T07:53:25Z</time>
      </trkpt>
      <trkpt lat="44.39459" lon="1.47417">
        <ele>276</ele>
        <time>2024-08-22T07:53:29Z</time>
      </trkpt>
      <trkpt lat="44.39458" lon="1.47425">
        <ele>275.5</ele>
        <time>2024-08-22T07:53:33Z</time>
      </trkpt>
      <trkpt lat="44.39455" lon="1.4743">
        <ele>275</ele>
        <time>2024-08-22T07:53:37Z</time>
      </trkpt>
      <trkpt lat="44.39452" lon="1.47436">
        <ele>274.9</ele>
        <time>2024-08-22T07:53:42Z</time>
      </trkpt>
      <trkpt lat="44.39449" lon="1.47441">
        <ele>274.9</ele>
        <time>2024-08-22T07:53:47Z</time>
      </trkpt>
      <trkpt lat="44.39446" lon="1.47448">
        <ele>275.4</ele>
        <time>2024-08-22T07:53:52Z</time>
      </trkpt>
      <trkpt lat="44.39444" lon="1.47454">
        <ele>276.1</ele>
        <time>2024-08-22T07:53:56Z</time>
      </trkpt>
      <trkpt lat="44.39441" lon="1.4746">
        <ele>276.7</ele>
        <time>2024-08-22T07:54:01Z</time>
      </trkpt>
      <trkpt lat="44.39438" lon="1.47466">
        <ele>276.1</ele>
        <time>2024-08-22T07:54:06Z</time>
      </trkpt>
      <trkpt lat="44.39434" lon="1.47472">
        <ele>275.6</ele>
        <time>2024-08-22T07:54:10Z</time>
      </trkpt>
      <trkpt lat="44.39432" lon="1.47478">
        <ele>275.2</ele>
        <time>2024-08-22T07:54:14Z</time>
      </trkpt>
      <trkpt lat="44.3943" lon="1.47485">
        <ele>275.1</ele>
        <time>2024-08-22T07:54:19Z</time>
      </trkpt>
      <trkpt lat="44.39429" lon="1.47492">
        <ele>275.3</ele>
        <time>2024-08-22T07:54:24Z</time>
      </trkpt>
      <trkpt lat="44.39431" lon="1.47499">
        <ele>276</ele>
        <time>2024-08-22T07:54:29Z</time>
      </trkpt>
      <trkpt lat="44.39433" lon="1.47505">
        <ele>277.7</ele>
        <time>2024-08-22T07:54:35Z</time>
      </trkpt>
      <trkpt lat="44.39436" lon="1.4751">
        <ele>279.1</ele>
        <time>2024-08-22T07:54:40Z</time>
      </trkpt>
      <trkpt lat="44.39439" lon="1.47516">
        <ele>279.9</ele>
        <time>2024-08-22T07:54:46Z</time>
      </trkpt>
      <trkpt lat="44.39442" lon="1.47521">
        <ele>280</ele>
        <time>2024-08-22T07:54:50Z</time>
      </trkpt>
      <trkpt lat="44.39445" lon="1.47526">
        <ele>280</ele>
        <time>2024-08-22T07:54:54Z</time>
      </trkpt>
      <trkpt lat="44.39447" lon="1.47531">
        <ele>280.1</ele>
        <time>2024-08-22T07:54:58Z</time>
      </trkpt>
      <trkpt lat="44.39448" lon="1.47538">
        <ele>279.9</ele>
        <time>2024-08-22T07:55:03Z</time>
      </trkpt>
      <trkpt lat="44.39445" lon="1.47545">
        <ele>279.5</ele>
        <time>2024-08-22T07:55:08Z</time>
      </trkpt>
      <trkpt lat="44.39443" lon="1.47551">
        <ele>279.7</ele>
        <time>2024-08-22T07:55:12Z</time>
      </trkpt>
      <trkpt lat="44.39439" lon="1.47557">
        <ele>279.8</ele>
        <time>2024-08-22T07:55:16Z</time>
      </trkpt>
      <trkpt lat="44.39436" lon="1.47562">
        <ele>279.5</ele>
        <time>2024-08-22T07:55:21Z</time>
      </trkpt>
      <trkpt lat="44.39434" lon="1.47568">
        <ele>279.2</ele>
        <time>2024-08-22T07:55:25Z</time>
      </trkpt>
      <trkpt lat="44.3943" lon="1.47574">
        <ele>278.8</ele>
        <time>2024-08-22T07:55:30Z</time>
      </trkpt>
      <trkpt lat="44.39428" lon="1.4758">
        <ele>278.8</ele>
        <time>2024-08-22T07:55:34Z</time>
      </trkpt>
      <trkpt lat="44.39426" lon="1.47587">
        <ele>278.9</ele>
        <time>2024-08-22T07:55:38Z</time>
      </trkpt>
      <trkpt lat="44.39424" lon="1.47592">
        <ele>279.2</ele>
        <time>2024-08-22T07:55:42Z</time>
      </trkpt>
      <trkpt lat="44.39421" lon="1.47598">
        <ele>279.2</ele>
        <time>2024-08-22T07:55:46Z</time>
      </trkpt>
      <trkpt lat="44.3942" lon="1.47605">
        <ele>278.5</ele>
        <time>2024-08-22T07:55:51Z</time>
      </trkpt>
      <trkpt lat="44.39419" lon="1.47612">
        <ele>278.6</ele>
        <time>2024-08-22T07:55:56Z</time>
      </trkpt>
      <trkpt lat="44.39418" lon="1.47618">
        <ele>279.5</ele>
        <time>2024-08-22T07:56:00Z</time>
      </trkpt>
      <trkpt lat="44.39416" lon="1.47624">
        <ele>280.3</ele>
        <time>2024-08-22T07:56:04Z</time>
      </trkpt>
      <trkpt lat="44.39415" lon="1.47631">
        <ele>280.5</ele>
        <time>2024-08-22T07:56:09Z</time>
      </trkpt>
      <trkpt lat="44.39415" lon="1.47639">
        <ele>280.2</ele>
        <time>2024-08-22T07:56:14Z</time>
      </trkpt>
      <trkpt lat="44.39415" lon="1.47645">
        <ele>280.5</ele>
        <time>2024-08-22T07:56:18Z</time>
      </trkpt>
      <trkpt lat="44.39415" lon="1.47651">
        <ele>281.3</ele>
        <time>2024-08-22T07:56:22Z</time>
      </trkpt>
      <trkpt lat="44.39413" lon="1.47659">
        <ele>282.3</ele>
        <time>2024-08-22T07:56:27Z</time>
      </trkpt>
      <trkpt lat="44.3941" lon="1.47665">
        <ele>283</ele>
        <time>2024-08-22T07:56:31Z</time>
      </trkpt>
      <trkpt lat="44.39408" lon="1.47671">
        <ele>283.8</ele>
        <time>2024-08-22T07:56:35Z</time>
      </trkpt>
      <trkpt lat="44.39405" lon="1.47677">
        <ele>284.6</ele>
        <time>2024-08-22T07:56:39Z</time>
      </trkpt>
      <trkpt lat="44.39403" lon="1.47683">
        <ele>285.4</ele>
        <time>2024-08-22T07:56:44Z</time>
      </trkpt>
      <trkpt lat="44.39402" lon="1.4769">
        <ele>285.7</ele>
        <time>2024-08-22T07:56:49Z</time>
      </trkpt>
      <trkpt lat="44.39401" lon="1.47696">
        <ele>286.2</ele>
        <time>2024-08-22T07:56:53Z</time>
      </trkpt>
      <trkpt lat="44.39398" lon="1.47703">
        <ele>287.4</ele>
        <time>2024-08-22T07:56:58Z</time>
      </trkpt>
      <trkpt lat="44.39398" lon="1.47711">
        <ele>288.3</ele>
        <time>2024-08-22T07:57:03Z</time>
      </trkpt>
      <trkpt lat="44.39395" lon="1.47716">
        <ele>288.6</ele>
        <time>2024-08-22T07:57:08Z</time>
      </trkpt>
      <trkpt lat="44.39392" lon="1.47722">
        <ele>288.7</ele>
        <time>2024-08-22T07:57:12Z</time>
      </trkpt>
      <trkpt lat="44.39389" lon="1.47727">
        <ele>289.1</ele>
        <time>2024-08-22T07:57:16Z</time>
      </trkpt>
      <trkpt lat="44.39386" lon="1.47733">
        <ele>289.7</ele>
        <time>2024-08-22T07:57:21Z</time>
      </trkpt>
      <trkpt lat="44.39383" lon="1.4774">
        <ele>290.4</ele>
        <time>2024-08-22T07:57:26Z</time>
      </trkpt>
      <trkpt lat="44.3938" lon="1.47744">
        <ele>290.8</ele>
        <time>2024-08-22T07:57:30Z</time>
      </trkpt>
      <trkpt lat="44.39376" lon="1.47749">
        <ele>291.2</ele>
        <time>2024-08-22T07:57:34Z</time>
      </trkpt>
      <trkpt lat="44.39373" lon="1.47755">
        <ele>291.5</ele>
        <time>2024-08-22T07:57:39Z</time>
      </trkpt>
      <trkpt lat="44.39369" lon="1.47759">
        <ele>291.7</ele>
        <time>2024-08-22T07:57:43Z</time>
      </trkpt>
      <trkpt lat="44.39365" lon="1.47763">
        <ele>291.3</ele>
        <time>2024-08-22T07:57:47Z</time>
      </trkpt>
      <trkpt lat="44.39362" lon="1.47769">
        <ele>290.7</ele>
        <time>2024-08-22T07:57:51Z</time>
      </trkpt>
      <trkpt lat="44.39359" lon="1.47774">
        <ele>290.2</ele>
        <time>2024-08-22T07:57:55Z</time>
      </trkpt>
      <trkpt lat="44.39355" lon="1.4778">
        <ele>289.6</ele>
        <time>2024-08-22T07:58:00Z</time>
      </trkpt>
      <trkpt lat="44.39351" lon="1.47785">
        <ele>288.7</ele>
        <time>2024-08-22T07:58:04Z</time>
      </trkpt>
      <trkpt lat="44.39347" lon="1.47791">
        <ele>288</ele>
        <time>2024-08-22T07:58:08Z</time>
      </trkpt>
      <trkpt lat="44.39344" lon="1.47797">
        <ele>287.1</ele>
        <time>2024-08-22T07:58:12Z</time>
      </trkpt>
      <trkpt lat="44.39341" lon="1.47803">
        <ele>286.1</ele>
        <time>2024-08-22T07:58:17Z</time>
      </trkpt>
      <trkpt lat="44.39337" lon="1.47807">
        <ele>285.6</ele>
        <time>2024-08-22T07:58:21Z</time>
      </trkpt>
      <trkpt lat="44.39334" lon="1.47813">
        <ele>286</ele>
        <time>2024-08-22T07:58:26Z</time>
      </trkpt>
      <trkpt lat="44.39332" lon="1.4782">
        <ele>286.2</ele>
        <time>2024-08-22T07:58:30Z</time>
      </trkpt>
      <trkpt lat="44.39328" lon="1.47826">
        <ele>286.6</ele>
        <time>2024-08-22T07:58:34Z</time>
      </trkpt>
      <trkpt lat="44.39325" lon="1.4783">
        <ele>287</ele>
        <time>2024-08-22T07:58:38Z</time>
      </trkpt>
      <trkpt lat="44.39321" lon="1.47835">
        <ele>287.2</ele>
        <time>2024-08-22T07:58:42Z</time>
      </trkpt>
      <trkpt lat="44.39318" lon="1.47839">
        <ele>287.4</ele>
        <time>2024-08-22T07:58:47Z</time>
      </trkpt>
      <trkpt lat="44.39313" lon="1.47844">
        <ele>287.1</ele>
        <time>2024-08-22T07:58:51Z</time>
      </trkpt>
      <trkpt lat="44.3931" lon="1.47849">
        <ele>286.7</ele>
        <time>2024-08-22T07:58:55Z</time>
      </trkpt>
      <trkpt lat="44.39306" lon="1.47854">
        <ele>285.9</ele>
        <time>2024-08-22T07:59:00Z</time>
      </trkpt>
      <trkpt lat="44.39302" lon="1.4786">
        <ele>285.3</ele>
        <time>2024-08-22T07:59:04Z</time>
      </trkpt>
      <trkpt lat="44.39298" lon="1.47865">
        <ele>285</ele>
        <time>2024-08-22T07:59:09Z</time>
      </trkpt>
      <trkpt lat="44.39295" lon="1.4787">
        <ele>285.1</ele>
        <time>2024-08-22T07:59:13Z</time>
      </trkpt>
      <trkpt lat="44.39292" lon="1.47877">
        <ele>285.8</ele>
        <time>2024-08-22T07:59:18Z</time>
      </trkpt>
      <trkpt lat="44.39288" lon="1.47882">
        <ele>286.4</ele>
        <time>2024-08-22T07:59:23Z</time>
      </trkpt>
      <trkpt lat="44.39284" lon="1.47888">
        <ele>287.1</ele>
        <time>2024-08-22T07:59:27Z</time>
      </trkpt>
      <trkpt lat="44.39281" lon="1.47894">
        <ele>287.9</ele>
        <time>2024-08-22T07:59:31Z</time>
      </trkpt>
      <trkpt lat="44.39278" lon="1.47899">
        <ele>288.1</ele>
        <time>2024-08-22T07:59:35Z</time>
      </trkpt>
      <trkpt lat="44.39274" lon="1.47903">
        <ele>288.1</ele>
        <time>2024-08-22T07:59:39Z</time>
      </trkpt>
      <trkpt lat="44.39269" lon="1.47908">
        <ele>288.1</ele>
        <time>2024-08-22T07:59:43Z</time>
      </trkpt>
      <trkpt lat="44.39266" lon="1.47912">
        <ele>287.9</ele>
        <time>2024-08-22T07:59:47Z</time>
      </trkpt>
      <trkpt lat="44.39263" lon="1.47917">
        <ele>287.5</ele>
        <time>2024-08-22T07:59:52Z</time>
      </trkpt>
      <trkpt lat="44.39258" lon="1.47921">
        <ele>287</ele>
        <time>2024-08-22T07:59:56Z</time>
      </trkpt>
      <trkpt lat="44.39255" lon="1.47926">
        <ele>286.3</ele>
        <time>2024-08-22T08:00:01Z</time>
      </trkpt>
      <trkpt lat="44.39251" lon="1.4793">
        <ele>285.6</ele>
        <time>2024-08-22T08:00:05Z</time>
      </trkpt>
      <trkpt lat="44.39247" lon="1.47936">
        <ele>284.3</ele>
        <time>2024-08-22T08:00:10Z</time>
      </trkpt>
      <trkpt lat="44.39244" lon="1.47941">
        <ele>283.4</ele>
        <time>2024-08-22T08:00:14Z</time>
      </trkpt>
      <trkpt lat="44.39241" lon="1.47947">
        <ele>282.8</ele>
        <time>2024-08-22T08:00:18Z</time>
      </trkpt>
      <trkpt lat="44.39237" lon="1.47952">
        <ele>282.9</ele>
        <time>2024-08-22T08:00:23Z</time>
      </trkpt>
      <trkpt lat="44.39233" lon="1.47957">
        <ele>283.5</ele>
        <time>2024-08-22T08:00:28Z</time>
      </trkpt>
      <trkpt lat="44.39229" lon="1.47961">
        <ele>284.1</ele>
        <time>2024-08-22T08:00:32Z</time>
      </trkpt>
      <trkpt lat="44.39225" lon="1.47966">
        <ele>284.5</ele>
        <time>2024-08-22T08:00:36Z</time>
      </trkpt>
      <trkpt lat="44.39222" lon="1.47971">
        <ele>284.6</ele>
        <time>2024-08-22T08:00:40Z</time>
      </trkpt>
      <trkpt lat="44.39218" lon="1.47976">
        <ele>283.9</ele>
        <time>2024-08-22T08:00:45Z</time>
      </trkpt>
      <trkpt lat="44.39215" lon="1.4798">
        <ele>283.2</ele>
        <time>2024-08-22T08:00:49Z</time>
      </trkpt>
      <trkpt lat="44.39211" lon="1.47984">
        <ele>282.7</ele>
        <time>2024-08-22T08:00:53Z</time>
      </trkpt>
      <trkpt lat="44.39207" lon="1.4799">
        <ele>282.2</ele>
        <time>2024-08-22T08:00:58Z</time>
      </trkpt>
      <trkpt lat="44.39204" lon="1.47996">
        <ele>281.9</ele>
        <time>2024-08-22T08:01:03Z</time>
      </trkpt>
      <trkpt lat="44.39201" lon="1.48002">
        <ele>281.8</ele>
        <time>2024-08-22T08:01:08Z</time>
      </trkpt>
      <trkpt lat="44.39197" lon="1.48007">
        <ele>281.9</ele>
        <time>2024-08-22T08:01:12Z</time>
      </trkpt>
      <trkpt lat="44.39194" lon="1.48012">
        <ele>282.3</ele>
        <time>2024-08-22T08:01:16Z</time>
      </trkpt>
      <trkpt lat="44.3919" lon="1.48017">
        <ele>283.5</ele>
        <time>2024-08-22T08:01:21Z</time>
      </trkpt>
      <trkpt lat="44.39186" lon="1.48021">
        <ele>284.1</ele>
        <time>2024-08-22T08:01:25Z</time>
      </trkpt>
      <trkpt lat="44.39182" lon="1.48025">
        <ele>284.8</ele>
        <time>2024-08-22T08:01:29Z</time>
      </trkpt>
      <trkpt lat="44.39179" lon="1.4803">
        <ele>285.3</ele>
        <time>2024-08-22T08:01:33Z</time>
      </trkpt>
      <trkpt lat="44.39177" lon="1.48037">
        <ele>286.4</ele>
        <time>2024-08-22T08:01:38Z</time>
      </trkpt>
      <trkpt lat="44.39174" lon="1.48043">
        <ele>287.1</ele>
        <time>2024-08-22T08:01:43Z</time>
      </trkpt>
      <trkpt lat="44.39171" lon="1.48048">
        <ele>287.1</ele>
        <time>2024-08-22T08:01:47Z</time>
      </trkpt>
      <trkpt lat="44.39168" lon="1.48053">
        <ele>286.8</ele>
        <time>2024-08-22T08:01:52Z</time>
      </trkpt>
      <trkpt lat="44.39165" lon="1.48059">
        <ele>286.6</ele>
        <time>2024-08-22T08:01:57Z</time>
      </trkpt>
      <trkpt lat="44.39161" lon="1.48064">
        <ele>286.6</ele>
        <time>2024-08-22T08:02:01Z</time>
      </trkpt>
      <trkpt lat="44.39158" lon="1.4807">
        <ele>286.9</ele>
        <time>2024-08-22T08:02:05Z</time>
      </trkpt>
      <trkpt lat="44.39155" lon="1.48076">
        <ele>286.9</ele>
        <time>2024-08-22T08:02:09Z</time>
      </trkpt>
      <trkpt lat="44.39152" lon="1.48081">
        <ele>286.8</ele>
        <time>2024-08-22T08:02:13Z</time>
      </trkpt>
      <trkpt lat="44.39148" lon="1.48087">
        <ele>286.8</ele>
        <time>2024-08-22T08:02:17Z</time>
      </trkpt>
      <trkpt lat="44.39144" lon="1.48093">
        <ele>286.4</ele>
        <time>2024-08-22T08:02:22Z</time>
      </trkpt>
      <trkpt lat="44.3914" lon="1.48097">
        <ele>285.6</ele>
        <time>2024-08-22T08:02:27Z</time>
      </trkpt>
      <trkpt lat="44.39137" lon="1.48104">
        <ele>285.1</ele>
        <time>2024-08-22T08:02:31Z</time>
      </trkpt>
      <trkpt lat="44.39134" lon="1.4811">
        <ele>285.1</ele>
        <time>2024-08-22T08:02:35Z</time>
      </trkpt>
      <trkpt lat="44.39131" lon="1.48115">
        <ele>285.4</ele>
        <time>2024-08-22T08:02:39Z</time>
      </trkpt>
      <trkpt lat="44.39128" lon="1.48121">
        <ele>286</ele>
        <time>2024-08-22T08:02:44Z</time>
      </trkpt>
      <trkpt lat="44.39126" lon="1.48126">
        <ele>286.3</ele>
        <time>2024-08-22T08:02:48Z</time>
      </trkpt>
      <trkpt lat="44.39123" lon="1.48133">
        <ele>286</ele>
        <time>2024-08-22T08:02:53Z</time>
      </trkpt>
      <trkpt lat="44.3912" lon="1.48138">
        <ele>285.6</ele>
        <time>2024-08-22T08:02:57Z</time>
      </trkpt>
      <trkpt lat="44.39117" lon="1.48144">
        <ele>284.8</ele>
        <time>2024-08-22T08:03:01Z</time>
      </trkpt>
      <trkpt lat="44.39114" lon="1.4815">
        <ele>284.3</ele>
        <time>2024-08-22T08:03:05Z</time>
      </trkpt>
      <trkpt lat="44.39112" lon="1.48156">
        <ele>284.1</ele>
        <time>2024-08-22T08:03:09Z</time>
      </trkpt>
      <trkpt lat="44.39111" lon="1.48163">
        <ele>284.2</ele>
        <time>2024-08-22T08:03:13Z</time>
      </trkpt>
      <trkpt lat="44.3911" lon="1.4817">
        <ele>284.9</ele>
        <time>2024-08-22T08:03:17Z</time>
      </trkpt>
      <trkpt lat="44.39109" lon="1.48176">
        <ele>285.4</ele>
        <time>2024-08-22T08:03:21Z</time>
      </trkpt>
      <trkpt lat="44.39106" lon="1.48181">
        <ele>285.4</ele>
        <time>2024-08-22T08:03:25Z</time>
      </trkpt>
      <trkpt lat="44.39103" lon="1.48188">
        <ele>285.2</ele>
        <time>2024-08-22T08:03:30Z</time>
      </trkpt>
      <trkpt lat="44.39101" lon="1.48194">
        <ele>284.9</ele>
        <time>2024-08-22T08:03:37Z</time>
      </trkpt>
      <trkpt lat="44.39103" lon="1.482">
        <ele>285.4</ele>
        <time>2024-08-22T08:03:48Z</time>
      </trkpt>
      <trkpt lat="44.391" lon="1.48206">
        <ele>285.3</ele>
        <time>2024-08-22T08:04:18Z</time>
      </trkpt>
      <trkpt lat="44.39097" lon="1.4821">
        <ele>285.7</ele>
        <time>2024-08-22T08:04:22Z</time>
      </trkpt>
      <trkpt lat="44.39092" lon="1.48213">
        <ele>286.5</ele>
        <time>2024-08-22T08:04:28Z</time>
      </trkpt>
      <trkpt lat="44.39088" lon="1.48215">
        <ele>287.3</ele>
        <time>2024-08-22T08:04:33Z</time>
      </trkpt>
      <trkpt lat="44.39083" lon="1.48215">
        <ele>287.9</ele>
        <time>2024-08-22T08:04:39Z</time>
      </trkpt>
      <trkpt lat="44.39078" lon="1.48215">
        <ele>288.3</ele>
        <time>2024-08-22T08:04:45Z</time>
      </trkpt>
      <trkpt lat="44.39073" lon="1.48217">
        <ele>288.5</ele>
        <time>2024-08-22T08:04:50Z</time>
      </trkpt>
      <trkpt lat="44.39068" lon="1.48218">
        <ele>288.4</ele>
        <time>2024-08-22T08:04:55Z</time>
      </trkpt>
      <trkpt lat="44.39063" lon="1.48219">
        <ele>287.4</ele>
        <time>2024-08-22T08:05:01Z</time>
      </trkpt>
      <trkpt lat="44.39058" lon="1.4822">
        <ele>286.2</ele>
        <time>2024-08-22T08:05:07Z</time>
      </trkpt>
      <trkpt lat="44.39053" lon="1.48223">
        <ele>285</ele>
        <time>2024-08-22T08:05:12Z</time>
      </trkpt>
      <trkpt lat="44.39048" lon="1.48225">
        <ele>284.2</ele>
        <time>2024-08-22T08:05:17Z</time>
      </trkpt>
      <trkpt lat="44.39043" lon="1.48226">
        <ele>283.7</ele>
        <time>2024-08-22T08:05:21Z</time>
      </trkpt>
      <trkpt lat="44.39038" lon="1.48226">
        <ele>282.8</ele>
        <time>2024-08-22T08:05:25Z</time>
      </trkpt>
      <trkpt lat="44.39033" lon="1.48227">
        <ele>282.1</ele>
        <time>2024-08-22T08:05:31Z</time>
      </trkpt>
      <trkpt lat="44.39028" lon="1.48228">
        <ele>281.8</ele>
        <time>2024-08-22T08:05:38Z</time>
      </trkpt>
      <trkpt lat="44.39023" lon="1.48229">
        <ele>281.2</ele>
        <time>2024-08-22T08:05:43Z</time>
      </trkpt>
      <trkpt lat="44.39018" lon="1.48232">
        <ele>280.7</ele>
        <time>2024-08-22T08:05:47Z</time>
      </trkpt>
      <trkpt lat="44.39013" lon="1.48234">
        <ele>280.5</ele>
        <time>2024-08-22T08:05:52Z</time>
      </trkpt>
      <trkpt lat="44.39009" lon="1.48236">
        <ele>281.5</ele>
        <time>2024-08-22T08:05:57Z</time>
      </trkpt>
      <trkpt lat="44.39004" lon="1.48239">
        <ele>283.2</ele>
        <time>2024-08-22T08:06:02Z</time>
      </trkpt>
      <trkpt lat="44.38999" lon="1.48239">
        <ele>283.8</ele>
        <time>2024-08-22T08:06:07Z</time>
      </trkpt>
      <trkpt lat="44.38995" lon="1.48242">
        <ele>283.9</ele>
        <time>2024-08-22T08:06:12Z</time>
      </trkpt>
      <trkpt lat="44.38989" lon="1.48244">
        <ele>283.8</ele>
        <time>2024-08-22T08:06:16Z</time>
      </trkpt>
      <trkpt lat="44.38985" lon="1.48246">
        <ele>283.3</ele>
        <time>2024-08-22T08:06:20Z</time>
      </trkpt>
      <trkpt lat="44.3898" lon="1.48249">
        <ele>281.8</ele>
        <time>2024-08-22T08:06:26Z</time>
      </trkpt>
      <trkpt lat="44.38976" lon="1.48254">
        <ele>280.9</ele>
        <time>2024-08-22T08:06:31Z</time>
      </trkpt>
      <trkpt lat="44.38973" lon="1.4826">
        <ele>281.3</ele>
        <time>2024-08-22T08:06:36Z</time>
      </trkpt>
      <trkpt lat="44.38968" lon="1.48262">
        <ele>281.7</ele>
        <time>2024-08-22T08:06:41Z</time>
      </trkpt>
      <trkpt lat="44.38963" lon="1.48264">
        <ele>281.8</ele>
        <time>2024-08-22T08:06:47Z</time>
      </trkpt>
      <trkpt lat="44.38959" lon="1.48265">
        <ele>281.4</ele>
        <time>2024-08-22T08:06:53Z</time>
      </trkpt>
      <trkpt lat="44.38955" lon="1.48268">
        <ele>281.3</ele>
        <time>2024-08-22T08:06:58Z</time>
      </trkpt>
      <trkpt lat="44.3895" lon="1.48268">
        <ele>280.5</ele>
        <time>2024-08-22T08:07:05Z</time>
      </trkpt>
      <trkpt lat="44.38945" lon="1.48269">
        <ele>279.5</ele>
        <time>2024-08-22T08:07:10Z</time>
      </trkpt>
      <trkpt lat="44.38941" lon="1.48271">
        <ele>278.8</ele>
        <time>2024-08-22T08:07:15Z</time>
      </trkpt>
      <trkpt lat="44.38936" lon="1.48273">
        <ele>278.6</ele>
        <time>2024-08-22T08:07:21Z</time>
      </trkpt>
      <trkpt lat="44.38931" lon="1.48274">
        <ele>277.9</ele>
        <time>2024-08-22T08:07:27Z</time>
      </trkpt>
      <trkpt lat="44.38927" lon="1.48277">
        <ele>277.6</ele>
        <time>2024-08-22T08:07:33Z</time>
      </trkpt>
      <trkpt lat="44.38923" lon="1.48281">
        <ele>278.4</ele>
        <time>2024-08-22T08:07:39Z</time>
      </trkpt>
      <trkpt lat="44.38918" lon="1.48284">
        <ele>277.3</ele>
        <time>2024-08-22T08:07:44Z</time>
      </trkpt>
      <trkpt lat="44.38913" lon="1.48285">
        <ele>275.9</ele>
        <time>2024-08-22T08:07:48Z</time>
      </trkpt>
      <trkpt lat="44.38909" lon="1.48288">
        <ele>273.9</ele>
        <time>2024-08-22T08:07:53Z</time>
      </trkpt>
      <trkpt lat="44.38905" lon="1.48293">
        <ele>273.5</ele>
        <time>2024-08-22T08:07:57Z</time>
      </trkpt>
      <trkpt lat="44.389" lon="1.48294">
        <ele>273.2</ele>
        <time>2024-08-22T08:08:02Z</time>
      </trkpt>
      <trkpt lat="44.38896" lon="1.48291">
        <ele>270</ele>
        <time>2024-08-22T08:08:19Z</time>
      </trkpt>
      <trkpt lat="44.38892" lon="1.48296">
        <ele>270</ele>
        <time>2024-08-22T08:08:32Z</time>
      </trkpt>
      <trkpt lat="44.38888" lon="1.483">
        <ele>271</ele>
        <time>2024-08-22T08:08:39Z</time>
      </trkpt>
      <trkpt lat="44.38884" lon="1.483">
        <ele>271.2</ele>
        <time>2024-08-22T08:08:45Z</time>
      </trkpt>
      <trkpt lat="44.38879" lon="1.48302">
        <ele>270.6</ele>
        <time>2024-08-22T08:08:51Z</time>
      </trkpt>
      <trkpt lat="44.38874" lon="1.48305">
        <ele>270.3</ele>
        <time>2024-08-22T08:08:58Z</time>
      </trkpt>
      <trkpt lat="44.3887" lon="1.48306">
        <ele>270</ele>
        <time>2024-08-22T08:09:06Z</time>
      </trkpt>
      <trkpt lat="44.38865" lon="1.48309">
        <ele>269.8</ele>
        <time>2024-08-22T08:09:13Z</time>
      </trkpt>
      <trkpt lat="44.38861" lon="1.48312">
        <ele>269.6</ele>
        <time>2024-08-22T08:09:18Z</time>
      </trkpt>
      <trkpt lat="44.38856" lon="1.48312">
        <ele>269.1</ele>
        <time>2024-08-22T08:09:24Z</time>
      </trkpt>
      <trkpt lat="44.38852" lon="1.48315">
        <ele>267.6</ele>
        <time>2024-08-22T08:09:30Z</time>
      </trkpt>
      <trkpt lat="44.38847" lon="1.48317">
        <ele>266.2</ele>
        <time>2024-08-22T08:09:36Z</time>
      </trkpt>
      <trkpt lat="44.38842" lon="1.48319">
        <ele>264.7</ele>
        <time>2024-08-22T08:09:42Z</time>
      </trkpt>
      <trkpt lat="44.38837" lon="1.48321">
        <ele>263.9</ele>
        <time>2024-08-22T08:09:47Z</time>
      </trkpt>
      <trkpt lat="44.38832" lon="1.48324">
        <ele>263</ele>
        <time>2024-08-22T08:09:52Z</time>
      </trkpt>
      <trkpt lat="44.38828" lon="1.48327">
        <ele>262.3</ele>
        <time>2024-08-22T08:09:57Z</time>
      </trkpt>
      <trkpt lat="44.38823" lon="1.48329">
        <ele>261.9</ele>
        <time>2024-08-22T08:10:03Z</time>
      </trkpt>
      <trkpt lat="44.38818" lon="1.4833">
        <ele>261.3</ele>
        <time>2024-08-22T08:10:09Z</time>
      </trkpt>
      <trkpt lat="44.38814" lon="1.48331">
        <ele>260.8</ele>
        <time>2024-08-22T08:10:15Z</time>
      </trkpt>
      <trkpt lat="44.38809" lon="1.48331">
        <ele>259.9</ele>
        <time>2024-08-22T08:10:21Z</time>
      </trkpt>
      <trkpt lat="44.38803" lon="1.48332">
        <ele>258.9</ele>
        <time>2024-08-22T08:10:28Z</time>
      </trkpt>
      <trkpt lat="44.38798" lon="1.48334">
        <ele>258.2</ele>
        <time>2024-08-22T08:10:33Z</time>
      </trkpt>
      <trkpt lat="44.38793" lon="1.48337">
        <ele>258</ele>
        <time>2024-08-22T08:10:38Z</time>
      </trkpt>
      <trkpt lat="44.38789" lon="1.4834">
        <ele>258</ele>
        <time>2024-08-22T08:10:42Z</time>
      </trkpt>
      <trkpt lat="44.38784" lon="1.48342">
        <ele>257.4</ele>
        <time>2024-08-22T08:10:46Z</time>
      </trkpt>
      <trkpt lat="44.3878" lon="1.48343">
        <ele>256.6</ele>
        <time>2024-08-22T08:10:50Z</time>
      </trkpt>
      <trkpt lat="44.38775" lon="1.48344">
        <ele>255.2</ele>
        <time>2024-08-22T08:10:56Z</time>
      </trkpt>
      <trkpt lat="44.38771" lon="1.48347">
        <ele>254.6</ele>
        <time>2024-08-22T08:11:00Z</time>
      </trkpt>
      <trkpt lat="44.38766" lon="1.48349">
        <ele>254.1</ele>
        <time>2024-08-22T08:11:05Z</time>
      </trkpt>
      <trkpt lat="44.38762" lon="1.48353">
        <ele>254.1</ele>
        <time>2024-08-22T08:11:09Z</time>
      </trkpt>
      <trkpt lat="44.38757" lon="1.48357">
        <ele>254.7</ele>
        <time>2024-08-22T08:11:14Z</time>
      </trkpt>
      <trkpt lat="44.38753" lon="1.48359">
        <ele>255.3</ele>
        <time>2024-08-22T08:11:18Z</time>
      </trkpt>
      <trkpt lat="44.38747" lon="1.4836">
        <ele>255.3</ele>
        <time>2024-08-22T08:11:22Z</time>
      </trkpt>
      <trkpt lat="44.38743" lon="1.4836">
        <ele>254.8</ele>
        <time>2024-08-22T08:11:26Z</time>
      </trkpt>
      <trkpt lat="44.38738" lon="1.48363">
        <ele>254.5</ele>
        <time>2024-08-22T08:11:30Z</time>
      </trkpt>
      <trkpt lat="44.38734" lon="1.48365">
        <ele>254.4</ele>
        <time>2024-08-22T08:11:34Z</time>
      </trkpt>
      <trkpt lat="44.38729" lon="1.48368">
        <ele>254.6</ele>
        <time>2024-08-22T08:11:40Z</time>
      </trkpt>
      <trkpt lat="44.38725" lon="1.48369">
        <ele>254.9</ele>
        <time>2024-08-22T08:11:45Z</time>
      </trkpt>
      <trkpt lat="44.3872" lon="1.48369">
        <ele>255.1</ele>
        <time>2024-08-22T08:11:50Z</time>
      </trkpt>
      <trkpt lat="44.38715" lon="1.48369">
        <ele>255.3</ele>
        <time>2024-08-22T08:11:55Z</time>
      </trkpt>
      <trkpt lat="44.3871" lon="1.48369">
        <ele>255.4</ele>
        <time>2024-08-22T08:11:59Z</time>
      </trkpt>
      <trkpt lat="44.38705" lon="1.48369">
        <ele>255.3</ele>
        <time>2024-08-22T08:12:04Z</time>
      </trkpt>
      <trkpt lat="44.387" lon="1.48369">
        <ele>255.2</ele>
        <time>2024-08-22T08:12:08Z</time>
      </trkpt>
      <trkpt lat="44.38695" lon="1.4837">
        <ele>255.3</ele>
        <time>2024-08-22T08:12:12Z</time>
      </trkpt>
      <trkpt lat="44.3869" lon="1.48371">
        <ele>255.4</ele>
        <time>2024-08-22T08:12:16Z</time>
      </trkpt>
      <trkpt lat="44.38685" lon="1.4837">
        <ele>255.3</ele>
        <time>2024-08-22T08:12:20Z</time>
      </trkpt>
      <trkpt lat="44.3868" lon="1.48369">
        <ele>255</ele>
        <time>2024-08-22T08:12:24Z</time>
      </trkpt>
      <trkpt lat="44.38675" lon="1.48369">
        <ele>254.6</ele>
        <time>2024-08-22T08:12:28Z</time>
      </trkpt>
      <trkpt lat="44.3867" lon="1.48369">
        <ele>254.4</ele>
        <time>2024-08-22T08:12:33Z</time>
      </trkpt>
      <trkpt lat="44.38664" lon="1.48369">
        <ele>254</ele>
        <time>2024-08-22T08:12:39Z</time>
      </trkpt>
      <trkpt lat="44.3866" lon="1.48368">
        <ele>253.4</ele>
        <time>2024-08-22T08:12:43Z</time>
      </trkpt>
      <trkpt lat="44.38655" lon="1.48366">
        <ele>252.6</ele>
        <time>2024-08-22T08:12:47Z</time>
      </trkpt>
      <trkpt lat="44.3865" lon="1.48365">
        <ele>251.4</ele>
        <time>2024-08-22T08:12:51Z</time>
      </trkpt>
      <trkpt lat="44.38645" lon="1.48365">
        <ele>250.6</ele>
        <time>2024-08-22T08:12:55Z</time>
      </trkpt>
      <trkpt lat="44.3864" lon="1.48365">
        <ele>250</ele>
        <time>2024-08-22T08:12:59Z</time>
      </trkpt>
      <trkpt lat="44.38635" lon="1.48366">
        <ele>249.9</ele>
        <time>2024-08-22T08:13:03Z</time>
      </trkpt>
      <trkpt lat="44.3863" lon="1.48367">
        <ele>249.7</ele>
        <time>2024-08-22T08:13:07Z</time>
      </trkpt>
      <trkpt lat="44.38625" lon="1.48367">
        <ele>248.8</ele>
        <time>2024-08-22T08:13:13Z</time>
      </trkpt>
      <trkpt lat="44.3862" lon="1.48369">
        <ele>248.4</ele>
        <time>2024-08-22T08:13:18Z</time>
      </trkpt>
      <trkpt lat="44.38615" lon="1.48369">
        <ele>248</ele>
        <time>2024-08-22T08:13:22Z</time>
      </trkpt>
      <trkpt lat="44.3861" lon="1.48368">
        <ele>247.5</ele>
        <time>2024-08-22T08:13:26Z</time>
      </trkpt>
      <trkpt lat="44.38605" lon="1.48368">
        <ele>246.7</ele>
        <time>2024-08-22T08:13:31Z</time>
      </trkpt>
      <trkpt lat="44.38599" lon="1.48369">
        <ele>245.9</ele>
        <time>2024-08-22T08:13:36Z</time>
      </trkpt>
      <trkpt lat="44.38593" lon="1.48369">
        <ele>245.8</ele>
        <time>2024-08-22T08:13:40Z</time>
      </trkpt>
      <trkpt lat="44.38589" lon="1.48368">
        <ele>245.6</ele>
        <time>2024-08-22T08:13:44Z</time>
      </trkpt>
      <trkpt lat="44.38584" lon="1.48369">
        <ele>245.5</ele>
        <time>2024-08-22T08:13:48Z</time>
      </trkpt>
      <trkpt lat="44.38579" lon="1.48369">
        <ele>245.4</ele>
        <time>2024-08-22T08:13:53Z</time>
      </trkpt>
      <trkpt lat="44.38574" lon="1.48372">
        <ele>245.4</ele>
        <time>2024-08-22T08:13:58Z</time>
      </trkpt>
      <trkpt lat="44.38569" lon="1.48374">
        <ele>246.1</ele>
        <time>2024-08-22T08:14:02Z</time>
      </trkpt>
      <trkpt lat="44.38564" lon="1.48374">
        <ele>247.3</ele>
        <time>2024-08-22T08:14:07Z</time>
      </trkpt>
      <trkpt lat="44.38559" lon="1.48376">
        <ele>248.1</ele>
        <time>2024-08-22T08:14:11Z</time>
      </trkpt>
      <trkpt lat="44.38554" lon="1.48377">
        <ele>248.8</ele>
        <time>2024-08-22T08:14:16Z</time>
      </trkpt>
      <trkpt lat="44.38549" lon="1.48376">
        <ele>248.8</ele>
        <time>2024-08-22T08:14:21Z</time>
      </trkpt>
      <trkpt lat="44.38544" lon="1.48375">
        <ele>248.6</ele>
        <time>2024-08-22T08:14:27Z</time>
      </trkpt>
      <trkpt lat="44.38539" lon="1.48376">
        <ele>248.1</ele>
        <time>2024-08-22T08:14:32Z</time>
      </trkpt>
      <trkpt lat="44.38534" lon="1.48378">
        <ele>247.7</ele>
        <time>2024-08-22T08:14:37Z</time>
      </trkpt>
      <trkpt lat="44.38528" lon="1.48378">
        <ele>247</ele>
        <time>2024-08-22T08:14:42Z</time>
      </trkpt>
      <trkpt lat="44.38524" lon="1.48378">
        <ele>246.1</ele>
        <time>2024-08-22T08:14:48Z</time>
      </trkpt>
      <trkpt lat="44.38519" lon="1.48378">
        <ele>245.7</ele>
        <time>2024-08-22T08:14:53Z</time>
      </trkpt>
      <trkpt lat="44.38514" lon="1.48379">
        <ele>245.2</ele>
        <time>2024-08-22T08:14:58Z</time>
      </trkpt>
      <trkpt lat="44.38509" lon="1.48379">
        <ele>245</ele>
        <time>2024-08-22T08:15:03Z</time>
      </trkpt>
      <trkpt lat="44.38505" lon="1.48378">
        <ele>244.9</ele>
        <time>2024-08-22T08:15:09Z</time>
      </trkpt>
      <trkpt lat="44.38499" lon="1.48378">
        <ele>244.4</ele>
        <time>2024-08-22T08:15:15Z</time>
      </trkpt>
      <trkpt lat="44.38495" lon="1.48376">
        <ele>243.5</ele>
        <time>2024-08-22T08:15:20Z</time>
      </trkpt>
      <trkpt lat="44.3849" lon="1.48376">
        <ele>242</ele>
        <time>2024-08-22T08:15:28Z</time>
      </trkpt>
      <trkpt lat="44.38485" lon="1.48374">
        <ele>241.3</ele>
        <time>2024-08-22T08:15:33Z</time>
      </trkpt>
      <trkpt lat="44.3848" lon="1.48373">
        <ele>241.3</ele>
        <time>2024-08-22T08:15:38Z</time>
      </trkpt>
      <trkpt lat="44.38474" lon="1.48373">
        <ele>241.7</ele>
        <time>2024-08-22T08:15:43Z</time>
      </trkpt>
      <trkpt lat="44.38469" lon="1.48374">
        <ele>242.2</ele>
        <time>2024-08-22T08:15:47Z</time>
      </trkpt>
      <trkpt lat="44.38465" lon="1.48374">
        <ele>242.5</ele>
        <time>2024-08-22T08:15:53Z</time>
      </trkpt>
      <trkpt lat="44.38459" lon="1.48377">
        <ele>242.8</ele>
        <time>2024-08-22T08:15:59Z</time>
      </trkpt>
      <trkpt lat="44.38455" lon="1.48377">
        <ele>243.1</ele>
        <time>2024-08-22T08:16:05Z</time>
      </trkpt>
      <trkpt lat="44.3845" lon="1.48377">
        <ele>243.5</ele>
        <time>2024-08-22T08:16:27Z</time>
      </trkpt>
      <trkpt lat="44.38446" lon="1.4838">
        <ele>242.8</ele>
        <time>2024-08-22T08:16:34Z</time>
      </trkpt>
      <trkpt lat="44.38442" lon="1.48384">
        <ele>242.3</ele>
        <time>2024-08-22T08:16:41Z</time>
      </trkpt>
      <trkpt lat="44.38438" lon="1.4839">
        <ele>241.9</ele>
        <time>2024-08-22T08:16:46Z</time>
      </trkpt>
      <trkpt lat="44.38435" lon="1.48395">
        <ele>240.4</ele>
        <time>2024-08-22T08:16:52Z</time>
      </trkpt>
      <trkpt lat="44.38432" lon="1.48399">
        <ele>239.6</ele>
        <time>2024-08-22T08:16:56Z</time>
      </trkpt>
      <trkpt lat="44.38427" lon="1.48403">
        <ele>238.3</ele>
        <time>2024-08-22T08:17:01Z</time>
      </trkpt>
      <trkpt lat="44.38424" lon="1.48408">
        <ele>237.7</ele>
        <time>2024-08-22T08:17:05Z</time>
      </trkpt>
      <trkpt lat="44.38419" lon="1.48413">
        <ele>237.2</ele>
        <time>2024-08-22T08:17:10Z</time>
      </trkpt>
      <trkpt lat="44.38415" lon="1.48418">
        <ele>236.5</ele>
        <time>2024-08-22T08:17:14Z</time>
      </trkpt>
      <trkpt lat="44.38412" lon="1.48423">
        <ele>235.5</ele>
        <time>2024-08-22T08:17:18Z</time>
      </trkpt>
      <trkpt lat="44.38407" lon="1.48427">
        <ele>234.4</ele>
        <time>2024-08-22T08:17:23Z</time>
      </trkpt>
      <trkpt lat="44.38403" lon="1.4843">
        <ele>233.7</ele>
        <time>2024-08-22T08:17:27Z</time>
      </trkpt>
      <trkpt lat="44.38398" lon="1.48432">
        <ele>233.3</ele>
        <time>2024-08-22T08:17:31Z</time>
      </trkpt>
      <trkpt lat="44.38394" lon="1.48435">
        <ele>233</ele>
        <time>2024-08-22T08:17:36Z</time>
      </trkpt>
      <trkpt lat="44.38389" lon="1.48439">
        <ele>232.2</ele>
        <time>2024-08-22T08:17:41Z</time>
      </trkpt>
      <trkpt lat="44.38385" lon="1.48442">
        <ele>231.5</ele>
        <time>2024-08-22T08:17:46Z</time>
      </trkpt>
      <trkpt lat="44.3838" lon="1.48446">
        <ele>230.8</ele>
        <time>2024-08-22T08:17:51Z</time>
      </trkpt>
      <trkpt lat="44.38376" lon="1.48451">
        <ele>230.7</ele>
        <time>2024-08-22T08:17:55Z</time>
      </trkpt>
      <trkpt lat="44.38372" lon="1.48457">
        <ele>231</ele>
        <time>2024-08-22T08:17:59Z</time>
      </trkpt>
      <trkpt lat="44.38369" lon="1.48462">
        <ele>231.4</ele>
        <time>2024-08-22T08:18:03Z</time>
      </trkpt>
      <trkpt lat="44.38367" lon="1.48468">
        <ele>232.4</ele>
        <time>2024-08-22T08:18:08Z</time>
      </trkpt>
      <trkpt lat="44.38364" lon="1.48475">
        <ele>233.1</ele>
        <time>2024-08-22T08:18:12Z</time>
      </trkpt>
      <trkpt lat="44.38363" lon="1.48482">
        <ele>233.6</ele>
        <time>2024-08-22T08:18:17Z</time>
      </trkpt>
      <trkpt lat="44.38362" lon="1.48489">
        <ele>234.2</ele>
        <time>2024-08-22T08:18:22Z</time>
      </trkpt>
      <trkpt lat="44.38361" lon="1.48496">
        <ele>235.1</ele>
        <time>2024-08-22T08:18:27Z</time>
      </trkpt>
      <trkpt lat="44.3836" lon="1.48503">
        <ele>235.8</ele>
        <time>2024-08-22T08:18:31Z</time>
      </trkpt>
      <trkpt lat="44.38358" lon="1.48509">
        <ele>236.5</ele>
        <time>2024-08-22T08:18:35Z</time>
      </trkpt>
      <trkpt lat="44.38356" lon="1.48516">
        <ele>237.1</ele>
        <time>2024-08-22T08:18:40Z</time>
      </trkpt>
      <trkpt lat="44.38354" lon="1.48523">
        <ele>237.8</ele>
        <time>2024-08-22T08:18:45Z</time>
      </trkpt>
      <trkpt lat="44.38351" lon="1.48527">
        <ele>238.6</ele>
        <time>2024-08-22T08:18:49Z</time>
      </trkpt>
      <trkpt lat="44.38347" lon="1.48531">
        <ele>239.2</ele>
        <time>2024-08-22T08:18:53Z</time>
      </trkpt>
      <trkpt lat="44.38342" lon="1.48535">
        <ele>240.4</ele>
        <time>2024-08-22T08:18:58Z</time>
      </trkpt>
      <trkpt lat="44.38337" lon="1.48535">
        <ele>241.5</ele>
        <time>2024-08-22T08:19:03Z</time>
      </trkpt>
      <trkpt lat="44.38332" lon="1.48535">
        <ele>242.3</ele>
        <time>2024-08-22T08:19:07Z</time>
      </trkpt>
      <trkpt lat="44.38327" lon="1.48535">
        <ele>243.3</ele>
        <time>2024-08-22T08:19:11Z</time>
      </trkpt>
      <trkpt lat="44.38322" lon="1.48532">
        <ele>244.9</ele>
        <time>2024-08-22T08:19:15Z</time>
      </trkpt>
      <trkpt lat="44.38319" lon="1.48528">
        <ele>246.2</ele>
        <time>2024-08-22T08:19:19Z</time>
      </trkpt>
      <trkpt lat="44.38314" lon="1.48524">
        <ele>246.8</ele>
        <time>2024-08-22T08:19:24Z</time>
      </trkpt>
      <trkpt lat="44.3831" lon="1.48524">
        <ele>246.7</ele>
        <time>2024-08-22T08:19:28Z</time>
      </trkpt>
      <trkpt lat="44.38305" lon="1.48527">
        <ele>246.8</ele>
        <time>2024-08-22T08:19:32Z</time>
      </trkpt>
      <trkpt lat="44.38301" lon="1.48529">
        <ele>246.7</ele>
        <time>2024-08-22T08:19:36Z</time>
      </trkpt>
      <trkpt lat="44.38297" lon="1.48534">
        <ele>246.6</ele>
        <time>2024-08-22T08:19:41Z</time>
      </trkpt>
      <trkpt lat="44.38292" lon="1.48537">
        <ele>246.6</ele>
        <time>2024-08-22T08:19:46Z</time>
      </trkpt>
      <trkpt lat="44.38287" lon="1.48539">
        <ele>246.4</ele>
        <time>2024-08-22T08:19:50Z</time>
      </trkpt>
      <trkpt lat="44.38283" lon="1.48542">
        <ele>246.5</ele>
        <time>2024-08-22T08:19:54Z</time>
      </trkpt>
      <trkpt lat="44.38279" lon="1.48547">
        <ele>247.1</ele>
        <time>2024-08-22T08:19:59Z</time>
      </trkpt>
      <trkpt lat="44.38274" lon="1.4855">
        <ele>248.5</ele>
        <time>2024-08-22T08:20:04Z</time>
      </trkpt>
      <trkpt lat="44.3827" lon="1.48551">
        <ele>249.4</ele>
        <time>2024-08-22T08:20:08Z</time>
      </trkpt>
      <trkpt lat="44.38265" lon="1.48554">
        <ele>250.2</ele>
        <time>2024-08-22T08:20:12Z</time>
      </trkpt>
      <trkpt lat="44.3826" lon="1.48558">
        <ele>250.9</ele>
        <time>2024-08-22T08:20:17Z</time>
      </trkpt>
      <trkpt lat="44.38255" lon="1.48561">
        <ele>251.3</ele>
        <time>2024-08-22T08:20:22Z</time>
      </trkpt>
      <trkpt lat="44.3825" lon="1.48564">
        <ele>252.1</ele>
        <time>2024-08-22T08:20:28Z</time>
      </trkpt>
      <trkpt lat="44.38246" lon="1.48568">
        <ele>253</ele>
        <time>2024-08-22T08:20:32Z</time>
      </trkpt>
      <trkpt lat="44.38242" lon="1.48572">
        <ele>254</ele>
        <time>2024-08-22T08:20:36Z</time>
      </trkpt>
      <trkpt lat="44.38237" lon="1.48574">
        <ele>254.6</ele>
        <time>2024-08-22T08:20:40Z</time>
      </trkpt>
      <trkpt lat="44.38232" lon="1.48577">
        <ele>255.1</ele>
        <time>2024-08-22T08:20:45Z</time>
      </trkpt>
      <trkpt lat="44.38228" lon="1.4858">
        <ele>255.2</ele>
        <time>2024-08-22T08:20:51Z</time>
      </trkpt>
      <trkpt lat="44.38223" lon="1.48581">
        <ele>254.8</ele>
        <time>2024-08-22T08:20:56Z</time>
      </trkpt>
      <trkpt lat="44.38217" lon="1.48583">
        <ele>254.3</ele>
        <time>2024-08-22T08:21:01Z</time>
      </trkpt>
      <trkpt lat="44.38212" lon="1.48585">
        <ele>254</ele>
        <time>2024-08-22T08:21:05Z</time>
      </trkpt>
      <trkpt lat="44.38208" lon="1.48587">
        <ele>253.6</ele>
        <time>2024-08-22T08:21:09Z</time>
      </trkpt>
      <trkpt lat="44.38203" lon="1.4859">
        <ele>253.2</ele>
        <time>2024-08-22T08:21:13Z</time>
      </trkpt>
      <trkpt lat="44.38198" lon="1.48592">
        <ele>253</ele>
        <time>2024-08-22T08:21:17Z</time>
      </trkpt>
      <trkpt lat="44.38193" lon="1.48595">
        <ele>252.7</ele>
        <time>2024-08-22T08:21:21Z</time>
      </trkpt>
      <trkpt lat="44.38189" lon="1.48598">
        <ele>252.4</ele>
        <time>2024-08-22T08:21:26Z</time>
      </trkpt>
      <trkpt lat="44.38184" lon="1.48601">
        <ele>252.2</ele>
        <time>2024-08-22T08:21:31Z</time>
      </trkpt>
      <trkpt lat="44.38179" lon="1.48602">
        <ele>252.3</ele>
        <time>2024-08-22T08:21:36Z</time>
      </trkpt>
      <trkpt lat="44.38174" lon="1.48604">
        <ele>252.7</ele>
        <time>2024-08-22T08:21:40Z</time>
      </trkpt>
      <trkpt lat="44.38169" lon="1.48606">
        <ele>253.1</ele>
        <time>2024-08-22T08:21:44Z</time>
      </trkpt>
      <trkpt lat="44.38165" lon="1.4861">
        <ele>253.3</ele>
        <time>2024-08-22T08:21:48Z</time>
      </trkpt>
      <trkpt lat="44.3816" lon="1.48614">
        <ele>253.7</ele>
        <time>2024-08-22T08:21:52Z</time>
      </trkpt>
      <trkpt lat="44.38155" lon="1.48617">
        <ele>253.9</ele>
        <time>2024-08-22T08:21:56Z</time>
      </trkpt>
      <trkpt lat="44.38151" lon="1.4862">
        <ele>253.8</ele>
        <time>2024-08-22T08:22:00Z</time>
      </trkpt>
      <trkpt lat="44.38148" lon="1.48625">
        <ele>253.6</ele>
        <time>2024-08-22T08:22:04Z</time>
      </trkpt>
      <trkpt lat="44.38144" lon="1.48629">
        <ele>253.9</ele>
        <time>2024-08-22T08:22:09Z</time>
      </trkpt>
      <trkpt lat="44.38141" lon="1.48635">
        <ele>254.7</ele>
        <time>2024-08-22T08:22:15Z</time>
      </trkpt>
      <trkpt lat="44.38136" lon="1.48638">
        <ele>255.8</ele>
        <time>2024-08-22T08:22:21Z</time>
      </trkpt>
      <trkpt lat="44.38132" lon="1.48642">
        <ele>256.1</ele>
        <time>2024-08-22T08:22:25Z</time>
      </trkpt>
      <trkpt lat="44.38127" lon="1.48645">
        <ele>256.1</ele>
        <time>2024-08-22T08:22:29Z</time>
      </trkpt>
      <trkpt lat="44.38123" lon="1.48648">
        <ele>256.2</ele>
        <time>2024-08-22T08:22:33Z</time>
      </trkpt>
      <trkpt lat="44.38119" lon="1.48651">
        <ele>256.3</ele>
        <time>2024-08-22T08:22:37Z</time>
      </trkpt>
      <trkpt lat="44.38115" lon="1.48656">
        <ele>257.2</ele>
        <time>2024-08-22T08:22:42Z</time>
      </trkpt>
      <trkpt lat="44.38111" lon="1.48661">
        <ele>258.4</ele>
        <time>2024-08-22T08:22:47Z</time>
      </trkpt>
      <trkpt lat="44.38106" lon="1.48664">
        <ele>259.2</ele>
        <time>2024-08-22T08:22:52Z</time>
      </trkpt>
      <trkpt lat="44.38102" lon="1.48667">
        <ele>259.1</ele>
        <time>2024-08-22T08:22:56Z</time>
      </trkpt>
      <trkpt lat="44.38098" lon="1.4867">
        <ele>258.9</ele>
        <time>2024-08-22T08:23:01Z</time>
      </trkpt>
      <trkpt lat="44.38093" lon="1.48674">
        <ele>258.4</ele>
        <time>2024-08-22T08:23:06Z</time>
      </trkpt>
      <trkpt lat="44.38089" lon="1.48678">
        <ele>257.7</ele>
        <time>2024-08-22T08:23:11Z</time>
      </trkpt>
      <trkpt lat="44.38085" lon="1.48681">
        <ele>257.3</ele>
        <time>2024-08-22T08:23:15Z</time>
      </trkpt>
      <trkpt lat="44.3808" lon="1.48684">
        <ele>257</ele>
        <time>2024-08-22T08:23:20Z</time>
      </trkpt>
      <trkpt lat="44.38076" lon="1.48688">
        <ele>256.8</ele>
        <time>2024-08-22T08:23:26Z</time>
      </trkpt>
      <trkpt lat="44.38073" lon="1.48691">
        <ele>256.5</ele>
        <time>2024-08-22T08:23:30Z</time>
      </trkpt>
      <trkpt lat="44.38069" lon="1.48696">
        <ele>256.2</ele>
        <time>2024-08-22T08:23:34Z</time>
      </trkpt>
      <trkpt lat="44.38065" lon="1.487">
        <ele>256.2</ele>
        <time>2024-08-22T08:23:38Z</time>
      </trkpt>
      <trkpt lat="44.38061" lon="1.48704">
        <ele>256.6</ele>
        <time>2024-08-22T08:23:42Z</time>
      </trkpt>
      <trkpt lat="44.38056" lon="1.48707">
        <ele>257.2</ele>
        <time>2024-08-22T08:23:46Z</time>
      </trkpt>
      <trkpt lat="44.38052" lon="1.4871">
        <ele>257.9</ele>
        <time>2024-08-22T08:23:50Z</time>
      </trkpt>
      <trkpt lat="44.38048" lon="1.48713">
        <ele>258</ele>
        <time>2024-08-22T08:23:54Z</time>
      </trkpt>
      <trkpt lat="44.38043" lon="1.48717">
        <ele>258</ele>
        <time>2024-08-22T08:23:58Z</time>
      </trkpt>
      <trkpt lat="44.38038" lon="1.48719">
        <ele>258.7</ele>
        <time>2024-08-22T08:24:02Z</time>
      </trkpt>
      <trkpt lat="44.38034" lon="1.48716">
        <ele>259.3</ele>
        <time>2024-08-22T08:24:08Z</time>
      </trkpt>
      <trkpt lat="44.38031" lon="1.4871">
        <ele>258.9</ele>
        <time>2024-08-22T08:24:15Z</time>
      </trkpt>
      <trkpt lat="44.38029" lon="1.48703">
        <ele>258.7</ele>
        <time>2024-08-22T08:24:20Z</time>
      </trkpt>
      <trkpt lat="44.38026" lon="1.48698">
        <ele>258.2</ele>
        <time>2024-08-22T08:24:27Z</time>
      </trkpt>
      <trkpt lat="44.38022" lon="1.48696">
        <ele>258.1</ele>
        <time>2024-08-22T08:25:00Z</time>
      </trkpt>
      <trkpt lat="44.38024" lon="1.48702">
        <ele>257.4</ele>
        <time>2024-08-22T08:25:11Z</time>
      </trkpt>
      <trkpt lat="44.38029" lon="1.48702">
        <ele>257.3</ele>
        <time>2024-08-22T08:25:28Z</time>
      </trkpt>
      <trkpt lat="44.38032" lon="1.48697">
        <ele>257.1</ele>
        <time>2024-08-22T08:25:36Z</time>
      </trkpt>
      <trkpt lat="44.3803" lon="1.48703">
        <ele>256.5</ele>
        <time>2024-08-22T08:25:48Z</time>
      </trkpt>
      <trkpt lat="44.38029" lon="1.48696">
        <ele>255.6</ele>
        <time>2024-08-22T08:26:25Z</time>
      </trkpt>
      <trkpt lat="44.38028" lon="1.4869">
        <ele>255.2</ele>
        <time>2024-08-22T08:26:31Z</time>
      </trkpt>
      <trkpt lat="44.38027" lon="1.48683">
        <ele>255.7</ele>
        <time>2024-08-22T08:26:36Z</time>
      </trkpt>
      <trkpt lat="44.38027" lon="1.48676">
        <ele>256.6</ele>
        <time>2024-08-22T08:26:40Z</time>
      </trkpt>
      <trkpt lat="44.38026" lon="1.48669">
        <ele>257.5</ele>
        <time>2024-08-22T08:26:45Z</time>
      </trkpt>
      <trkpt lat="44.38024" lon="1.48662">
        <ele>257.9</ele>
        <time>2024-08-22T08:26:50Z</time>
      </trkpt>
      <trkpt lat="44.38021" lon="1.48656">
        <ele>258.5</ele>
        <time>2024-08-22T08:26:54Z</time>
      </trkpt>
      <trkpt lat="44.38019" lon="1.48649">
        <ele>259.2</ele>
        <time>2024-08-22T08:26:59Z</time>
      </trkpt>
      <trkpt lat="44.38017" lon="1.48642">
        <ele>259.4</ele>
        <time>2024-08-22T08:27:05Z</time>
      </trkpt>
      <trkpt lat="44.38016" lon="1.48636">
        <ele>259.3</ele>
        <time>2024-08-22T08:27:09Z</time>
      </trkpt>
      <trkpt lat="44.38013" lon="1.48631">
        <ele>259</ele>
        <time>2024-08-22T08:27:12Z</time>
      </trkpt>
      <trkpt lat="44.3801" lon="1.48624">
        <ele>258.2</ele>
        <time>2024-08-22T08:27:17Z</time>
      </trkpt>
      <trkpt lat="44.38009" lon="1.48618">
        <ele>257.4</ele>
        <time>2024-08-22T08:27:21Z</time>
      </trkpt>
      <trkpt lat="44.38007" lon="1.48612">
        <ele>256.7</ele>
        <time>2024-08-22T08:27:25Z</time>
      </trkpt>
      <trkpt lat="44.38004" lon="1.48606">
        <ele>255.6</ele>
        <time>2024-08-22T08:27:30Z</time>
      </trkpt>
      <trkpt lat="44.38001" lon="1.486">
        <ele>255</ele>
        <time>2024-08-22T08:27:34Z</time>
      </trkpt>
      <trkpt lat="44.37998" lon="1.48595">
        <ele>254.6</ele>
        <time>2024-08-22T08:27:38Z</time>
      </trkpt>
      <trkpt lat="44.37996" lon="1.4859">
        <ele>254.6</ele>
        <time>2024-08-22T08:27:43Z</time>
      </trkpt>
      <trkpt lat="44.37993" lon="1.48583">
        <ele>254.7</ele>
        <time>2024-08-22T08:27:49Z</time>
      </trkpt>
      <trkpt lat="44.37989" lon="1.48577">
        <ele>254.9</ele>
        <time>2024-08-22T08:27:54Z</time>
      </trkpt>
      <trkpt lat="44.37987" lon="1.48571">
        <ele>255.4</ele>
        <time>2024-08-22T08:27:58Z</time>
      </trkpt>
      <trkpt lat="44.37983" lon="1.48565">
        <ele>256</ele>
        <time>2024-08-22T08:28:03Z</time>
      </trkpt>
      <trkpt lat="44.3798" lon="1.4856">
        <ele>256.8</ele>
        <time>2024-08-22T08:28:08Z</time>
      </trkpt>
      <trkpt lat="44.37979" lon="1.48554">
        <ele>257.9</ele>
        <time>2024-08-22T08:28:13Z</time>
      </trkpt>
      <trkpt lat="44.37975" lon="1.48548">
        <ele>259.7</ele>
        <time>2024-08-22T08:28:18Z</time>
      </trkpt>
      <trkpt lat="44.37972" lon="1.48543">
        <ele>261.5</ele>
        <time>2024-08-22T08:28:23Z</time>
      </trkpt>
      <trkpt lat="44.3797" lon="1.48538">
        <ele>262.9</ele>
        <time>2024-08-22T08:28:28Z</time>
      </trkpt>
      <trkpt lat="44.3797" lon="1.4853">
        <ele>264.1</ele>
        <time>2024-08-22T08:28:33Z</time>
      </trkpt>
      <trkpt lat="44.37971" lon="1.48523">
        <ele>265.5</ele>
        <time>2024-08-22T08:28:38Z</time>
      </trkpt>
      <trkpt lat="44.37971" lon="1.48515">
        <ele>266.6</ele>
        <time>2024-08-22T08:28:43Z</time>
      </trkpt>
      <trkpt lat="44.37971" lon="1.48509">
        <ele>267.4</ele>
        <time>2024-08-22T08:28:48Z</time>
      </trkpt>
      <trkpt lat="44.37971" lon="1.48502">
        <ele>267.8</ele>
        <time>2024-08-22T08:28:53Z</time>
      </trkpt>
      <trkpt lat="44.37971" lon="1.48495">
        <ele>267.9</ele>
        <time>2024-08-22T08:28:58Z</time>
      </trkpt>
      <trkpt lat="44.3797" lon="1.48488">
        <ele>267.9</ele>
        <time>2024-08-22T08:29:02Z</time>
      </trkpt>
      <trkpt lat="44.3797" lon="1.48481">
        <ele>267.6</ele>
        <time>2024-08-22T08:29:07Z</time>
      </trkpt>
      <trkpt lat="44.37969" lon="1.48474">
        <ele>267.4</ele>
        <time>2024-08-22T08:29:11Z</time>
      </trkpt>
      <trkpt lat="44.37969" lon="1.48468">
        <ele>267.1</ele>
        <time>2024-08-22T08:29:17Z</time>
      </trkpt>
      <trkpt lat="44.37969" lon="1.48461">
        <ele>266.8</ele>
        <time>2024-08-22T08:29:22Z</time>
      </trkpt>
      <trkpt lat="44.37968" lon="1.48454">
        <ele>266.7</ele>
        <time>2024-08-22T08:29:26Z</time>
      </trkpt>
      <trkpt lat="44.37968" lon="1.48447">
        <ele>266.4</ele>
        <time>2024-08-22T08:29:31Z</time>
      </trkpt>
      <trkpt lat="44.3797" lon="1.48441">
        <ele>265.5</ele>
        <time>2024-08-22T08:29:36Z</time>
      </trkpt>
      <trkpt lat="44.37971" lon="1.48434">
        <ele>265.4</ele>
        <time>2024-08-22T08:29:41Z</time>
      </trkpt>
      <trkpt lat="44.3797" lon="1.48427">
        <ele>265.4</ele>
        <time>2024-08-22T08:29:45Z</time>
      </trkpt>
      <trkpt lat="44.3797" lon="1.48421">
        <ele>265.3</ele>
        <time>2024-08-22T08:29:49Z</time>
      </trkpt>
      <trkpt lat="44.3797" lon="1.48415">
        <ele>264.7</ele>
        <time>2024-08-22T08:29:54Z</time>
      </trkpt>
      <trkpt lat="44.3797" lon="1.48408">
        <ele>264.3</ele>
        <time>2024-08-22T08:29:59Z</time>
      </trkpt>
      <trkpt lat="44.3797" lon="1.48401">
        <ele>264.8</ele>
        <time>2024-08-22T08:30:11Z</time>
      </trkpt>
      <trkpt lat="44.37969" lon="1.48394">
        <ele>264.6</ele>
        <time>2024-08-22T08:30:18Z</time>
      </trkpt>
      <trkpt lat="44.37968" lon="1.48387">
        <ele>264.5</ele>
        <time>2024-08-22T08:30:25Z</time>
      </trkpt>
      <trkpt lat="44.37968" lon="1.4838">
        <ele>264.8</ele>
        <time>2024-08-22T08:30:30Z</time>
      </trkpt>
      <trkpt lat="44.37968" lon="1.48373">
        <ele>265.1</ele>
        <time>2024-08-22T08:30:36Z</time>
      </trkpt>
      <trkpt lat="44.37969" lon="1.48366">
        <ele>265.1</ele>
        <time>2024-08-22T08:30:40Z</time>
      </trkpt>
      <trkpt lat="44.3797" lon="1.48359">
        <ele>264.7</ele>
        <time>2024-08-22T08:30:45Z</time>
      </trkpt>
      <trkpt lat="44.37971" lon="1.48352">
        <ele>264.3</ele>
        <time>2024-08-22T08:30:50Z</time>
      </trkpt>
      <trkpt lat="44.37971" lon="1.48346">
        <ele>264.4</ele>
        <time>2024-08-22T08:30:54Z</time>
      </trkpt>
      <trkpt lat="44.3797" lon="1.48338">
        <ele>264.7</ele>
        <time>2024-08-22T08:30:58Z</time>
      </trkpt>
      <trkpt lat="44.3797" lon="1.48331">
        <ele>265.2</ele>
        <time>2024-08-22T08:31:02Z</time>
      </trkpt>
      <trkpt lat="44.3797" lon="1.48324">
        <ele>265.7</ele>
        <time>2024-08-22T08:31:06Z</time>
      </trkpt>
      <trkpt lat="44.37969" lon="1.48317">
        <ele>266.2</ele>
        <time>2024-08-22T08:31:11Z</time>
      </trkpt>
      <trkpt lat="44.37968" lon="1.4831">
        <ele>266.4</ele>
        <time>2024-08-22T08:31:16Z</time>
      </trkpt>
      <trkpt lat="44.37967" lon="1.48303">
        <ele>265.9</ele>
        <time>2024-08-22T08:31:21Z</time>
      </trkpt>
      <trkpt lat="44.37966" lon="1.48296">
        <ele>265.1</ele>
        <time>2024-08-22T08:31:26Z</time>
      </trkpt>
      <trkpt lat="44.37964" lon="1.48291">
        <ele>264.8</ele>
        <time>2024-08-22T08:31:30Z</time>
      </trkpt>
      <trkpt lat="44.37962" lon="1.48284">
        <ele>264.7</ele>
        <time>2024-08-22T08:31:35Z</time>
      </trkpt>
      <trkpt lat="44.37961" lon="1.48277">
        <ele>264.8</ele>
        <time>2024-08-22T08:31:40Z</time>
      </trkpt>
      <trkpt lat="44.37959" lon="1.48269">
        <ele>265.2</ele>
        <time>2024-08-22T08:31:45Z</time>
      </trkpt>
      <trkpt lat="44.37959" lon="1.48263">
        <ele>265.5</ele>
        <time>2024-08-22T08:31:49Z</time>
      </trkpt>
      <trkpt lat="44.37957" lon="1.48257">
        <ele>266.3</ele>
        <time>2024-08-22T08:31:53Z</time>
      </trkpt>
      <trkpt lat="44.37956" lon="1.48251">
        <ele>267.3</ele>
        <time>2024-08-22T08:31:58Z</time>
      </trkpt>
      <trkpt lat="44.37954" lon="1.48243">
        <ele>268.3</ele>
        <time>2024-08-22T08:32:03Z</time>
      </trkpt>
      <trkpt lat="44.37953" lon="1.48236">
        <ele>269</ele>
        <time>2024-08-22T08:32:08Z</time>
      </trkpt>
      <trkpt lat="44.37952" lon="1.4823">
        <ele>269.3</ele>
        <time>2024-08-22T08:32:12Z</time>
      </trkpt>
      <trkpt lat="44.37952" lon="1.48222">
        <ele>269.8</ele>
        <time>2024-08-22T08:32:17Z</time>
      </trkpt>
      <trkpt lat="44.37952" lon="1.48215">
        <ele>270.9</ele>
        <time>2024-08-22T08:32:22Z</time>
      </trkpt>
      <trkpt lat="44.37951" lon="1.48208">
        <ele>272.3</ele>
        <time>2024-08-22T08:32:27Z</time>
      </trkpt>
      <trkpt lat="44.3795" lon="1.48201">
        <ele>273.3</ele>
        <time>2024-08-22T08:32:31Z</time>
      </trkpt>
      <trkpt lat="44.3795" lon="1.48194">
        <ele>273.5</ele>
        <time>2024-08-22T08:32:35Z</time>
      </trkpt>
      <trkpt lat="44.37949" lon="1.48188">
        <ele>273.1</ele>
        <time>2024-08-22T08:32:39Z</time>
      </trkpt>
      <trkpt lat="44.37949" lon="1.48181">
        <ele>272.8</ele>
        <time>2024-08-22T08:32:43Z</time>
      </trkpt>
      <trkpt lat="44.37949" lon="1.48174">
        <ele>272.7</ele>
        <time>2024-08-22T08:32:47Z</time>
      </trkpt>
      <trkpt lat="44.37949" lon="1.48167">
        <ele>272.6</ele>
        <time>2024-08-22T08:32:52Z</time>
      </trkpt>
      <trkpt lat="44.3795" lon="1.4816">
        <ele>272</ele>
        <time>2024-08-22T08:32:57Z</time>
      </trkpt>
      <trkpt lat="44.3795" lon="1.48152">
        <ele>271.1</ele>
        <time>2024-08-22T08:33:02Z</time>
      </trkpt>
      <trkpt lat="44.3795" lon="1.48145">
        <ele>271.1</ele>
        <time>2024-08-22T08:33:06Z</time>
      </trkpt>
      <trkpt lat="44.3795" lon="1.48139">
        <ele>271.5</ele>
        <time>2024-08-22T08:33:10Z</time>
      </trkpt>
      <trkpt lat="44.37952" lon="1.48133">
        <ele>272.6</ele>
        <time>2024-08-22T08:33:15Z</time>
      </trkpt>
      <trkpt lat="44.37954" lon="1.48127">
        <ele>273.7</ele>
        <time>2024-08-22T08:33:19Z</time>
      </trkpt>
      <trkpt lat="44.37957" lon="1.48122">
        <ele>275</ele>
        <time>2024-08-22T08:33:28Z</time>
      </trkpt>
      <trkpt lat="44.37958" lon="1.48115">
        <ele>274</ele>
        <time>2024-08-22T08:34:22Z</time>
      </trkpt>
      <trkpt lat="44.3796" lon="1.48108">
        <ele>273.6</ele>
        <time>2024-08-22T08:34:27Z</time>
      </trkpt>
      <trkpt lat="44.37963" lon="1.48103">
        <ele>273.7</ele>
        <time>2024-08-22T08:34:31Z</time>
      </trkpt>
      <trkpt lat="44.37964" lon="1.48096">
        <ele>274</ele>
        <time>2024-08-22T08:34:36Z</time>
      </trkpt>
      <trkpt lat="44.37963" lon="1.4809">
        <ele>273.8</ele>
        <time>2024-08-22T08:34:43Z</time>
      </trkpt>
      <trkpt lat="44.37968" lon="1.48089">
        <ele>270.6</ele>
        <time>2024-08-22T08:36:57Z</time>
      </trkpt>
      <trkpt lat="44.37963" lon="1.48089">
        <ele>271.7</ele>
        <time>2024-08-22T08:37:40Z</time>
      </trkpt>
      <trkpt lat="44.3796" lon="1.48093">
        <ele>272.7</ele>
        <time>2024-08-22T08:42:06Z</time>
      </trkpt>
      <trkpt lat="44.37955" lon="1.48091">
        <ele>274.1</ele>
        <time>2024-08-22T08:42:17Z</time>
      </trkpt>
      <trkpt lat="44.3795" lon="1.48089">
        <ele>274.6</ele>
        <time>2024-08-22T08:42:25Z</time>
      </trkpt>
    </trkseg>
  </trk>
</gpx>